[[{"header":{"parameterUnit":"m.s-1","parameterCategory":1,"la1":31.0,"la2":29.5877,"lo1":-88.7671,"lo2":-86.6584,"dy":0.0162,"dx":0.0185,"nx":115,"ny":88,"refTime":"2026-04-25T00:00:00:Z","depth":0,"parameterNumber":2,"parameterNumberName":"U-component_of_WINDS"},"data":[0.0,0.0,0.0,0.0,0.0,0.0,0.0,0.0,0.0,0.0,0.0,0.0,0.0,0.0,0.0,0.0,0.0,0.0,0.0,0.0,0.0,0.0,0.0,0.0,0.0,0.0,0.0,0.0,0.0,0.0,0.0,0.0,0.0,0.0,0.0,0.0,0.0,0.0,0.0,0.0,0.0,0.0,0.0,0.0,0.0,0.0,0.0,0.0,0.0,0.0,0.0,0.0,0.0,0.0,0.0,0.0,0.0,0.0,0.0,0.0,0.0,0.0,0.0,0.0,0.0,0.0,0.0,0.0,0.0,0.0,0.0,0.0,0.0,0.0,0.0,0.0,0.0,0.0,0.0,0.0,0.0,0.0,0.0,0.0,0.0,0.0,0.0,0.0,0.0,0.0,0.0,0.0,0.0,0.0,0.0,0.0,0.0,0.0,0.0,0.0,0.0,0.0,0.0,0.0,0.0,0.0,0.0,0.0,0.0,0.0,0.0,0.0,0.0,0.0,0.0,0.0,0.0,0.0,0.0,0.0,0.0,0.0,0.0,0.0,0.0,0.0,0.0,0.0,0.0,0.0,0.0,0.0,0.0,0.0,0.0,0.0,0.0,0.0,0.0,0.0,0.0,0.0,0.0,0.0,0.0,0.0,0.0,0.0,0.0,0.0,0.0,0.0,0.0,0.0,0.0,0.0,0.0,0.0,0.0,0.0,0.0,0.0,0.0,0.0,0.0,0.0,0.0,0.0,0.0,0.0,0.0,0.0,0.0,0.0,0.0,0.0,0.0,0.0,0.0,0.0,0.0,0.0,0.0,0.0,0.0,0.0,0.0,0.0,0.0,0.0,0.0,0.0,0.0,0.0,0.0,0.0,0.0,0.0,0.0,0.0,0.0,0.0,0.0,0.0,0.0,0.0,0.0,0.0,0.0,0.0,0.0,0.0,0.0,0.0,0.0,0.0,0.0,0.0,0.0,0.0,0.0,0.0,0.0,0.0,0.0,0.0,0.0,0.0,0.0,0.0,0.0,0.0,0.0,0.0,0.0,0.0,0.0,0.0,0.0,0.0,0.0,0.0,0.0,0.0,0.0,0.0,0.0,0.0,0.0,0.0,0.0,0.0,0.0,0.0,0.0,0.0,0.0,0.0,0.0,0.0,0.0,0.0,0.0,0.0,0.0,0.0,0.0,0.0,0.0,0.0,0.0,0.0,0.0,0.0,0.0,0.0,0.0,0.0,0.0,0.0,0.0,0.0,0.0,0.0,0.0,0.0,0.0,0.0,0.0,0.0,0.0,0.0,0.0,0.0,0.0,0.0,0.0,0.0,0.0,0.0,0.0,0.0,0.0,0.0,0.0,0.0,0.0,0.0,0.0,0.0,0.0,0.0,0.0,0.0,0.0,0.0,0.0,0.0,0.0,0.0,0.0,0.0,0.0,0.0,0.0,0.0,0.0,0.0,0.0,0.0,0.0,0.0,0.0,0.0,0.0,0.0,0.0,0.0,0.0,0.0,0.0,0.0,0.0,0.0,0.0,0.0,0.0,0.0,0.0,0.0,0.0,0.0,0.0,0.0,0.0,0.0,0.0,0.0,0.0,0.0,0.0,0.0,0.0,0.0,0.0,0.0,0.0,0.0,0.0,0.0,0.0,0.0,0.0,0.0,0.0,0.0,0.0,0.0,0.0,0.0,0.0,0.0,0.0,0.0,0.0,0.0,0.0,0.0,0.0,0.0,0.0,0.0,0.0,0.0,0.0,0.0,0.0,0.0,0.0,0.0,0.0,0.0,0.0,0.0,0.0,0.0,0.0,0.0,0.0,0.0,0.0,0.0,0.0,0.0,0.0,0.0,0.0,0.0,0.0,0.0,0.0,0.0,0.0,0.0,0.0,0.0,0.0,0.0,0.0,0.0,0.0,0.0,0.0,0.0,0.0,0.0,0.0,0.0,0.0,0.0,0.0,0.0,0.0,0.0,0.0,0.0,0.0,0.0,0.0,0.0,0.0,0.0,0.0,0.0,0.0,0.0,0.0,0.0,0.0,0.0,0.0,0.0,0.0,0.0,0.0,0.0,0.0,0.0,0.0,0.0,0.0,0.0,0.0,0.0,0.0,0.0,0.0,0.0,0.0,0.0,0.0,0.0,0.0,0.0,0.0,0.0,0.0,0.0,0.0,0.0,0.0,0.0,0.0,0.0,0.0,0.0,0.0,0.0,0.0,0.0,0.0,0.0,0.0,0.0,0.0,0.0,0.0,0.0,0.0,0.0,0.0,0.0,0.0,0.0,0.0,0.0,0.0,0.0,0.0,0.0,0.0,0.0,0.0,0.0,0.0,0.0,0.0,0.0,0.0,0.0,0.0,0.0,0.0,0.0,0.0,0.0,0.0,0.0,0.0,0.0,0.0,0.0,0.0,0.0,0.0,0.0,0.0,0.0,0.0,0.0,0.0,0.0,0.0,0.0,0.0,0.0,0.0,0.0,0.0,0.0,0.0,0.0,0.0,0.0,0.0,0.0,0.0,0.0,0.0,0.0,0.0,0.0,0.0,0.0,0.0,0.0,0.0,0.0,0.0,0.0,0.0,0.0,0.0,0.0,0.0,0.0,0.0,0.0,0.0,0.0,0.0,0.0,0.0,0.0,0.0,0.0,0.0,0.0,0.0,0.0,0.0,0.0,0.0,0.0,0.0,0.0,0.0,0.0,0.0,0.0,0.0,0.0,0.0,0.0,0.0,0.0,0.0,0.0,0.0,0.0,0.0,0.0,0.0,0.0,0.0,0.0,0.0,0.0,0.0,0.0,0.0,0.0,0.0,0.0,0.0,0.0,0.0,0.0,0.0,0.0,0.0,0.0,0.0,0.0,0.0,0.0,0.0,0.0,0.0,0.0,0.0,0.0,0.0,0.0,0.0,0.0,0.0,0.0,0.0,0.0,0.0,0.0,0.0,0.0,0.0,0.0,0.0,0.0,0.0,0.0,0.0,0.0,0.0,0.0,0.0,0.0,0.0,0.0,0.0,0.0,0.0,0.0,0.0,0.0,0.0,0.0,0.0,0.0,0.0,0.0,0.0,0.0,0.0,0.0,0.0,0.0,0.0,0.0,0.0,0.0,0.0,0.0,0.0,0.0,0.0,0.0,0.0,0.0,0.0,0.0,0.0,0.0,0.0,0.0,0.0,0.0,0.0,0.0,0.0,0.0,0.0,0.0,0.0,0.0,0.0,0.0,0.0,0.0,0.0,0.0,0.0,0.0,0.0,0.0,0.0,0.0,0.0,0.0,0.0,0.0,0.0,0.0,0.0,0.0,0.0,0.0,0.0,0.0,0.0,0.0,0.0,0.0,0.0,0.0,0.0,0.0,0.0,0.0,0.0,0.0,0.0,0.0,0.0,0.0,0.0,0.0,0.0,0.0,0.0,0.0,0.0,0.0,0.0,0.0,0.0,0.0,0.0,0.0,0.0,0.0,0.0,0.0,0.0,0.0,0.0,0.0,0.0,0.0,0.0,0.0,0.0,0.0,0.0,0.0,0.0,0.0,0.0,0.0,0.0,0.0,0.0,0.0,0.0,0.0,0.0,0.0,0.0,0.0,0.0,0.0,0.0,0.0,0.0,0.0,0.0,0.0,0.0,0.0,0.0,0.0,0.0,0.0,0.0,0.0,0.0,0.0,0.0,0.0,0.0,0.0,0.0,0.0,0.0,0.0,0.0,0.0,0.0,0.0,0.0,0.0,0.0,0.0,0.0,0.0,0.0,0.0,0.0,0.0,0.0,0.0,0.0,0.0,0.0,0.0,0.0,0.0,0.0,0.0,0.0,0.0,0.0,0.0,0.0,0.0,0.0,0.0,0.0,0.0,0.0,0.0,0.0,0.0,0.0,0.0,0.0,0.0,0.0,0.0,0.0,0.0,0.0,0.0,0.0,0.0,0.0,0.0,0.0,0.0,0.0,0.0,0.0,0.0,0.0,0.0,0.0,0.0,0.0,0.0,0.0,0.0,0.0,0.0,0.0,0.0,0.0,0.0,0.0,0.0,0.0,0.0,0.0,0.0,0.0,0.0,0.0,0.0,0.0,0.0,0.0,0.0,0.0,0.0,0.0,0.0,0.0,0.0,0.0,0.0,0.0,0.0,0.0,0.0,0.0,0.0,0.0,0.0,0.0,0.0,0.0,0.0,0.0,0.0,0.0,0.0,0.0,0.0,0.0,0.0,0.0,0.0,0.0,0.0,0.0,0.0,0.0,0.0,0.0,0.0,0.0,0.0,0.0,0.0,0.0,0.0,0.0,0.0,-4.4775,0.0,0.0,0.0,0.0,0.0,0.0,0.0,0.0,0.0,0.0,0.0,0.0,0.0,0.0,0.0,0.0,0.0,0.0,0.0,0.0,0.0,0.0,0.0,0.0,0.0,0.0,0.0,0.0,0.0,0.0,0.0,0.0,0.0,0.0,0.0,0.0,0.0,0.0,0.0,0.0,0.0,0.0,0.0,0.0,0.0,0.0,0.0,0.0,0.0,0.0,0.0,0.0,0.0,0.0,0.0,0.0,0.0,0.0,0.0,0.0,0.0,0.0,0.0,0.0,0.0,0.0,0.0,0.0,0.0,0.0,0.0,0.0,0.0,0.0,0.0,0.0,0.0,0.0,0.0,0.0,0.0,0.0,0.0,0.0,0.0,0.0,0.0,0.0,0.0,0.0,0.0,0.0,0.0,0.0,0.0,0.0,0.0,0.0,0.0,0.0,0.0,0.0,0.0,0.0,0.0,0.0,0.0,0.0,0.0,0.0,-4.5893,-4.5807,-4.5807,-4.52,-4.3904,0.0,0.0,0.0,0.0,0.0,0.0,0.0,0.0,0.0,0.0,0.0,0.0,0.0,0.0,0.0,0.0,0.0,0.0,0.0,0.0,0.0,0.0,0.0,0.0,0.0,0.0,0.0,0.0,0.0,0.0,0.0,0.0,0.0,0.0,0.0,0.0,0.0,0.0,0.0,0.0,0.0,0.0,0.0,0.0,0.0,0.0,0.0,0.0,0.0,0.0,0.0,0.0,0.0,0.0,0.0,0.0,0.0,0.0,0.0,0.0,0.0,0.0,0.0,0.0,0.0,0.0,0.0,0.0,0.0,0.0,0.0,0.0,0.0,0.0,0.0,0.0,0.0,0.0,0.0,0.0,0.0,0.0,0.0,0.0,0.0,0.0,0.0,0.0,0.0,0.0,0.0,0.0,0.0,0.0,0.0,0.0,0.0,0.0,0.0,0.0,0.0,0.0,0.0,0.0,0.0,0.0,0.0,0.0,0.0,0.0,0.0,0.0,-4.5923,-4.4743,-4.2492,0.0,0.0,0.0,0.0,0.0,0.0,0.0,0.0,0.0,0.0,0.0,0.0,0.0,0.0,0.0,0.0,0.0,0.0,0.0,0.0,0.0,0.0,0.0,0.0,0.0,0.0,0.0,0.0,0.0,0.0,0.0,0.0,0.0,0.0,0.0,0.0,0.0,0.0,0.0,0.0,0.0,0.0,0.0,0.0,0.0,0.0,0.0,0.0,0.0,0.0,0.0,0.0,0.0,0.0,0.0,0.0,0.0,0.0,0.0,0.0,0.0,0.0,0.0,0.0,0.0,0.0,0.0,0.0,0.0,0.0,0.0,0.0,0.0,0.0,0.0,0.0,0.0,0.0,0.0,0.0,0.0,0.0,0.0,0.0,0.0,0.0,0.0,0.0,0.0,0.0,0.0,0.0,0.0,0.0,0.0,0.0,0.0,0.0,0.0,0.0,0.0,0.0,0.0,0.0,0.0,0.0,0.0,0.0,0.0,0.0,-4.7041,-4.6967,-4.6271,0.0,-4.01,0.0,0.0,0.0,0.0,0.0,0.0,0.0,0.0,0.0,0.0,0.0,0.0,0.0,0.0,0.0,0.0,0.0,0.0,0.0,0.0,0.0,0.0,0.0,0.0,0.0,0.0,0.0,0.0,0.0,0.0,0.0,0.0,0.0,0.0,0.0,0.0,0.0,0.0,0.0,0.0,0.0,0.0,0.0,0.0,0.0,0.0,0.0,0.0,0.0,0.0,0.0,0.0,0.0,0.0,0.0,0.0,0.0,0.0,0.0,0.0,0.0,0.0,0.0,0.0,0.0,0.0,0.0,0.0,0.0,0.0,0.0,0.0,0.0,0.0,0.0,0.0,0.0,0.0,0.0,0.0,0.0,0.0,0.0,0.0,0.0,0.0,0.0,0.0,0.0,0.0,0.0,0.0,0.0,0.0,0.0,0.0,0.0,0.0,0.0,0.0,0.0,0.0,0.0,0.0,0.0,0.0,0.0,0.0,0.0,0.0,-4.7361,-4.7869,-4.5587,-4.3079,0.0,0.0,0.0,0.0,0.0,0.0,0.0,0.0,0.0,0.0,0.0,0.0,0.0,0.0,0.0,0.0,0.0,0.0,0.0,0.0,0.0,0.0,0.0,0.0,0.0,0.0,0.0,0.0,0.0,0.0,0.0,0.0,0.0,0.0,0.0,0.0,0.0,0.0,0.0,0.0,0.0,0.0,0.0,0.0,0.0,0.0,0.0,0.0,0.0,0.0,0.0,0.0,0.0,0.0,0.0,0.0,0.0,0.0,0.0,0.0,0.0,0.0,0.0,0.0,0.0,0.0,0.0,0.0,0.0,0.0,0.0,0.0,0.0,0.0,0.0,0.0,0.0,0.0,0.0,0.0,0.0,0.0,0.0,0.0,0.0,0.0,0.0,0.0,0.0,0.0,0.0,0.0,0.0,0.0,0.0,0.0,0.0,0.0,0.0,0.0,0.0,0.0,0.0,0.0,0.0,0.0,0.0,0.0,0.0,0.0,-4.6658,0.0,-4.7212,-4.4736,-4.2183,-3.981,0.0,0.0,0.0,0.0,0.0,0.0,0.0,0.0,0.0,0.0,0.0,0.0,0.0,0.0,0.0,0.0,0.0,0.0,0.0,0.0,0.0,0.0,0.0,0.0,0.0,0.0,0.0,0.0,0.0,0.0,0.0,0.0,0.0,0.0,0.0,0.0,0.0,0.0,0.0,0.0,0.0,0.0,0.0,0.0,0.0,0.0,0.0,0.0,0.0,0.0,0.0,0.0,0.0,0.0,0.0,0.0,0.0,0.0,0.0,0.0,0.0,0.0,0.0,0.0,0.0,0.0,0.0,0.0,0.0,0.0,0.0,0.0,0.0,0.0,0.0,0.0,0.0,0.0,0.0,0.0,0.0,0.0,0.0,0.0,0.0,0.0,0.0,0.0,0.0,0.0,0.0,0.0,0.0,0.0,0.0,0.0,0.0,0.0,0.0,0.0,0.0,0.0,0.0,0.0,0.0,0.0,0.0,0.0,0.0,-4.6651,-4.6361,-4.4884,-4.3808,-4.1332,0.0,0.0,0.0,0.0,0.0,0.0,0.0,0.0,0.0,0.0,0.0,0.0,0.0,0.0,0.0,0.0,0.0,0.0,0.0,0.0,0.0,0.0,0.0,0.0,0.0,0.0,0.0,0.0,0.0,0.0,0.0,0.0,0.0,0.0,0.0,0.0,0.0,0.0,0.0,0.0,0.0,0.0,0.0,0.0,0.0,0.0,0.0,0.0,0.0,0.0,0.0,0.0,0.0,0.0,0.0,0.0,0.0,0.0,0.0,0.0,0.0,0.0,0.0,0.0,0.0,0.0,0.0,0.0,0.0,0.0,0.0,0.0,0.0,0.0,0.0,0.0,0.0,0.0,0.0,0.0,0.0,0.0,0.0,0.0,0.0,0.0,0.0,0.0,0.0,0.0,0.0,0.0,0.0,0.0,0.0,0.0,0.0,0.0,0.0,0.0,0.0,0.0,0.0,0.0,0.0,0.0,0.0,0.0,0.0,-4.513,-4.6399,-4.6561,-4.5355,-4.3002,-4.0191,0.0,0.0,0.0,0.0,0.0,0.0,0.0,0.0,0.0,0.0,0.0,0.0,0.0,0.0,0.0,0.0,0.0,0.0,0.0,0.0,0.0,0.0,0.0,0.0,0.0,0.0,0.0,0.0,0.0,0.0,0.0,0.0,0.0,0.0,0.0,0.0,0.0,0.0,0.0,0.0,0.0,0.0,0.0,0.0,0.0,0.0,0.0,0.0,0.0,0.0,0.0,0.0,0.0,0.0,0.0,0.0,0.0,0.0,0.0,0.0,0.0,0.0,0.0,0.0,0.0,0.0,0.0,0.0,0.0,0.0,0.0,0.0,0.0,0.0,0.0,0.0,0.0,0.0,0.0,0.0,0.0,0.0,0.0,0.0,0.0,0.0,0.0,0.0,0.0,0.0,0.0,0.0,0.0,0.0,0.0,0.0,0.0,0.0,0.0,0.0,0.0,0.0,0.0,0.0,0.0,0.0,0.0,0.0,0.0,-4.5118,0.0,-4.7049,0.0,-4.3143,-4.015,0.0,0.0,0.0,0.0,0.0,0.0,0.0,0.0,0.0,0.0,0.0,0.0,0.0,0.0,0.0,0.0,0.0,0.0,0.0,0.0,0.0,0.0,0.0,0.0,0.0,0.0,0.0,0.0,0.0,0.0,0.0,0.0,0.0,0.0,0.0,0.0,0.0,0.0,0.0,0.0,0.0,0.0,0.0,0.0,0.0,0.0,0.0,0.0,0.0,0.0,0.0,0.0,0.0,0.0,0.0,0.0,0.0,0.0,0.0,0.0,0.0,0.0,0.0,0.0,0.0,0.0,0.0,0.0,0.0,0.0,0.0,0.0,0.0,0.0,0.0,0.0,0.0,0.0,0.0,0.0,0.0,0.0,0.0,0.0,0.0,0.0,0.0,0.0,0.0,0.0,0.0,0.0,0.0,0.0,0.0,0.0,0.0,0.0,0.0,0.0,0.0,0.0,0.0,0.0,0.0,0.0,0.0,0.0,-4.5203,-4.6046,-4.7711,-4.7778,-4.6047,-4.4195,-4.1311,0.0,0.0,0.0,0.0,0.0,0.0,0.0,0.0,0.0,0.0,0.0,0.0,0.0,0.0,0.0,0.0,0.0,0.0,0.0,0.0,0.0,0.0,0.0,0.0,0.0,0.0,0.0,0.0,0.0,0.0,0.0,0.0,0.0,0.0,0.0,0.0,0.0,0.0,0.0,0.0,0.0,0.0,0.0,0.0,0.0,0.0,0.0,0.0,0.0,0.0,0.0,0.0,0.0,0.0,0.0,0.0,0.0,0.0,0.0,0.0,0.0,0.0,0.0,0.0,0.0,0.0,0.0,0.0,0.0,0.0,0.0,0.0,0.0,0.0,0.0,0.0,0.0,0.0,0.0,0.0,0.0,0.0,0.0,0.0,0.0,0.0,0.0,0.0,0.0,0.0,0.0,0.0,0.0,0.0,0.0,0.0,0.0,0.0,0.0,0.0,0.0,0.0,0.0,0.0,0.0,0.0,0.0,0.0,0.0,-4.7731,-4.8904,-4.8405,-4.6104,-4.3213,-4.0218,0.0,0.0,0.0,0.0,0.0,0.0,0.0,0.0,0.0,0.0,0.0,0.0,0.0,0.0,0.0,0.0,0.0,0.0,0.0,0.0,0.0,0.0,0.0,0.0,0.0,0.0,0.0,0.0,0.0,0.0,0.0,0.0,0.0,0.0,0.0,0.0,0.0,0.0,0.0,0.0,0.0,0.0,0.0,0.0,0.0,0.0,0.0,0.0,0.0,0.0,0.0,0.0,0.0,0.0,0.0,0.0,0.0,0.0,0.0,0.0,0.0,0.0,0.0,0.0,0.0,0.0,0.0,0.0,0.0,0.0,0.0,0.0,0.0,0.0,0.0,0.0,0.0,0.0,0.0,0.0,0.0,0.0,0.0,0.0,0.0,0.0,0.0,0.0,0.0,0.0,0.0,0.0,0.0,0.0,0.0,0.0,0.0,0.0,0.0,0.0,0.0,0.0,0.0,0.0,0.0,0.0,0.0,0.0,0.0,-5.043,-5.1157,-5.0199,-4.7645,-4.4814,-4.1657,-3.8121,0.0,0.0,0.0,0.0,0.0,0.0,0.0,0.0,0.0,0.0,0.0,0.0,0.0,0.0,0.0,0.0,0.0,0.0,0.0,0.0,0.0,0.0,0.0,0.0,0.0,0.0,0.0,0.0,0.0,0.0,0.0,0.0,0.0,0.0,0.0,0.0,0.0,0.0,0.0,0.0,0.0,0.0,0.0,0.0,0.0,0.0,0.0,0.0,0.0,0.0,0.0,0.0,0.0,0.0,0.0,0.0,0.0,0.0,0.0,0.0,0.0,0.0,0.0,0.0,0.0,0.0,0.0,0.0,0.0,0.0,0.0,0.0,0.0,0.0,0.0,0.0,0.0,0.0,0.0,0.0,0.0,0.0,0.0,0.0,0.0,0.0,0.0,0.0,0.0,0.0,0.0,0.0,0.0,0.0,0.0,0.0,0.0,0.0,0.0,0.0,0.0,0.0,0.0,0.0,0.0,0.0,0.0,0.0,-5.3984,-5.4306,-5.3151,-5.0472,-4.8521,-4.5111,0.0,0.0,0.0,0.0,0.0,0.0,0.0,0.0,0.0,0.0,0.0,0.0,0.0,0.0,0.0,0.0,0.0,0.0,0.0,0.0,0.0,0.0,0.0,0.0,0.0,0.0,0.0,0.0,0.0,0.0,0.0,0.0,0.0,0.0,0.0,0.0,0.0,0.0,0.0,0.0,0.0,0.0,0.0,0.0,0.0,0.0,0.0,0.0,0.0,0.0,0.0,0.0,0.0,0.0,0.0,0.0,0.0,0.0,0.0,0.0,0.0,0.0,0.0,0.0,0.0,0.0,0.0,0.0,0.0,0.0,0.0,0.0,0.0,0.0,0.0,0.0,0.0,0.0,0.0,0.0,0.0,0.0,0.0,0.0,0.0,0.0,0.0,0.0,0.0,0.0,0.0,0.0,0.0,0.0,0.0,0.0,0.0,0.0,0.0,0.0,0.0,0.0,0.0,0.0,0.0,0.0,0.0,0.0,0.0,-5.4863,-5.8046,-5.7847,-5.4048,-5.0992,-4.6945,0.0,0.0,0.0,0.0,0.0,0.0,0.0,0.0,0.0,0.0,0.0,0.0,0.0,0.0,0.0,0.0,0.0,0.0,0.0,0.0,0.0,0.0,0.0,0.0,0.0,0.0,0.0,0.0,0.0,0.0,0.0,0.0,0.0,0.0,0.0,0.0,0.0,0.0,0.0,0.0,0.0,0.0,0.0,0.0,0.0,0.0,0.0,0.0,0.0,0.0,0.0,0.0,0.0,0.0,0.0,0.0,0.0,0.0,0.0,0.0,0.0,0.0,0.0,0.0,0.0,0.0,0.0,0.0,0.0,0.0,0.0,0.0,0.0,0.0,0.0,0.0,0.0,0.0,0.0,0.0,0.0,0.0,0.0,0.0,0.0,0.0,0.0,0.0,0.0,0.0,0.0,0.0,0.0,0.0,0.0,0.0,0.0,0.0,0.0,0.0,0.0,0.0,0.0,0.0,0.0,0.0,0.0,0.0,-5.2031,-5.5801,-6.0039,-6.0547,-5.7029,-5.3216,-4.8727,0.0,0.0,0.0,0.0,0.0,0.0,0.0,0.0,0.0,0.0,0.0,0.0,0.0,0.0,0.0,0.0,0.0,0.0,0.0,0.0,0.0,0.0,0.0,0.0,0.0,0.0,0.0,0.0,0.0,0.0,0.0,0.0,0.0,0.0,0.0,0.0,0.0,0.0,0.0,0.0,0.0,0.0,0.0,0.0,0.0,0.0,0.0,0.0,0.0,0.0,0.0,0.0,0.0,0.0,0.0,0.0,0.0,0.0,0.0,0.0,0.0,0.0,0.0,0.0,0.0,0.0,0.0,0.0,0.0,0.0,0.0,0.0,0.0,0.0,0.0,0.0,0.0,0.0,0.0,0.0,0.0,0.0,0.0,0.0,0.0,0.0,0.0,0.0,0.0,0.0,0.0,0.0,0.0,0.0,0.0,0.0,0.0,0.0,0.0,0.0,0.0,0.0,0.0,0.0,0.0,0.0,0.0,0.0,-5.2676,-5.668,-6.0918,-6.1914,-5.9336,-5.5213,-5.0477,0.0,0.0,0.0,0.0,0.0,0.0,0.0,0.0,0.0,0.0,0.0,0.0,0.0,0.0,0.0,0.0,0.0,0.0,0.0,0.0,0.0,0.0,0.0,0.0,0.0,0.0,0.0,0.0,0.0,0.0,0.0,0.0,0.0,0.0,0.0,0.0,0.0,0.0,0.0,0.0,0.0,0.0,0.0,0.0,0.0,0.0,0.0,0.0,0.0,0.0,0.0,0.0,0.0,0.0,0.0,0.0,0.0,0.0,0.0,0.0,0.0,0.0,0.0,0.0,0.0,0.0,0.0,0.0,0.0,0.0,0.0,0.0,0.0,0.0,0.0,0.0,0.0,0.0,0.0,0.0,0.0,0.0,0.0,0.0,0.0,0.0,0.0,0.0,0.0,0.0,0.0,0.0,0.0,0.0,0.0,0.0,0.0,0.0,0.0,0.0,0.0,0.0,0.0,0.0,0.0,0.0,0.0,0.0,-5.5312,-5.7617,-6.1797,-6.2773,-6.0195,-5.664,-5.2009,0.0,0.0,0.0,0.0,0.0,0.0,0.0,0.0,0.0,0.0,0.0,0.0,0.0,0.0,0.0,0.0,0.0,0.0,0.0,0.0,0.0,0.0,0.0,0.0,0.0,0.0,0.0,0.0,0.0,0.0,0.0,0.0,0.0,0.0,0.0,0.0,0.0,0.0,0.0,0.0,0.0,0.0,0.0,0.0,0.0,0.0,0.0,0.0,-3.1404,0.0,0.0,0.0,0.0,0.0,0.0,0.0,0.0,0.0,0.0,0.0,0.0,0.0,0.0,0.0,0.0,0.0,0.0,0.0,0.0,0.0,0.0,0.0,0.0,0.0,0.0,0.0,0.0,0.0,0.0,0.0,0.0,0.0,0.0,0.0,0.0,0.0,0.0,0.0,0.0,0.0,0.0,0.0,0.0,0.0,0.0,0.0,0.0,0.0,0.0,0.0,0.0,0.0,0.0,0.0,0.0,0.0,0.0,0.0,-5.6152,-5.793,-6.168,-6.2461,-5.9902,-5.7676,-5.367,0.0,0.0,0.0,0.0,0.0,0.0,0.0,0.0,0.0,0.0,0.0,0.0,0.0,0.0,0.0,0.0,0.0,0.0,0.0,0.0,0.0,0.0,0.0,0.0,0.0,0.0,0.0,0.0,0.0,0.0,0.0,0.0,0.0,0.0,0.0,0.0,0.0,0.0,0.0,0.0,0.0,0.0,0.0,0.0,0.0,0.0,0.0,0.0,0.0,0.0,0.0,0.0,0.0,0.0,0.0,0.0,0.0,0.0,0.0,0.0,0.0,0.0,0.0,0.0,0.0,0.0,0.0,0.0,0.0,0.0,0.0,0.0,0.0,0.0,0.0,0.0,0.0,0.0,0.0,0.0,0.0,0.0,0.0,0.0,0.0,0.0,0.0,0.0,0.0,0.0,0.0,0.0,0.0,0.0,0.0,0.0,0.0,0.0,0.0,0.0,0.0,0.0,0.0,0.0,0.0,0.0,0.0,-5.2441,-5.6269,-5.793,-6.125,-6.1719,-5.9082,-5.8027,-5.4647,-4.8634,0.0,0.0,0.0,0.0,0.0,0.0,0.0,0.0,0.0,0.0,0.0,0.0,0.0,0.0,0.0,0.0,0.0,0.0,0.0,0.0,0.0,0.0,0.0,0.0,0.0,0.0,0.0,0.0,0.0,0.0,0.0,0.0,0.0,0.0,0.0,0.0,0.0,0.0,-3.1974,-3.2968,0.0,0.0,0.0,0.0,0.0,0.0,0.0,0.0,-3.1758,0.0,0.0,0.0,0.0,0.0,0.0,0.0,0.0,0.0,0.0,0.0,0.0,0.0,0.0,0.0,0.0,0.0,0.0,0.0,0.0,0.0,0.0,0.0,0.0,0.0,0.0,0.0,0.0,0.0,0.0,0.0,0.0,0.0,0.0,0.0,0.0,0.0,0.0,0.0,0.0,0.0,0.0,0.0,0.0,0.0,0.0,0.0,0.0,0.0,0.0,0.0,0.0,0.0,0.0,0.0,0.0,-4.7363,-5.334,-5.6875,-5.793,-6.123,-6.1445,-5.8223,-5.6562,-5.2889,-4.7059,0.0,0.0,0.0,0.0,0.0,0.0,0.0,0.0,0.0,0.0,0.0,0.0,0.0,0.0,0.0,0.0,0.0,0.0,0.0,0.0,0.0,0.0,0.0,0.0,0.0,0.0,0.0,0.0,0.0,0.0,0.0,0.0,0.0,0.0,0.0,0.0,0.0,0.0,0.0,-3.3476,-3.4159,0.0,0.0,0.0,0.0,0.0,0.0,0.0,0.0,-3.1202,0.0,0.0,0.0,0.0,0.0,0.0,0.0,0.0,0.0,0.0,0.0,0.0,0.0,0.0,0.0,0.0,0.0,0.0,0.0,0.0,0.0,0.0,0.0,0.0,0.0,0.0,0.0,0.0,0.0,0.0,0.0,0.0,0.0,0.0,0.0,0.0,0.0,0.0,0.0,0.0,0.0,0.0,0.0,0.0,0.0,0.0,0.0,0.0,0.0,0.0,0.0,0.0,0.0,0.0,0.0,-4.8242,-5.3769,-5.7031,-5.793,-6.0351,-6.0019,-5.666,-5.4863,-5.1327,0.0,0.0,0.0,0.0,0.0,0.0,0.0,0.0,0.0,0.0,0.0,0.0,0.0,0.0,0.0,0.0,0.0,0.0,0.0,0.0,0.0,0.0,0.0,0.0,0.0,0.0,0.0,0.0,0.0,0.0,0.0,0.0,0.0,0.0,0.0,0.0,0.0,0.0,0.0,0.0,-3.494,-3.5896,-3.5486,0.0,0.0,0.0,0.0,0.0,0.0,-3.219,-3.1586,0.0,0.0,0.0,0.0,0.0,0.0,0.0,0.0,0.0,0.0,0.0,0.0,0.0,0.0,0.0,0.0,0.0,0.0,0.0,0.0,0.0,0.0,0.0,0.0,0.0,0.0,0.0,0.0,0.0,0.0,0.0,0.0,0.0,0.0,0.0,0.0,0.0,0.0,0.0,0.0,0.0,0.0,0.0,0.0,0.0,0.0,0.0,0.0,0.0,0.0,0.0,0.0,0.0,0.0,0.0,-4.8594,-5.3711,-5.6758,-5.7656,-5.9297,-5.8515,-5.5156,-5.3359,-4.9921,0.0,0.0,0.0,0.0,0.0,0.0,0.0,0.0,0.0,0.0,0.0,0.0,0.0,0.0,0.0,0.0,0.0,0.0,0.0,0.0,0.0,0.0,0.0,0.0,0.0,0.0,0.0,0.0,0.0,0.0,0.0,0.0,0.0,0.0,0.0,0.0,0.0,0.0,0.0,0.0,0.0,-3.7379,-3.7536,-3.7575,0.0,0.0,0.0,0.0,-3.4074,-3.3446,0.0,0.0,0.0,0.0,0.0,0.0,0.0,0.0,0.0,0.0,0.0,0.0,0.0,0.0,0.0,0.0,0.0,0.0,0.0,0.0,0.0,0.0,0.0,0.0,0.0,0.0,0.0,0.0,0.0,0.0,0.0,0.0,0.0,0.0,0.0,0.0,0.0,0.0,0.0,0.0,0.0,0.0,0.0,0.0,0.0,0.0,0.0,0.0,0.0,0.0,0.0,0.0,0.0,0.0,0.0,0.0,-4.7754,-5.2832,-5.5859,-5.6777,-5.8457,-5.7676,-5.4258,-5.2461,-4.8769,0.0,0.0,0.0,0.0,0.0,0.0,0.0,0.0,0.0,0.0,0.0,0.0,0.0,0.0,0.0,0.0,0.0,0.0,0.0,0.0,0.0,0.0,0.0,0.0,0.0,0.0,0.0,0.0,0.0,0.0,0.0,0.0,0.0,0.0,0.0,0.0,0.0,0.0,0.0,0.0,0.0,-3.7575,-3.8337,-3.8454,-3.8354,0.0,0.0,-3.6748,-3.6757,-3.6615,0.0,0.0,0.0,0.0,0.0,0.0,0.0,0.0,0.0,0.0,0.0,0.0,0.0,0.0,0.0,0.0,0.0,0.0,0.0,0.0,0.0,0.0,0.0,0.0,0.0,0.0,0.0,0.0,0.0,0.0,0.0,0.0,0.0,0.0,0.0,0.0,0.0,0.0,0.0,0.0,0.0,0.0,0.0,0.0,0.0,0.0,0.0,0.0,0.0,0.0,0.0,0.0,0.0,0.0,0.0,-4.209,-4.6836,-5.1953,-5.498,-5.5859,-5.707,-5.6308,-5.332,-5.0664,-4.709,0.0,0.0,0.0,0.0,0.0,0.0,0.0,0.0,0.0,0.0,0.0,0.0,0.0,0.0,0.0,0.0,0.0,0.0,0.0,0.0,0.0,0.0,0.0,0.0,0.0,0.0,0.0,0.0,0.0,0.0,0.0,0.0,0.0,0.0,0.0,0.0,0.0,0.0,0.0,0.0,0.0,0.0,-3.9899,-4.0426,0.0,0.0,0.0,-3.867,-3.8668,0.0,0.0,0.0,0.0,0.0,0.0,0.0,0.0,0.0,0.0,0.0,0.0,0.0,0.0,0.0,0.0,0.0,0.0,0.0,0.0,0.0,0.0,0.0,0.0,0.0,0.0,0.0,0.0,0.0,0.0,0.0,0.0,0.0,0.0,0.0,0.0,0.0,0.0,0.0,0.0,0.0,0.0,0.0,0.0,0.0,0.0,0.0,0.0,0.0,0.0,0.0,0.0,0.0,0.0,0.0,0.0,0.0,-4.5918,-5.084,-5.3769,-5.4648,-5.5508,-5.4707,-5.2129,-4.9355,0.0,0.0,0.0,0.0,0.0,0.0,0.0,0.0,0.0,0.0,0.0,0.0,0.0,0.0,0.0,0.0,0.0,0.0,0.0,0.0,0.0,0.0,0.0,0.0,0.0,0.0,0.0,-2.3105,0.0,0.0,0.0,0.0,0.0,0.0,0.0,0.0,0.0,0.0,0.0,0.0,0.0,0.0,-3.9976,-4.1246,-4.1986,-4.224,0.0,0.0,-4.0444,-4.0444,-3.9761,-3.8259,0.0,0.0,0.0,0.0,0.0,0.0,0.0,0.0,0.0,0.0,0.0,0.0,0.0,0.0,0.0,0.0,0.0,0.0,0.0,0.0,0.0,0.0,0.0,0.0,0.0,0.0,0.0,0.0,0.0,0.0,0.0,0.0,0.0,0.0,0.0,0.0,0.0,0.0,0.0,0.0,0.0,0.0,0.0,0.0,0.0,0.0,0.0,0.0,0.0,0.0,0.0,0.0,0.0,0.0,0.0,-4.5039,-4.9355,-5.2031,-5.2871,-5.373,-5.2949,-5.0449,-4.9336,-4.6445,0.0,0.0,0.0,0.0,0.0,0.0,0.0,0.0,0.0,0.0,0.0,0.0,0.0,0.0,0.0,0.0,0.0,0.0,0.0,0.0,0.0,0.0,0.0,0.0,0.0,0.0,0.0,0.0,0.0,0.0,0.0,0.0,0.0,0.0,0.0,0.0,0.0,0.0,0.0,0.0,0.0,-3.9587,-4.1986,-4.2357,-4.2669,0.0,0.0,-4.224,-4.222,-4.1479,-3.98,-3.6441,0.0,0.0,0.0,0.0,0.0,0.0,0.0,0.0,0.0,0.0,0.0,0.0,0.0,0.0,0.0,0.0,0.0,0.0,0.0,0.0,0.0,0.0,0.0,0.0,0.0,0.0,0.0,0.0,0.0,0.0,0.0,0.0,0.0,0.0,0.0,0.0,0.0,0.0,0.0,0.0,0.0,0.0,0.0,0.0,0.0,0.0,0.0,0.0,0.0,0.0,0.0,0.0,0.0,-3.9375,-4.4141,-4.8476,-5.1328,-5.2637,-5.3027,-5.248,-5.0976,-4.9101,-4.6152,0.0,0.0,0.0,0.0,0.0,0.0,0.0,0.0,0.0,0.0,0.0,0.0,0.0,0.0,0.0,0.0,0.0,0.0,0.0,0.0,0.0,0.0,0.0,0.0,0.0,0.0,0.0,0.0,-2.5527,-2.5547,-2.5683,0.0,0.0,0.0,0.0,0.0,0.0,0.0,0.0,0.0,0.0,-4.0124,-4.2111,-4.3321,0.0,0.0,-4.3762,-4.3021,-4.2474,-4.0798,-3.8574,-3.5662,-3.3751,0.0,0.0,0.0,0.0,0.0,0.0,0.0,0.0,0.0,0.0,0.0,0.0,0.0,0.0,0.0,0.0,0.0,0.0,0.0,0.0,0.0,0.0,0.0,0.0,0.0,0.0,0.0,0.0,0.0,0.0,0.0,0.0,0.0,0.0,0.0,0.0,0.0,0.0,0.0,0.0,0.0,0.0,0.0,0.0,0.0,0.0,0.0,0.0,0.0,0.0,0.0,0.0,-3.8555,-4.3652,-4.7734,-5.0625,-5.2266,-5.2305,-5.1777,-5.0664,-4.8906,-4.6113,0.0,0.0,0.0,0.0,0.0,0.0,0.0,0.0,0.0,0.0,0.0,0.0,0.0,0.0,0.0,0.0,0.0,0.0,0.0,0.0,0.0,0.0,0.0,0.0,0.0,0.0,0.0,0.0,-2.7148,-2.6543,-2.5449,0.0,0.0,0.0,0.0,0.0,0.0,0.0,0.0,0.0,0.0,-4.0872,-4.2547,-4.4049,-4.5021,-4.5015,-4.4252,-4.3315,-4.2184,-4.0313,-3.811,-3.5509,0.0,0.0,0.0,0.0,0.0,0.0,0.0,0.0,0.0,0.0,0.0,0.0,0.0,0.0,0.0,0.0,0.0,0.0,0.0,0.0,0.0,0.0,0.0,0.0,0.0,0.0,0.0,-3.3165,0.0,0.0,-3.0854,0.0,0.0,0.0,0.0,0.0,0.0,0.0,0.0,0.0,0.0,0.0,0.0,0.0,0.0,0.0,0.0,0.0,0.0,0.0,0.0,0.0,0.0,-3.8535,-4.3633,-4.7168,-4.9746,-5.1348,-5.1426,-5.0644,-4.9062,-4.8887,-4.6445,-4.1328,0.0,0.0,0.0,0.0,0.0,0.0,0.0,0.0,0.0,0.0,0.0,0.0,0.0,0.0,0.0,0.0,0.0,0.0,0.0,0.0,0.0,0.0,0.0,0.0,0.0,0.0,-2.8164,-2.75,-2.6309,0.0,0.0,0.0,0.0,0.0,0.0,0.0,0.0,0.0,0.0,-3.9448,-4.1693,-4.3391,-4.4422,-4.4965,-4.4983,-4.4237,-4.3102,-4.1409,-4.0395,-3.8989,0.0,0.0,0.0,0.0,0.0,0.0,0.0,0.0,0.0,0.0,0.0,0.0,0.0,0.0,0.0,0.0,0.0,0.0,0.0,0.0,0.0,0.0,0.0,0.0,0.0,0.0,0.0,-3.8682,-3.7348,0.0,0.0,0.0,0.0,0.0,0.0,0.0,0.0,0.0,0.0,0.0,-4.3821,-4.3024,0.0,0.0,0.0,0.0,0.0,0.0,0.0,0.0,0.0,0.0,0.0,0.0,-3.8242,-4.2773,-4.6855,-4.9453,-5.0547,-5.0605,-5.0058,-4.8926,-4.7793,-4.4473,-3.8789,0.0,0.0,0.0,0.0,0.0,0.0,0.0,0.0,0.0,0.0,0.0,0.0,0.0,0.0,0.0,0.0,0.0,0.0,0.0,0.0,0.0,0.0,0.0,0.0,0.0,-2.7969,0.0,0.0,0.0,0.0,0.0,0.0,0.0,0.0,0.0,0.0,0.0,-3.4042,-3.6913,-3.9531,-4.1581,-4.2692,-4.357,-4.4135,0.0,0.0,0.0,0.0,0.0,0.0,0.0,0.0,0.0,0.0,0.0,0.0,0.0,0.0,-3.4718,-3.3454,-3.2334,-3.1446,-3.1103,0.0,0.0,0.0,0.0,0.0,0.0,0.0,0.0,0.0,0.0,0.0,0.0,0.0,0.0,-4.2499,0.0,-4.0481,0.0,0.0,0.0,0.0,0.0,0.0,0.0,0.0,-4.641,-4.7236,-4.7255,-4.6432,-4.575,0.0,-4.4625,-4.2345,0.0,0.0,0.0,0.0,0.0,0.0,0.0,0.0,-3.8866,-4.2811,-4.6542,-4.8866,-4.9706,-4.9745,-4.9335,-4.8437,-4.6171,-4.2948,-3.8768,-3.5839,-3.3124,0.0,0.0,0.0,0.0,0.0,0.0,0.0,0.0,0.0,0.0,0.0,0.0,0.0,0.0,0.0,0.0,0.0,0.0,0.0,0.0,0.0,0.0,0.0,-2.8516,0.0,0.0,0.0,0.0,0.0,0.0,0.0,0.0,0.0,-3.0976,-3.3164,-3.5605,-3.791,-4.0195,-4.1914,-4.2734,0.0,0.0,0.0,0.0,0.0,0.0,0.0,-3.8415,-3.7843,-3.7063,-3.669,-3.7244,-3.7555,-3.7848,-3.8121,0.0,0.0,-3.7043,-3.5869,-3.5006,-3.4655,-3.365,-3.3164,-3.4183,-3.4386,-3.4807,0.0,0.0,0.0,0.0,0.0,0.0,0.0,0.0,-4.6832,-4.6689,0.0,-4.4175,0.0,0.0,0.0,0.0,0.0,-4.226,0.0,0.0,-4.8894,-4.9745,-4.9649,-4.8844,-4.843,-4.843,-4.8322,-4.7409,-4.5479,-3.9307,0.0,0.0,0.0,0.0,0.0,0.0,-4.0285,-4.3565,-4.6241,-4.8019,-4.882,-4.8859,-4.8449,-4.7511,-4.4308,-4.2119,-4.1045,-3.7882,-3.4916,-3.2282,-3.0584,0.0,0.0,0.0,0.0,0.0,0.0,0.0,0.0,0.0,0.0,0.0,0.0,0.0,0.0,0.0,0.0,0.0,0.0,0.0,0.0,-2.8594,0.0,0.0,0.0,0.0,0.0,0.0,0.0,0.0,0.0,0.0,-3.3496,-3.5742,-3.7969,-3.9707,0.0,0.0,0.0,0.0,-4.494,-4.492,-4.4937,-4.4057,-4.1579,-4.115,-4.0564,-3.9056,0.0,0.0,-3.9879,-3.9234,-3.9001,-3.9683,-3.9819,-3.9605,-3.8824,-3.8516,-3.8166,-3.7425,-3.7046,-3.7076,-3.7063,-3.6985,-3.7296,-5.549,0.0,0.0,0.0,0.0,-4.9602,-4.9668,-4.9455,-4.9699,-4.9687,-4.9332,-4.7676,0.0,0.0,0.0,0.0,0.0,0.0,-4.7076,-4.8991,-5.0074,-5.055,-5.055,-5.0279,-4.9881,-4.932,-4.8701,-4.7543,-4.5809,-4.2775,-4.0084,-3.7815,0.0,0.0,0.0,0.0,-4.046,-4.2668,-4.5813,-4.7591,-4.7825,-4.7825,-4.7415,-4.6552,-4.495,-4.3407,-4.1925,-3.9791,-3.7152,-3.4025,-3.2276,0.0,0.0,0.0,0.0,0.0,0.0,0.0,0.0,0.0,0.0,0.0,0.0,0.0,0.0,0.0,0.0,0.0,0.0,0.0,-2.8633,-2.9316,-2.9394,0.0,0.0,0.0,0.0,0.0,0.0,0.0,0.0,0.0,-3.6934,-3.7754,-3.8867,0.0,0.0,-4.2715,-4.3594,-4.3926,-4.4082,-4.4082,-4.4082,0.0,-4.3086,-4.2441,-4.2069,-4.2221,-4.2447,-4.2402,-4.1752,-4.1459,-4.1186,-4.0815,-4.0737,-4.066,-4.0424,-3.9852,-3.9369,-3.9075,-3.855,-3.8309,-3.8781,-3.8929,-3.914,-5.9609,-5.6341,-5.4302,-5.3219,-5.2967,-5.3296,-5.3431,-5.3431,-5.3451,-5.3625,-5.3826,-5.1834,-5.0152,-4.8708,-4.638,0.0,0.0,0.0,-4.9359,-5.0712,-5.1196,-5.1409,-5.1389,-5.108,-5.0647,-5.0144,-4.932,-4.8205,-4.6872,-4.5189,-4.3404,-4.1504,0.0,0.0,-3.9119,-4.0154,-4.1528,-4.3245,-4.5632,-4.6879,-4.6879,-4.6547,-4.6099,-4.5589,-4.4401,-4.3272,-4.222,-4.0253,-3.8095,-3.5722,-3.3355,-3.0869,0.0,0.0,0.0,0.0,0.0,0.0,0.0,0.0,0.0,0.0,0.0,-2.0371,-2.1074,0.0,0.0,0.0,-2.582,-2.75,-2.9434,-3.0215,0.0,0.0,0.0,0.0,0.0,0.0,0.0,-3.4687,-3.6465,-3.8066,-3.9453,-3.9922,-4.0508,-4.1543,-4.2383,-4.3223,-4.4101,0.0,-4.4336,-4.4687,-4.4726,-4.4609,-4.4277,-4.3769,-4.3613,-4.4135,-4.3619,-4.3181,-4.2982,-4.2376,-4.1713,-4.1244,-4.1109,-4.1109,-4.1109,-4.0675,-4.0319,-4.0307,-3.9908,-3.9721,-4.0173,-4.0248,-4.0421,-6.2104,-6.1099,-5.872,-5.7114,-5.6302,-5.7048,-5.7376,-5.7396,-5.7299,-5.7753,-5.8303,-5.5877,-5.4291,-5.3188,-5.0113,0.0,-4.9939,-5.0743,-5.1486,-5.219,-5.219,-5.2152,-5.2047,-5.1273,-5.0898,-5.0859,-5.0074,-4.9243,-4.8333,-4.6689,-4.549,-4.462,-4.1553,-4.0764,-4.2207,-4.2348,-4.3188,-4.4748,-4.5628,-4.606,-4.5963,-4.5205,-4.4738,-4.466,-4.3123,-4.2233,-4.2038,-3.9836,-3.8153,-3.7157,-3.4129,-3.163,-2.9951,0.0,0.0,0.0,0.0,0.0,0.0,0.0,0.0,0.0,0.0,0.0,0.0,0.0,0.0,0.0,-2.7012,0.0,-2.9805,-3.1406,0.0,0.0,0.0,-3.1934,-3.3535,-3.4434,-3.5586,-3.7305,0.0,0.0,-4.1191,-4.2051,-4.2598,-4.2598,-4.3301,-4.4121,-4.498,-4.5098,-4.5391,-4.6094,-4.6269,-4.6016,-4.5234,-4.5058,-4.498,-4.4897,-4.3642,-4.2992,-4.3299,-4.2339,-4.1324,-4.1111,-4.1109,-4.1109,-4.1109,-4.107,-4.1109,-4.1069,-4.1049,-4.1049,-4.1046,-4.1026,-4.1046,-6.3864,-6.2984,-6.1718,-5.9957,-5.8023,-5.8197,-5.8294,-5.8236,-5.7579,-5.7415,-5.7482,-5.5625,-5.3942,-5.2453,-5.1649,-5.1409,-5.1649,-5.2492,-5.2647,-5.221,-5.219,-5.1834,-5.1215,-5.0995,-5.0898,-5.084,-5.0094,-4.9262,-4.8372,-4.7308,-4.6361,-4.5478,-4.4099,-4.3304,-4.3078,-4.3698,-4.4221,-4.4653,-4.5454,-4.5589,-4.4963,-4.475,-4.4324,-4.3665,-4.3258,-4.2431,-4.1178,-4.0562,-3.9247,-3.7141,-3.5691,-3.4144,-3.2474,-2.9994,0.0,0.0,0.0,0.0,0.0,0.0,0.0,0.0,0.0,-2.2695,-2.373,0.0,-2.5508,0.0,-2.9141,-3.0898,-3.2363,-3.3476,0.0,0.0,-3.4394,-3.5195,-3.625,-3.6562,-3.7344,-3.9082,-4.0234,-4.1191,-4.2012,-4.3437,-4.4394,-4.4375,-4.4551,-4.5019,-4.584,-4.5976,-4.6055,-4.625,-4.6289,-4.623,-4.5996,-4.5996,-4.5741,-4.5114,-4.4624,-4.4034,-4.29,-4.2408,-4.1878,-4.1272,-4.1112,-4.1109,-4.1109,-4.1109,-4.1109,-4.1109,-4.1109,-4.1109,-4.1109,-4.1109,-4.1109,-6.4271,-6.3071,-6.2607,-6.135,-5.9725,-5.9706,-5.9513,-5.9106,-5.8255,-5.7656,-5.7202,-5.5915,-5.4813,-5.3904,-5.3884,-5.3884,-5.3904,-5.402,-5.3807,-5.3323,-5.255,-5.1931,-5.1467,-5.108,-5.0898,-5.0879,-5.0094,-4.9262,-4.8392,-4.7502,-4.6651,-4.5787,-4.5355,-4.4891,-4.4446,-4.4536,-4.4794,-4.5123,-4.522,-4.5045,-4.4594,-4.3846,-4.3201,-4.2725,-4.199,-4.1177,-4.0255,-3.9503,-3.8466,-3.7059,-3.5869,-3.4795,-3.3851,-3.1415,-2.9059,0.0,0.0,0.0,0.0,0.0,0.0,0.0,0.0,0.0,0.0,0.0,-2.8164,-2.9883,-3.1582,-3.3125,-3.4434,-3.5684,-3.6445,-3.6426,-3.6875,-3.7637,-3.8887,-3.9023,-3.9687,-4.1387,-4.2012,-4.2617,-4.3457,-4.4375,-4.5137,-4.5527,-4.5566,-4.5762,-4.6191,-4.6289,-4.6289,-4.6289,-4.6289,-4.6133,-4.5801,-4.5722,-4.5429,-4.4608,-4.4098,-4.3491,-4.2551,-4.2059,-4.1665,-4.1215,-4.1114,-4.1109,-4.1109,-4.1109,-4.1109,-4.1109,-4.1109,-4.1109,-4.1109,-4.1109,-4.1109,-6.3768,-6.2394,-6.2278,-6.1737,-6.0944,-6.0944,-6.0557,-5.9822,-5.8836,-5.7946,-5.7086,-5.6313,-5.6003,-5.6003,-5.6003,-5.6003,-5.5954,-5.5161,-5.4755,-5.4542,-5.2945,-5.2132,-5.1989,-5.1273,-5.084,-5.0705,-5.0035,-4.9184,-4.8217,-4.7463,-4.667,-4.5845,-4.5807,-4.5807,-4.5768,-4.4987,-4.491,-4.5452,-4.4794,-4.4381,-4.4265,-4.2783,-4.1893,-4.1622,-4.0255,-3.9385,-3.9133,-3.7757,-3.6938,-3.6789,-3.543,-3.4664,-3.4605,-3.2341,-3.0322,0.0,-2.7918,0.0,0.0,0.0,0.0,0.0,0.0,0.0,0.0,-2.9687,-3.0918,-3.2539,-3.4101,-3.5391,-3.6269,-3.7812,-3.875,-3.8769,-3.8867,-3.9531,-4.0996,-4.1289,-4.1914,-4.3379,-4.3711,-4.418,-4.4824,-4.5078,-4.5469,-4.6094,-4.623,-4.623,-4.6289,-4.6289,-4.6289,-4.6289,-4.6191,-4.5762,-4.5039,-4.4844,-4.4531,-4.3671,-4.3006,-4.2361,-4.2241,-4.1612,-4.112,-4.1099,-4.1115,-4.1109,-4.1109,-4.1109,-4.1051,-4.0914,-4.0855,-4.0914,-4.107,-4.1109,-4.1109,-6.2704,-6.2336,-6.164,-6.0867,-6.0132,-6.0112,-6.0054,-5.9783,-5.8217,-5.7048,-5.6235,-5.6089,-5.6003,-5.6003,-5.6003,-5.6003,-5.5945,-5.5161,-5.4426,-5.3691,-5.2674,-5.1815,-5.1149,-5.0975,-5.055,-4.9958,-4.9784,-4.8894,-4.7347,-4.7192,-4.6651,-4.5826,-4.5807,-4.5807,-4.5768,0.0,0.0,0.0,-4.3614,-4.3208,-4.2512,-4.2164,-4.1351,-4.0042,-3.9675,0.0,-3.7464,-3.7083,-3.6624,-3.5977,-3.5634,0.0,0.0,0.0,0.0,0.0,0.0,0.0,0.0,0.0,0.0,0.0,-3.3349,-3.3239,-3.16,-3.2832,-3.418,-3.5195,-3.6211,-3.7168,-3.8027,-3.9043,-3.9648,-3.9687,-4.0273,-4.084,-4.1191,-4.1777,-4.2324,-4.2598,-4.3867,-4.4805,-4.5019,-4.5605,-4.6094,-4.625,-4.6289,-4.6289,-4.6289,-4.6289,-4.6289,-4.625,-4.5683,-4.4941,-4.4082,-4.3945,-4.3652,-4.2851,-4.2539,-4.2148,-4.1582,-4.1305,-4.1106,-4.1105,-4.1098,-4.1109,-4.1109,-4.1109,-4.0894,-4.019,-4.0054,-4.0249,-4.0953,-4.109,-4.1109,-6.2143,0.0,-6.1292,-6.0634,0.0,-5.9435,-5.901,-5.8565,-5.7666,-5.6796,-5.6003,-5.6003,-5.6003,-5.5984,-5.5586,-5.5412,-5.5335,-5.4097,-5.3265,-5.2821,-5.197,-5.1331,-5.0898,-5.0492,-5.0094,-4.9668,-4.8836,-4.7966,-4.7096,-4.6677,-4.6232,-4.5807,-4.5807,-4.5807,-4.5768,-4.4581,-4.373,-4.3305,-4.2879,-4.2434,-4.2009,-4.1603,-4.1009,-4.0158,0.0,0.0,0.0,0.0,0.0,0.0,0.0,0.0,0.0,0.0,0.0,-3.2596,-3.2171,-3.1563,-3.083,-3.2266,-3.3611,-3.4487,-3.6172,-3.6664,-3.5405,-3.5742,-3.6348,-3.7207,-3.8086,-3.875,-3.9219,-4.0019,-4.0547,-4.0566,-4.0937,-4.1328,-4.1758,-4.2148,-4.2754,-4.3594,-4.4453,-4.5137,-4.5605,-4.5996,-4.6289,-4.6289,-4.6289,-4.6289,-4.6289,-4.6289,-4.6191,-4.5703,-4.4922,-4.4043,-4.3262,-4.3066,-4.2773,-4.2031,-4.1816,-4.166,-4.1269,-4.1151,-4.1109,-4.1108,-4.11,-4.1112,-4.1109,-4.1109,-4.0834,-4.0034,-3.98,-3.9741,-3.9918,-3.986,-3.986,-6.1756,-6.1099,-6.1099,-6.0557,-5.9609,-5.8903,-5.8023,-5.7067,0.0,0.0,0.0,-5.6003,-5.6003,-5.5954,-5.5161,-5.4813,-5.4697,-5.2983,-5.219,-5.2171,-5.1312,-5.0898,-5.0879,-5.0094,-4.961,-4.9397,-4.7869,-4.7018,-4.6851,-4.6155,-4.5807,-4.5807,-4.5807,-4.5652,-4.5265,-4.3846,-4.2995,-4.2821,-4.2164,-4.1796,-4.1757,-4.1145,-4.0719,-4.0565,-3.9185,-3.8295,-3.7967,-3.6651,-3.5839,-3.5704,-3.5704,-3.5704,-3.569,-3.5139,-3.4541,-3.3916,-3.4001,-3.3774,-3.3161,-3.4377,-3.5527,-3.639,-3.7839,-3.8677,-3.8601,-3.8064,-3.8066,-3.8769,-3.9629,-4.0117,-4.0137,-4.0762,-4.1191,-4.1191,-4.1191,-4.1465,-4.209,-4.2344,-4.293,-4.4277,-4.4726,-4.5254,-4.5898,-4.6172,-4.6289,-4.6289,-4.6289,-4.6191,-4.6113,-4.5996,-4.5605,-4.4629,-4.3867,-4.3183,-4.2441,-4.2187,-4.1914,-4.1387,-4.125,-4.1191,-4.1191,-4.1132,-4.1111,-4.1109,-4.1103,-4.1117,-4.1112,-4.1109,-4.0738,-3.978,-3.9585,-3.9292,-3.8415,-3.8279,-3.8533,-6.1195,-6.1099,-6.1099,-6.0209,-5.8778,-5.8642,-5.7675,-5.6197,-5.6177,-5.6119,-5.6003,-5.6003,-5.6003,-5.5945,-5.5161,-5.4813,-5.4677,-5.3003,-5.219,-5.2152,-5.1312,-5.0898,-5.0859,-5.0066,-4.9301,-4.8546,-4.756,-4.6709,-4.6039,-4.5865,-4.5807,-4.5807,-4.5807,-4.5091,-4.3692,-4.2686,-4.1835,-4.1184,-4.1029,-4.0971,-4.0971,-4.0855,-4.0429,-3.9713,-3.9443,-3.8586,-3.7135,-3.6845,-3.6419,-3.5742,-3.5704,-3.5704,-3.5723,-3.6212,-3.6502,-3.643,-3.7069,-3.7442,-3.7318,-3.7569,-3.8081,-3.8966,-3.9295,-3.9188,-3.8596,-3.9132,-3.9588,-3.9744,-4.0488,-4.1016,-4.1016,-4.1113,-4.1191,-4.1191,-4.1191,-4.125,-4.1426,-4.1973,-4.248,-4.2851,-4.4101,-4.498,-4.5254,-4.582,-4.623,-4.6289,-4.6211,-4.5996,-4.5293,-4.5195,-4.4492,-4.3183,-4.2676,-4.2226,-4.166,-4.1387,-4.1348,-4.123,-4.1191,-4.1191,-4.1191,-4.1133,-4.1111,-4.1111,-4.1105,-4.1099,-4.1116,-4.1112,-4.0504,-3.9313,-3.8962,-3.8435,-3.7126,-3.7243,-3.8043,-6.1099,-6.1099,-6.1099,-6.0132,-5.8535,-5.7598,-5.6747,-5.6003,-5.6003,-5.6003,-5.6003,-5.6003,-5.6003,-5.5896,-5.4658,-5.4097,-5.402,-5.2279,-5.1486,-5.1467,-5.108,-5.0674,-5.019,-4.9397,-4.8546,-4.7676,-4.6806,-4.6194,-4.5826,-4.5807,-4.5807,-4.5768,-4.5374,-4.4291,-4.2667,-4.2202,-4.1603,-4.0835,-4.0797,-4.0797,-4.0797,-4.0797,-4.0623,-4.0197,-3.9321,-3.845,-3.7632,-3.6729,-3.6071,-3.5704,-3.5704,-3.5704,-3.5723,-3.6052,-3.6439,-3.6864,-3.727,-3.769,-3.8174,-3.8644,-3.9093,-3.9525,-4.0004,-4.0133,-3.9831,-4.0256,-4.0558,-4.0562,-4.0956,-4.1191,-4.1191,-4.1191,-4.1191,-4.1191,-4.1191,-4.1191,-4.123,-4.1484,-4.1914,-4.2363,-4.3086,-4.3945,-4.4902,-4.5332,-4.582,-4.6133,-4.5957,-4.5117,-4.3848,-4.3594,-4.334,-4.2539,-4.2031,-4.166,-4.1269,-4.1191,-4.1191,-4.1191,-4.1191,-4.1191,-4.1191,-4.1172,-4.1152,-4.1112,-4.1108,-4.1102,-4.1099,-4.1114,-4.0504,-3.9683,-3.9235,-3.8687,-3.7848,-3.8063,-3.8882,-6.1099,-6.1099,-6.0905,-5.9861,-5.8178,-5.667,-5.6003,-5.6003,-5.6003,-5.6003,-5.6003,-5.6003,-5.5915,-5.5586,-5.4155,-5.3382,-5.2995,-5.1594,-5.0898,-5.0898,-5.0898,-5.0453,-4.9668,-4.8798,-4.7947,-4.7076,-4.6213,-4.5807,-4.5807,-4.5807,-4.5691,-4.5471,-4.4717,-4.3537,-4.2028,-4.1816,-4.1429,-4.0835,-4.0797,-4.0797,-4.0797,-4.0797,-4.0797,-4.07,-3.9321,-3.8483,-3.8411,-3.7058,-3.6168,-3.5994,-3.5974,-3.5897,-3.5704,-3.5883,-3.6245,-3.6845,-3.727,-3.787,-3.874,-3.9398,-3.9803,-3.9801,-4.0403,-4.0824,-4.0887,-4.0974,-4.1078,-4.11,-4.113,-4.1172,-4.1172,-4.1172,-4.1172,-4.1172,-4.1191,-4.1191,-4.1191,-4.1191,-4.1426,-4.2031,-4.2266,-4.2969,-4.4082,-4.4766,-4.5273,-4.5703,-4.5117,-4.3848,-4.2676,-4.2285,-4.2129,-4.2012,-4.1601,-4.1269,-4.1191,-4.1191,-4.1191,-4.1191,-4.1191,-4.1191,-4.1191,-4.1191,-4.1191,-4.1132,-4.111,-4.1106,-4.1101,-4.1114,-4.0719,-3.9937,-3.9702,-3.9546,-3.8982,-3.9234,-3.9722,-6.1099,-6.0983,-6.0344,-5.901,-5.7404,-5.6399,-5.6003,-5.6003,-5.6003,-5.6003,-5.5954,-5.6003,-5.5586,-5.4851,-5.3904,-5.3053,-5.2318,-5.1331,-5.0898,-5.0898,-5.0898,-5.048,-4.9629,-4.8798,-4.7927,-4.7057,-4.6194,-4.5807,-4.5807,-4.5761,-4.5413,-4.469,-4.3846,-4.2957,-4.2009,-4.128,-4.0874,-4.0816,-4.0797,-4.0797,-4.0797,-4.0797,-4.0797,-4.0797,-3.9868,-3.9365,-3.9288,-3.847,-3.7599,-3.6884,-3.6787,-3.6458,-3.5897,-3.64,-3.6826,-3.7,-3.8379,-3.9636,-4.0429,-4.0642,-4.0642,-4.0681,-4.0732,-4.08,-4.0818,-4.0883,-4.0976,-4.1061,-4.1099,-4.1107,-4.1108,-4.111,-4.1111,-4.1131,-4.1172,-4.1191,-4.1191,-4.1191,-4.123,-4.1269,-4.1933,-4.25,-4.2891,-4.4023,-4.4902,-4.4922,-4.3848,-4.2793,-4.2344,-4.1797,-4.1445,-4.1367,-4.1211,-4.1211,-4.1191,-4.1191,-4.1191,-4.1191,-4.1191,-4.1191,-4.1191,-4.1191,-4.1191,-4.1172,-4.1131,-4.1108,-4.1105,-4.108,-4.0816,-4.0249,-3.9956,-3.98,-3.9702,-3.9819,-3.9917,-6.1099,-6.1041,-6.0228,-5.8894,-5.7299,-5.6371,-5.6003,-5.6003,-5.6003,-5.576,-5.5316,-5.5277,-5.5103,-5.4716,-5.3362,-5.2519,-5.2152,-5.1312,-5.0898,-5.084,-5.0415,-4.9745,-4.8894,-4.8043,-4.7173,-4.638,-4.5962,-4.5807,-4.5729,-4.5316,-4.4659,-4.3801,-4.2957,-4.2125,-4.1313,-4.0971,-4.0797,-4.0797,-4.0797,-4.0797,-4.0797,-4.0797,-4.0797,-4.0661,-3.9475,-3.8992,-3.9288,-3.8179,-3.7502,-3.7657,-3.7671,-3.7541,-3.7193,-3.7502,-3.7909,-3.8437,-3.9578,-4.041,-4.0777,-4.0797,-4.0797,-4.0797,-4.0797,-4.0796,-4.0798,-4.0814,-4.0863,-4.0956,-4.1017,-4.1051,-4.1044,-4.1076,-4.1103,-4.1108,-4.1152,-4.1191,-4.1191,-4.1191,-4.1191,-4.1211,-4.1484,-4.1894,-4.2441,-4.3457,-4.3945,-4.3613,-4.2754,-4.2266,-4.1777,-4.1387,-4.125,-4.1191,-4.1191,-4.1191,-4.1191,-4.1191,-4.1191,-4.1191,-4.1191,-4.1191,-4.1191,-4.1191,-4.1191,-4.1191,-4.1152,-4.1109,-4.1107,-4.1102,-4.0957,-4.0545,-4.0561,-4.0561,-4.0581,-4.0581,-4.0581,-6.0963,-6.0634,-5.9629,-5.8314,-5.6912,-5.6263,-5.6003,-5.5954,-5.576,-5.5335,-5.4774,-5.431,-5.4078,-5.3904,-5.2743,-5.2086,-5.1776,-5.1196,-5.0898,-5.0801,-5.0074,-4.9243,-4.8372,-4.7521,-4.6639,-4.5923,-4.5826,-4.5807,-4.5703,-4.4987,-4.4149,-4.3324,-4.2667,-4.1835,-4.0932,-4.099,-4.1029,-4.0816,-4.0797,-4.0797,-4.0777,-4.0565,-4.0448,-4.0313,-3.8992,-3.8605,-3.9404,-3.7837,-3.7309,-3.8135,-3.7999,-3.7729,-3.7541,-3.7709,-3.8334,-3.9404,-4.0081,-4.0565,-4.0777,-4.0797,-4.0797,-4.0797,-4.0797,-4.0803,-4.0808,-4.0809,-4.0818,-4.0868,-4.0915,-4.0956,-4.1,-4.1048,-4.1069,-4.11,-4.1149,-4.1172,-4.1172,-4.1191,-4.1191,-4.1191,-4.125,-4.1504,-4.2246,-4.2734,-4.2812,-4.2558,-4.2246,-4.1933,-4.1367,-4.1211,-4.1191,-4.1191,-4.1191,-4.1191,-4.1191,-4.1191,-4.1191,-4.1191,-4.1191,-4.1191,-4.1191,-4.1191,-4.1191,-4.1191,-4.1133,-4.1111,-4.1109,-4.1105,-4.1116,-4.1111,-4.109,-4.1051,-4.0992,-4.107,-4.109,-6.0654,-5.9745,-5.8139,-5.697,-5.607,-5.6031,-5.6003,-5.5945,-5.5219,-5.4832,-5.4523,-5.3091,-5.2345,-5.2356,-5.2182,-5.1738,-5.1033,-5.0937,-5.0898,-5.0821,-5.0035,-4.9223,-4.8392,-4.7502,-4.6612,-4.5845,-4.5807,-4.5807,-4.5761,-4.4987,-4.4175,-4.3324,-4.3208,-4.2396,-4.1126,-4.1506,-4.1545,-4.0874,-4.0797,-4.0777,-4.0681,-3.9984,-3.9597,-3.9404,-3.8663,-3.8547,-3.9172,-3.7812,-3.729,-3.8174,-3.7477,-3.6709,-3.6071,-3.6651,-3.787,-3.9268,-3.9559,-3.9965,-4.0681,-4.0797,-4.0797,-4.0797,-4.0797,-4.0797,-4.0797,-4.0809,-4.0796,-4.0809,-4.0814,-4.0872,-4.0968,-4.11,-4.1154,-4.1174,-4.1161,-4.1169,-4.1112,-4.1172,-4.1191,-4.1191,-4.1191,-4.1484,-4.2207,-4.1738,-4.1855,-4.1992,-4.1719,-4.1269,-4.125,-4.1191,-4.1191,-4.1191,-4.1191,-4.1191,-4.1191,-4.1191,-4.1191,-4.1191,-4.1191,-4.1191,-4.1191,-4.1191,-4.1191,-4.1191,-4.1152,-4.1131,-4.1111,-4.1107,-4.1098,-4.1112,-4.1109,-4.1109,-4.1109,-4.1109,-4.1109,-6.0286,-5.898,-5.7791,-5.6796,-5.6031,-5.6003,-5.6003,-5.5915,-5.5161,-5.4465,-5.3826,-5.2693,-5.1892,-5.137,-5.137,-5.1215,-5.0917,-5.0898,-5.0898,-5.0743,-4.9494,-4.8701,-4.8295,-4.696,-4.6155,-4.5865,-4.5807,-4.5807,-4.571,-4.4987,-4.4156,-4.344,-4.3305,-4.2473,-4.1242,-4.1583,-4.1603,-4.0893,-4.0797,-4.0545,-4.0042,-3.9655,-3.8998,-3.7889,-3.7541,-3.7773,-3.8624,-3.7522,-3.7303,-3.8174,-3.7909,-3.7593,-3.7425,-3.8102,-3.8824,-3.9462,-4.0004,-4.0468,-4.0739,-4.0797,-4.0797,-4.0797,-4.0797,-4.0835,-4.0797,-4.0797,-4.0797,-4.0797,-4.0797,-4.0831,-4.0974,-4.1347,-4.1758,-4.1833,-4.1858,-4.1668,-4.1245,-4.1172,-4.1191,-4.1191,-4.1211,-4.1348,-4.1504,-4.1387,-4.1328,-4.1523,-4.1387,-4.125,-4.1211,-4.1211,-4.125,-4.1211,-4.1191,-4.1191,-4.1191,-4.1191,-4.1191,-4.1191,-4.1191,-4.1191,-4.1191,-4.1191,-4.1191,-4.1191,-4.1172,-4.1132,-4.1131,-4.1107,-4.1099,-4.1111,-4.1109,-4.1109,-4.1109,-4.1109,-4.1109,-5.9563,-5.8442,-5.7329,-5.6553,-5.6023,-5.6003,-5.5857,-5.5528,-5.4735,-5.3884,-5.3033,-5.2163,-5.1447,-5.0956,-5.0898,-5.0898,-5.0898,-5.0898,-5.0898,-5.0743,-4.9184,-4.8411,-4.8121,-4.6612,-4.5807,-4.5807,-4.5807,-4.5807,-4.5671,-4.4697,-4.3885,-4.3343,-4.3305,-4.2454,-4.1242,-4.1874,-4.1932,-4.1023,-4.0797,-4.0487,-3.9926,-3.9346,-3.8547,-3.7444,-3.6826,-3.6922,-3.7735,-3.6955,-3.6903,-3.7613,-3.7541,-3.7497,-3.7812,-3.8605,-3.921,-3.9539,-4.0332,-4.0797,-4.0797,-4.0797,-4.0913,-4.1184,-4.1177,-4.1184,-4.1203,-4.1197,-4.1081,-4.0913,-4.0816,-4.0919,-4.1601,-4.2158,-4.2432,-4.2377,-4.2526,-4.2526,-4.2034,-4.2026,-4.1914,-4.1641,-4.1348,-4.1211,-4.1191,-4.1211,-4.1211,-4.1191,-4.1191,-4.125,-4.1523,-4.1582,-4.1738,-4.1894,-4.1797,-4.1699,-4.1582,-4.1484,-4.1269,-4.1211,-4.1191,-4.1191,-4.1191,-4.1191,-4.1191,-4.1191,-4.1191,-4.1152,-4.113,-4.1106,-4.11,-4.1112,-4.1109,-4.1109,-4.1109,-4.1109,-4.1109,-5.838,-5.8114,-5.6683,-5.607,-5.6003,-5.6003,-5.5567,-5.4832,-5.3942,-5.3149,-5.2326,-5.1351,-5.0995,-5.0898,-5.0898,-5.0898,-5.0898,-5.0898,-5.084,-5.0608,-4.9146,-4.8372,-4.8179,-4.6573,-4.5807,-4.5807,-4.5807,-4.5807,-4.5729,-4.433,-4.3479,-4.3343,-4.3401,-4.257,-4.0835,-4.226,-4.2415,-4.1158,-4.0797,-4.0758,-4.0584,-3.9204,-3.8295,-3.7883,-3.6632,-3.6226,-3.6864,-3.6168,-3.6149,-3.6709,-3.6245,-3.6129,-3.6903,-3.7793,-3.8605,-3.9404,-4.0274,-4.0758,-4.0797,-4.0874,-4.1261,-4.1699,-4.1932,-4.1854,-4.1835,-4.1874,-4.1628,-4.1106,-4.1087,-4.1512,-4.2821,-4.3241,-4.309,-4.248,-4.3123,-4.3543,-4.3509,-4.3612,-4.3334,-4.2438,-4.1716,-4.121,-4.1191,-4.1191,-4.1191,-4.1191,-4.1308,-4.1562,-4.2109,-4.2305,-4.2773,-4.3164,-4.2891,-4.2402,-4.2109,-4.1797,-4.1484,-4.123,-4.1211,-4.1191,-4.1191,-4.1191,-4.1191,-4.1191,-4.1191,-4.1172,-4.1113,-4.1107,-4.1102,-4.1116,-4.1114,-4.1109,-4.1109,-4.1109,-4.1109,-5.7972,-5.74,-5.6432,-5.6003,-5.6003,-5.6003,-5.5548,-5.4735,-5.3865,-5.3014,-5.2144,-5.1265,-5.0898,-5.0898,-5.0898,-5.0898,-5.0898,-5.0879,-5.0627,-4.9958,-4.8914,-4.8063,-4.7386,-4.6348,-4.5807,-4.5807,-4.5807,-4.5807,-4.5594,-4.4697,-4.3917,-4.3498,-4.3878,-4.2957,-4.1042,-4.2376,-4.2473,-4.1009,-4.0797,-4.0526,-3.9965,-3.9385,-3.8566,-3.7386,-3.6787,-3.6439,-3.6071,-3.582,-3.582,-3.6091,-3.5839,-3.582,-3.6265,-3.7425,-3.8295,-3.8721,-4.0017,-4.0797,-4.0874,-4.1332,-4.1719,-4.1951,-4.2009,-4.199,-4.199,-4.2028,-4.1932,-4.1719,-4.2144,-4.2841,-4.3266,-4.3885,-4.4021,-4.3932,-4.4186,-4.4156,-4.3808,-4.3663,-4.3205,-4.2519,-4.2138,-4.1794,-4.1328,-4.1191,-4.1211,-4.1328,-4.166,-4.2148,-4.2422,-4.3027,-4.3301,-4.3613,-4.3281,-4.3125,-4.2793,-4.2461,-4.209,-4.166,-4.1426,-4.123,-4.1191,-4.1191,-4.1191,-4.1191,-4.1191,-4.1172,-4.1133,-4.1108,-4.1104,-4.1099,-4.1115,-4.1112,-4.1109,-4.1109,-4.1111,-5.7404,-5.6973,-5.6298,-5.6003,-5.6003,-5.6003,-5.5354,-5.4349,-5.3749,-5.284,-5.1757,-5.1149,-5.0898,-5.0898,-5.0898,-5.0898,-5.0879,-5.0608,-5.0016,-4.9262,-4.872,-4.7927,-4.7076,-4.6213,-4.5807,-4.5807,-4.5807,-4.5807,-4.5749,-4.4678,-4.3827,-4.3479,-4.3537,-4.2879,-4.1467,-4.2531,-4.2589,-4.1409,-4.1242,-4.0816,-4.01,-3.9675,-3.8978,-3.7947,-3.7251,-3.6671,-3.6168,-3.5864,-3.5704,-3.5704,-3.5704,-3.582,-3.6207,-3.7458,-3.8464,-3.9321,-4.0404,-4.139,-4.1719,-4.2222,-4.2473,-4.2473,-4.2473,-4.2492,-4.2492,-4.2473,-4.2473,-4.2589,-4.2918,-4.3421,-4.3788,-4.4233,-4.4711,-4.5099,-4.514,-4.4953,-4.4509,-4.4194,-4.3694,-4.3038,-4.2572,-4.2041,-4.1423,-4.1171,-4.1327,-4.1621,-4.207,-4.2851,-4.3164,-4.3848,-4.416,-4.4355,-4.4336,-4.4043,-4.3535,-4.3125,-4.2734,-4.2226,-4.1738,-4.1406,-4.1191,-4.1191,-4.1191,-4.1191,-4.1191,-4.1172,-4.1131,-4.111,-4.1108,-4.1104,-4.1099,-4.1098,-4.1116,-4.1114,-4.1114,-5.679,-5.684,-5.6251,-5.6003,-5.6003,-5.6003,-5.5084,-5.3691,-5.3517,-5.255,-5.1207,-5.0937,-5.0898,-5.0898,-5.0898,-5.0898,-5.0763,-5.0113,-4.9378,-4.8682,-4.8256,-4.7715,-4.6851,-4.6136,-4.5826,-4.5807,-4.5807,-4.5807,-4.5729,-4.4369,-4.3343,-4.3266,-4.2725,-4.2106,-4.2086,-4.286,-4.2899,-4.2202,-4.2067,-4.168,-4.0874,-4.0158,-3.9578,-3.9327,-3.8005,-3.7174,-3.6922,-3.6419,-3.5955,-3.58,-3.5974,-3.6419,-3.7058,-3.7909,-3.9379,-4.0694,-4.1603,-4.2357,-4.3034,-4.3111,-4.3169,-4.3169,-4.3169,-4.3305,-4.3189,-4.3266,-4.3382,-4.3375,-4.3556,-4.3885,-4.4504,-4.4736,-4.5072,-4.562,-4.5751,-4.5795,-4.593,-4.5257,-4.4452,-4.362,-4.2873,-4.2093,-4.1314,-4.1161,-4.1615,-4.2125,-4.2536,-4.3495,-4.4277,-4.4863,-4.541,-4.5449,-4.5273,-4.4863,-4.4316,-4.4004,-4.3574,-4.2949,-4.248,-4.2187,-4.1699,-4.1601,-4.1269,-4.125,-4.1191,-4.1152,-4.1132,-4.1131,-4.1111,-4.1108,-4.1105,-4.1104,-4.1102,-4.11,-4.1116,-5.6426,-5.6051,-5.6009,-5.6003,-5.6003,-5.6003,-5.5026,-5.3594,-5.3478,-5.2492,-5.1169,-5.0898,-5.0898,-5.0898,-5.0898,-5.0898,-5.0705,-5.0035,-4.9223,-4.8392,-4.7695,-4.698,-4.629,-4.5942,-4.5807,-4.5807,-4.5807,-4.5807,-4.5729,-4.4717,-4.3917,-4.3324,-4.2995,-4.257,-4.2241,-4.286,-4.3169,-4.2995,-4.2937,-4.2531,-4.1796,-4.1467,-4.07,-3.952,-3.9056,-3.8489,-3.7967,-3.7671,-3.7212,-3.6665,-3.7226,-3.7947,-3.8824,-4.0094,-4.1081,-4.1738,-4.2473,-4.3034,-4.3247,-4.3343,-4.3324,-4.3305,-4.3305,-4.3305,-4.3324,-4.3904,-4.4194,-4.4342,-4.4736,-4.5162,-4.5432,-4.5452,-4.5613,-4.5729,-4.5841,-4.5893,-4.5841,-4.5702,-4.5073,-4.3743,-4.3343,-4.2588,-4.1727,-4.1653,-4.2118,-4.258,-4.3409,-4.4355,-4.5039,-4.5566,-4.5976,-4.6074,-4.5918,-4.5527,-4.5156,-4.4844,-4.4394,-4.3711,-4.3398,-4.334,-4.2851,-4.248,-4.1894,-4.1406,-4.125,-4.1172,-4.1172,-4.1152,-4.1131,-4.113,-4.1129,-4.1127,-4.1105,-4.1103,-4.1099,-5.5996,-5.5705,-5.5913,-5.6003,-5.5954,-5.5644,-5.4735,-5.3594,-5.3072,-5.2221,-5.1111,-5.0898,-5.0898,-5.0898,-5.0898,-5.0898,-5.0763,-4.9687,-4.8875,-4.8295,-4.7122,-4.631,-4.5884,-4.5807,-4.5807,-4.5807,-4.5807,-4.5807,-4.5652,-4.4987,-4.4175,-4.3363,-4.2937,-4.2492,-4.2106,-4.2841,-4.3305,-4.3363,-4.3595,-4.3421,-4.2609,-4.255,-4.2144,-4.1126,-4.0777,-4.0152,-3.9417,-3.9282,-3.8895,-3.8315,-3.8528,-3.9282,-4.0487,-4.1409,-4.2299,-4.2957,-4.3595,-4.3846,-4.3846,-4.3846,-4.3672,-4.3401,-4.3305,-4.3518,-4.3827,-4.4342,-4.4632,-4.5123,-4.5575,-4.5768,-4.5807,-4.5807,-4.5807,-4.5807,-4.5807,-4.5807,-4.5807,-4.5861,-4.531,-4.4386,-4.3909,-4.3543,-4.2206,-4.2533,-4.2955,-4.3472,-4.4231,-4.4949,-4.5527,-4.6013,-4.6287,-4.6286,-4.6287,-4.5937,-4.5742,-4.5527,-4.5391,-4.4746,-4.4492,-4.4433,-4.3769,-4.3242,-4.2422,-4.1777,-4.1445,-4.1191,-4.1191,-4.1172,-4.1171,-4.1171,-4.1151,-4.113,-4.1129,-4.1302,-4.1261,-5.5573,-5.5695,-5.5923,-5.6003,-5.5868,-5.5133,-5.434,-5.344,-5.2619,-5.1749,-5.1033,-5.0898,-5.0898,-5.0898,-5.0898,-5.0898,-5.0801,-4.9262,-4.8372,-4.7618,-4.6631,-4.5845,-4.5845,-4.5807,-4.5807,-4.5807,-4.5807,-4.5807,-4.5671,-4.5084,-4.4233,-4.3421,-4.2589,-4.2164,-4.2144,-4.2744,-4.3189,-4.3634,-4.4156,-4.411,-4.3556,-4.3421,-4.3208,-4.2821,-4.2299,-4.1603,-4.1003,-4.079,-4.05,-3.9771,-3.9829,-4.081,-4.2086,-4.2299,-4.2957,-4.3994,-4.4253,-4.4226,-4.4362,-4.4188,-4.4072,-4.346,-4.3421,-4.373,-4.4362,-4.471,-4.5065,-4.5613,-4.5787,-4.5807,-4.5807,-4.5807,-4.5807,-4.5807,-4.5807,-4.5807,-4.5814,-4.5854,-4.5583,-4.4831,-4.4691,-4.4282,-4.3797,-4.3638,-4.3907,-4.4091,-4.4827,-4.538,-4.5771,-4.6069,-4.6228,-4.6249,-4.6251,-4.6269,-4.6211,-4.6172,-4.6113,-4.5879,-4.5723,-4.5449,-4.4492,-4.3789,-4.293,-4.2246,-4.166,-4.1308,-4.1191,-4.1191,-4.1191,-4.1191,-4.1172,-4.1152,-4.1171,-4.1501,-4.1616,-5.5504,-5.566,-5.5885,-5.5996,-5.5868,-5.5088,-5.4246,-5.3431,-5.2517,-5.16,-5.1025,-5.0898,-5.0898,-5.0898,-5.0898,-5.0898,-5.0685,-4.9165,-4.7734,-4.6348,-4.6097,-4.5807,-4.5807,-4.5807,-4.5807,-4.5807,-4.5807,-4.5807,-4.571,-4.5497,-4.4755,-4.346,-4.3073,-4.2667,-4.2144,-4.226,-4.3034,-4.4052,-4.4478,-4.442,-4.4246,-4.413,-4.3859,-4.3356,-4.3073,-4.257,-4.1932,-4.1738,-4.1641,-4.1661,-4.2048,-4.2667,-4.3511,-4.3801,-4.4033,-4.4214,-4.3982,-4.3672,-4.3614,-4.3692,-4.3576,-4.3492,-4.3917,-4.4388,-4.4574,-4.5181,-4.5529,-4.5807,-4.5807,-4.5807,-4.5807,-4.5807,-4.5807,-4.5807,-4.5807,-4.5807,-4.5807,-4.5814,-4.546,-4.4944,-4.4686,-4.4318,-4.3588,-4.4189,-4.4535,-4.4817,-4.5254,-4.5799,-4.6021,-4.6159,-4.6184,-4.6211,-4.6189,-4.6194,-4.6199,-4.621,-4.6249,-4.6279,-4.6286,-4.625,-4.5293,-4.4355,-4.3496,-4.2598,-4.1719,-4.1445,-4.1211,-4.1191,-4.1191,-4.1191,-4.123,-4.1289,-4.1406,-4.1719,-4.2127,-5.5395,-5.5539,-5.5796,-5.5904,-5.5692,-5.4563,-5.3772,-5.3182,-5.1987,-5.1224,-5.0927,-5.0882,-5.0898,-5.0898,-5.0898,-5.0898,-5.0511,-4.9165,-4.7463,-4.6174,-4.5807,-4.5807,-4.5807,-4.5807,-4.5807,-4.5807,-4.5807,-4.5807,-4.5807,-4.5729,-4.5142,-4.3962,-4.3511,-4.2802,-4.2125,-4.199,-4.2434,-4.3169,-4.3808,-4.3975,-4.3994,-4.3975,-4.3866,-4.3401,-4.3305,-4.3015,-4.2647,-4.2628,-4.2609,-4.2725,-4.3034,-4.3479,-4.3866,-4.4001,-4.4001,-4.3924,-4.4072,-4.3634,-4.3498,-4.3672,-4.3943,-4.3885,-4.4362,-4.4755,-4.5065,-4.5594,-4.5749,-4.5807,-4.5807,-4.5807,-4.5807,-4.5807,-4.5807,-4.5807,-4.5807,-4.5807,-4.5807,-4.5807,-4.5691,-4.5278,-4.5207,-4.5014,-4.4892,-4.4944,-4.5136,-4.5428,-4.5478,-4.5953,-4.6025,-4.6126,-4.6123,-4.6146,-4.6123,-4.6123,-4.6134,-4.6164,-4.6206,-4.6246,-4.628,-4.6284,-4.5918,-4.498,-4.4062,-4.3105,-4.2148,-4.1426,-4.1191,-4.1191,-4.125,-4.123,-4.1289,-4.1426,-4.1719,-4.2168,-4.2617,-5.5268,-5.5395,-5.5671,-5.5708,-5.5313,-5.3889,-5.3147,-5.2772,-5.1366,-5.0768,-5.0801,-5.0858,-5.0909,-5.0898,-5.0898,-5.0821,-5.0097,-4.9165,-4.7463,-4.5967,-4.5819,-4.58,-4.5807,-4.5807,-4.5807,-4.5807,-4.5807,-4.5807,-4.5807,-4.5749,-4.5316,-4.4581,-4.3924,-4.3053,-4.226,-4.199,-4.2086,-4.2357,-4.2821,-4.3266,-4.3382,-4.3401,-4.3363,-4.3324,-4.3305,-4.3131,-4.2918,-4.286,-4.2918,-4.2937,-4.2918,-4.2995,-4.3131,-4.3266,-4.3305,-4.3363,-4.3885,-4.384,-4.3576,-4.4001,-4.4504,-4.4581,-4.4775,-4.5084,-4.5613,-4.5749,-4.5787,-4.5807,-4.5807,-4.5807,-4.5807,-4.5807,-4.5807,-4.5807,-4.5807,-4.5807,-4.5807,-4.5807,-4.5768,-4.5749,-4.5613,-4.5432,-4.5524,-4.5602,-4.5809,-4.5968,-4.5978,-4.5991,-4.6052,-4.6066,-4.6032,-4.6022,-4.5988,-4.6027,-4.6027,-4.6067,-4.6131,-4.617,-4.6218,-4.6249,-4.6198,-4.5343,-4.4369,-4.3534,-4.2656,-4.1894,-4.1426,-4.1504,-4.1504,-4.1348,-4.1738,-4.2266,-4.2519,-4.2676,-4.3203,-5.5162,-5.5268,-5.5527,-5.5204,-5.4402,-5.3475,-5.2639,-5.1888,-5.0968,-5.0625,-5.072,-5.0855,-5.0885,-5.0909,-5.0898,-5.0148,-4.9127,-4.8392,-4.7453,-4.6015,-4.5798,-4.5793,-4.5807,-4.5807,-4.5807,-4.5807,-4.5807,-4.5807,-4.5807,-4.5768,-4.5413,-4.4755,-4.4407,-4.3576,-4.255,-4.199,-4.199,-4.197,-4.2183,-4.2492,-4.2918,-4.3053,-4.3053,-4.3053,-4.3015,-4.2763,-4.2357,-4.2202,-4.1912,-4.1293,-4.1222,-4.168,-4.2396,-4.3034,-4.3343,-4.3382,-4.3614,-4.3711,-4.3614,-4.4175,-4.4543,-4.4736,-4.5162,-4.5529,-4.5768,-4.5826,-4.5865,-4.5877,-4.5865,-4.5807,-4.5807,-4.5845,-4.5807,-4.5807,-4.5807,-4.5807,-4.5807,-4.5807,-4.5807,-4.5807,-4.5807,-4.5807,-4.5833,-4.5833,-4.586,-4.5887,-4.588,-4.5893,-4.5911,-4.5911,-4.5886,-4.5867,-4.5854,-4.5893,-4.5929,-4.5977,-4.6041,-4.6072,-4.6115,-4.6184,-4.5984,-4.5398,-4.4609,-4.3938,-4.3066,-4.2187,-4.1914,-4.1953,-4.2051,-4.2148,-4.2676,-4.3242,-4.3457,-4.3672,-4.4219,-5.5023,-5.5064,-5.4823,-5.4477,-5.3917,-5.2736,-5.1989,-5.1507,-5.0726,-5.0421,-5.0546,-5.0701,-5.0819,-5.0841,-5.089,-4.9911,-4.8638,-4.8271,-4.7306,-4.6024,-4.5727,-4.5771,-4.58,-4.5807,-4.5807,-4.5807,-4.5807,-4.5807,-4.5807,-4.5807,-4.5548,-4.5239,-4.4833,-4.4136,-4.3285,-4.2454,-4.2125,-4.197,-4.168,-4.1622,-4.2009,-4.2048,-4.2048,-4.2048,-4.2067,-4.1757,-4.1603,-4.1874,-4.1835,-4.1622,-4.1874,-4.226,-4.2802,-4.3363,-4.3788,-4.3556,-4.375,-4.3962,-4.4098,-4.4717,-4.522,-4.5278,-4.5626,-4.578,-4.5807,-4.5845,-4.5955,-4.6225,-4.5962,-4.6,-4.6438,-4.6058,-4.5845,-4.5807,-4.5807,-4.5807,-4.5807,-4.5807,-4.5807,-4.5807,-4.5807,-4.5807,-4.5807,-4.5807,-4.5807,-4.5807,-4.5807,-4.5807,-4.5807,-4.5807,-4.5807,-4.5807,-4.5807,-4.5834,-4.588,-4.5929,-4.5969,-4.5983,-4.6002,-4.6084,-4.6047,-4.5607,-4.5131,-4.4545,-4.3594,-4.2617,-4.2598,-4.2695,-4.2812,-4.2988,-4.3379,-4.3808,-4.4277,-4.4707,-4.5137,-5.4931,-5.4909,-5.4207,-5.3823,-5.3428,-5.2063,-5.1307,-5.1066,-5.0493,-5.0294,-5.0418,-5.0596,-5.0747,-5.0799,-5.0632,-4.9892,-4.8265,-4.816,-4.7178,-4.5932,-4.5692,-4.5734,-4.5786,-4.5807,-4.5807,-4.5807,-4.5807,-4.5807,-4.5807,-4.5807,-4.5807,-4.5587,-4.5065,-4.4697,-4.4246,-4.3305,-4.257,-4.1816,-4.1429,-4.1048,-4.0855,-4.0797,-4.0913,-4.1029,-4.1061,-4.1222,-4.1641,-4.2086,-4.2338,-4.2512,-4.2995,-4.3614,-4.3904,-4.4458,-4.4568,-4.4253,-4.4594,-4.4768,-4.4987,-4.5297,-4.5684,-4.5684,-4.5768,-4.5807,-4.5807,-4.5865,-4.6058,-4.6535,-4.629,-4.6,-4.6387,-4.6167,-4.5884,-4.5807,-4.5807,-4.5807,-4.5807,-4.5807,-4.5807,-4.5807,-4.5807,-4.5807,-4.5807,-4.5807,-4.5807,-4.5807,-4.5807,-4.5807,-4.5807,-4.5807,-4.5807,-4.5807,-4.5807,-4.584,-4.5867,-4.5899,-4.5911,-4.5916,-4.5931,-4.5968,-4.6046,-4.5998,-4.5508,-4.505,-4.4219,-4.3398,-4.3418,-4.3496,-4.3711,-4.3906,-4.4082,-4.4473,-4.5098,-4.5371,-4.5605,-5.4901,-5.4874,-5.4177,-5.3403,-5.2546,-5.1699,-5.0868,-5.0182,-5.0202,-5.0275,-5.0508,-5.0606,-5.0764,-5.0825,-5.0756,-4.9672,-4.8481,-4.7934,-4.7145,-4.5768,-4.566,-4.5739,-4.578,-4.5807,-4.5807,-4.5807,-4.5807,-4.5807,-4.5807,-4.5807,-4.5807,-4.5729,-4.5606,-4.5336,-4.4736,-4.4175,-4.3498,-4.2299,-4.1951,-4.1564,-4.1061,-4.0971,-4.1338,-4.1699,-4.1912,-4.2202,-4.2783,-4.315,-4.3285,-4.344,-4.4059,-4.4813,-4.5432,-4.5597,-4.6107,-4.6218,-4.6136,-4.5671,-4.5684,-4.5865,-4.6078,-4.6116,-4.6051,-4.5865,-4.5916,-4.5858,-4.5904,-4.5865,-4.5826,-4.5962,-4.6174,-4.5942,-4.5826,-4.5807,-4.5807,-4.5807,-4.5807,-4.5807,-4.5807,-4.5807,-4.5807,-4.5807,-4.5807,-4.5807,-4.5807,-4.5807,-4.5807,-4.5807,-4.5807,-4.5807,-4.5807,-4.5807,-4.5807,-4.5814,-4.584,-4.5867,-4.588,-4.5867,-4.5867,-4.5892,-4.5956,-4.6018,-4.6022,-4.5461,-4.4689,-4.4224,-4.4174,-4.4325,-4.4625,-4.4862,-4.5039,-4.5508,-4.6055,-4.6172,-4.6035,-5.4901,-5.4787,-5.3571,-5.2817,-5.2248,-5.1098,-5.0333,-5.0062,-5.0145,-5.0531,-5.0919,-5.076,-5.0738,-5.0764,-5.0644,-4.9546,-4.8167,-4.7869,-4.7001,-4.5792,-4.5601,-4.5708,-4.5778,-4.5807,-4.5807,-4.5807,-4.5807,-4.5807,-4.5807,-4.5807,-4.5807,-4.5807,-4.5807,-4.5664,-4.5162,-4.4813,-4.4226,-4.3537,-4.3034,-4.2589,-4.2318,-4.2241,-4.2376,-4.2744,-4.2802,-4.3298,-4.3975,-4.4543,-4.4968,-4.5316,-4.5896,-4.6121,-4.632,-4.6143,-4.5981,-4.6101,-4.5996,-4.601,-4.6438,-4.6496,-4.6658,-4.7088,-4.712,-4.7078,-4.6622,-4.6095,-4.6071,-4.6523,-4.6058,-4.602,-4.6206,-4.6058,-4.5884,-4.5807,-4.5807,-4.5807,-4.5807,-4.5807,-4.5807,-4.5807,-4.5807,-4.5807,-4.5807,-4.5807,-4.5807,-4.5807,-4.5807,-4.5807,-4.5807,-4.5807,-4.5807,-4.5807,-4.5807,-4.5807,-4.5807,-4.5821,-4.5847,-4.5834,-4.5834,-4.5861,-4.5912,-4.596,-4.5961,-4.5988,-4.5561,-4.5205,-4.4994,-4.493,-4.5025,-4.5502,-4.6034,-4.6172,-4.6289,-4.6289,-4.6191,-5.4598,-5.4446,-5.3006,-5.24,-5.2248,-5.0599,-4.9939,-4.9992,-5.0126,-5.0596,-5.1031,-5.0846,-5.0654,-5.0606,-5.039,-4.9425,-4.7739,-4.7732,-4.6772,-4.5899,-4.554,-4.5676,-4.5764,-4.5807,-4.5807,-4.5807,-4.5807,-4.5807,-4.5807,-4.5807,-4.5807,-4.5807,-4.5807,-4.5761,-4.5626,-4.5278,-4.4775,-4.4381,-4.3852,-4.3601,-4.3608,-4.3813,-4.4052,-4.4226,-4.4342,-4.4645,-4.5469,-4.6035,-4.6808,-4.675,-4.7175,-4.7218,-4.6951,-4.6503,-4.6206,-4.6198,-4.6001,-4.6152,-4.6576,-4.6803,-4.7185,-4.748,-4.7689,-4.6951,-4.6677,-4.6126,-4.5935,-4.6515,-4.6155,-4.6194,-4.6445,-4.6097,-4.5923,-4.5807,-4.5807,-4.5807,-4.5807,-4.5807,-4.5807,-4.5807,-4.5807,-4.5807,-4.5807,-4.5807,-4.5807,-4.5807,-4.5807,-4.5807,-4.5807,-4.5807,-4.5807,-4.5807,-4.5807,-4.5807,-4.5807,-4.5807,-4.5807,-4.5807,-4.5807,-4.5814,-4.5874,-4.5893,-4.5911,-4.5964,-4.6012,-4.5838,-4.5432,-4.5384,-4.54,-4.5803,-4.6164,-4.6228,-4.6289,-4.6289,-4.6289,-5.3783,-5.3707,-5.2779,-5.2347,-5.2234,-5.0599,-4.9893,-4.9933,-5.0114,-5.0328,-5.058,-5.0584,-5.0663,-5.0476,-5.0179,-4.9265,-4.7619,-4.7608,-4.6669,-4.5879,-4.5521,-4.5657,-4.5757,-4.5807,-4.5807,-4.5807,-4.5807,-4.5807,-4.5807,-4.5807,-4.5807,-4.5807,-4.5807,-4.5807,-4.5768,-4.5606,-4.5232,-4.4896,-4.4488,-4.4469,-4.4689,-4.5088,-4.5725,-4.6358,-4.6711,-4.7171,-4.7905,-4.7747,-4.7595,-4.7209,-4.7565,-4.7576,-4.7039,-4.6648,-4.6428,-4.634,-4.5984,-4.6135,-4.6534,-4.6483,-4.6158,-4.6039,-4.6298,-4.6688,-4.6549,-4.609,-4.5945,-4.6025,-4.5877,-4.5884,-4.5962,-4.5845,-4.5807,-4.5807,-4.5807,-4.5807,-4.5807,-4.5807,-4.5807,-4.5807,-4.5807,-4.5807,-4.5807,-4.5807,-4.5807,-4.5807,-4.5807,-4.5807,-4.5807,-4.5807,-4.5807,-4.5807,-4.5807,-4.5807,-4.5807,-4.5807,-4.5807,-4.5807,-4.5807,-4.5807,-4.5814,-4.5834,-4.5854,-4.5861,-4.5905,-4.5886,-4.5896,-4.5782,-4.5793,-4.605,-4.6245,-4.6254,-4.6263,-4.6286,-4.6288,-5.3707,-5.3575,-5.2248,-5.1646,-5.1571,-5.0391,-4.9939,-4.9992,-5.0126,-5.0283,-5.0429,-5.0913,-5.087,-5.0432,-5.0116,-4.915,-4.7662,-4.7571,-4.6639,-4.5879,-4.554,-4.5657,-4.5757,-4.58,-4.5807,-4.5807,-4.5807,-4.5807,-4.5807,-4.5807,-4.5807,-4.5807,-4.5807,-4.5807,-4.5807,-4.58,-4.5573,-4.5455,-4.5286,-4.5298,-4.5341,-4.5549,-4.5954,-4.6171,-4.6298,-4.6712,-4.7275,-4.7472,-4.7598,-4.7667,-4.761,-4.7265,-4.6863,-4.648,-4.6251,-4.624,-4.5828,-4.5979,-4.6323,-4.6487,-4.6966,-4.7976,-4.8083,-4.7745,-4.7127,-4.687,-4.6302,-4.6061,-4.5909,-4.6032,-4.5865,-4.5845,-4.5807,-4.5807,-4.5904,-4.5981,-4.6058,-4.6174,-4.6174,-4.6348,-4.6039,-4.5807,-4.5807,-4.5807,-4.5807,-4.5807,-4.5807,-4.5807,-4.5807,-4.5807,-4.5807,-4.5807,-4.5807,-4.5807,-4.5807,-4.5807,-4.5807,-4.5807,-4.5807,-4.5807,-4.5807,-4.5807,-4.5821,-4.5807,-4.5807,-4.5848,-4.5911,-4.6016,-4.6078,-4.6121,-4.6159,-4.6199,-4.6222,-4.6258,-4.6265,-5.2968,-5.2779,-5.1433,-5.0978,-5.1054,-5.0258,-4.9939,-4.9973,-5.012,-5.0259,-5.0416,-5.0933,-5.0832,-5.0278,-5.0025,-4.9074,-4.7821,-4.7402,-4.6568,-4.5897,-4.5494,-4.564,-4.5761,-4.5819,-4.5807,-4.5807,-4.5807,-4.5807,-4.5807,-4.5807,-4.5807,-4.5807,-4.5807,-4.5807,-4.58,-4.5812,-4.5817,-4.5827,-4.604,-4.6117,-4.6094,-4.6429,-4.6619,-4.6672,-4.6765,-4.697,-4.7419,-4.7576,-4.7559,-4.7501,-4.7309,-4.6857,-4.6444,-4.6042,-4.5697,-4.5631,-4.5659,-4.5781,-4.6174,-4.6653,-4.7615,-4.8426,-4.8745,-4.8495,-4.8234,-4.7709,-4.7182,-4.6831,-4.6641,-4.6508,-4.6515,-4.6767,-4.6864,-4.7018,-4.6999,-4.7064,-4.7006,-4.7064,-4.6948,-4.6909,-4.6561,-4.629,-4.609,-4.609,-4.5807,-4.5807,-4.5807,-4.5807,-4.5807,-4.5807,-4.5807,-4.5807,-4.5807,-4.5807,-4.5807,-4.5807,-4.5807,-4.5807,-4.5807,-4.5807,-4.5807,-4.5807,-4.5807,-4.5807,-4.5807,-4.584,-4.5861,-4.5923,-4.5966,-4.6008,-4.6064,-4.6138,-4.6199,-4.6245,-4.6259,-5.1338,-5.1149,-5.0334,-5.0429,-5.0997,-5.0258,-4.9893,-4.992,-5.0044,-5.0151,-5.0248,-5.0284,-5.0253,-5.007,-4.9992,-4.8958,-4.7738,-4.7428,-4.671,-4.5646,-4.5429,-4.5601,-4.5723,-4.5791,-4.5793,-4.58,-4.5807,-4.5807,-4.58,-4.5812,-4.5819,-4.5793,-4.5786,-4.5793,-4.58,-4.581,-4.5807,-4.5889,-4.6447,-4.6582,-4.6736,-4.7114,-4.7315,-4.7334,-4.7295,-4.7306,-4.7319,-4.7351,-4.7218,-4.6891,-4.6843,-4.642,-4.5873,-4.5738,-4.5652,-4.5748,-4.5729,-4.6114,-4.6836,-4.6938,-4.7668,-4.8487,-4.8902,-4.8719,-4.8391,-4.8167,-4.8058,-4.7653,-4.7828,-4.8006,-4.8164,-4.8198,-4.8063,-4.7966,-4.7889,-4.785,-4.7773,-4.7753,-4.7599,-4.7521,-4.7296,-4.7045,-4.6728,-4.6419,-4.5962,-4.5807,-4.5807,-4.5807,-4.5826,-4.5807,-4.5807,-4.5807,-4.5807,-4.5807,-4.5807,-4.5807,-4.5807,-4.5807,-4.5807,-4.5807,-4.5807,-4.5807,-4.5807,-4.5807,-4.5807,-4.5814,-4.5807,-4.5814,-4.588,-4.5931,-4.6008,-4.6092,-4.6167,-4.6197,-4.6212,-5.1206,-5.113,-5.0258,-5.005,-5.0291,-5.0031,-4.9893,-4.9893,-4.9952,-5.0005,-5.0031,-4.9973,-4.9965,-4.9952,-4.98,-4.9021,-4.7694,-4.7416,-4.6686,-4.5456,-4.5455,-4.5484,-4.5651,-4.5858,-4.5807,-4.5793,-4.5807,-4.5798,-4.5803,-4.5795,-4.5761,-4.5754,-4.5734,-4.5742,-4.5795,-4.5807,-4.5792,-4.5769,-4.596,-4.6078,-4.6127,-4.6425,-4.6617,-4.6628,-4.6656,-4.6667,-4.6669,-4.6672,-4.6451,-4.6182,-4.6163,-4.5932,-4.5652,-4.5594,-4.5855,-4.624,-4.649,-4.7163,-4.8105,-4.8624,-4.8691,-4.9086,-4.9394,-4.9404,-4.9134,-4.9065,-4.8784,-4.8499,-4.8607,-4.8601,-4.8288,-4.8357,-4.8314,-4.8275,-4.8237,-4.8237,-4.8217,-4.8237,-4.8179,-4.814,-4.7985,-4.756,-4.7192,-4.6922,-4.6503,-4.6245,-4.6264,-4.5942,-4.5845,-4.5826,-4.5807,-4.5807,-4.5807,-4.5807,-4.5807,-4.5807,-4.5807,-4.5807,-4.5807,-4.5807,-4.5807,-4.5807,-4.5807,-4.5807,-4.5807,-4.5807,-4.5807,-4.5807,-4.5821,-4.5886,-4.595,-4.6008,-4.6063,-4.6099,-4.6102,-5.1035,-5.0694,-5.0139,-4.9893,-4.9893,-4.9893,-4.9893,-4.9893,-4.9893,-4.9893,-4.9893,-4.9893,-4.9893,-4.9893,-4.9779,-4.9286,-4.7921,-4.7826,-4.7371,-4.6096,-4.6072,-4.6318,-4.6378,-4.6121,-4.618,-4.6051,-4.5835,-4.5743,-4.5738,-4.5719,-4.5703,-4.5668,-4.5657,-4.5684,-4.5719,-4.5738,-4.5738,-4.5709,-4.58,-4.5736,-4.5708,-4.5747,-4.5717,-4.5727,-4.5755,-4.5744,-4.5642,-4.5594,-4.5614,-4.5614,-4.5614,-4.5633,-4.5652,-4.5729,-4.6067,-4.6644,-4.7644,-4.824,-4.9029,-5.0144,-5.0212,-5.0356,-5.0673,-5.0404,-4.9981,-4.9904,-4.9662,-4.9409,-4.9374,-4.9542,-4.9605,-4.9598,-4.9765,-4.9803,-4.9552,-4.961,-4.9243,-4.9281,-4.9281,-4.9184,-4.8759,-4.8256,-4.7734,-4.7405,-4.7103,-4.6922,-4.6767,-4.6387,-4.602,-4.5942,-4.5942,-4.5923,-4.5845,-4.5807,-4.5807,-4.5807,-4.5807,-4.5807,-4.5807,-4.5807,-4.5807,-4.5807,-4.5807,-4.5807,-4.5807,-4.5807,-4.5807,-4.5807,-4.5859,-4.5847,-4.5861,-4.5923,-4.5975,-4.6153,-4.6328,-5.0699,-4.9993,-4.9898,-4.9898,-4.9898,-4.9866,-4.9879,-4.9893,-4.9893,-4.9893,-4.9893,-4.9893,-4.9817,-4.9817,-4.9855,-4.9305,-4.8596,-4.8429,-4.7901,-4.7435,-4.7035,-4.7297,-4.721,-4.6932,-4.6599,-4.6397,-4.6108,-4.5705,-4.5617,-4.5475,-4.5475,-4.5549,-4.5519,-4.5556,-4.5593,-4.5665,-4.5673,-4.5684,-4.5659,-4.5622,-4.5594,-4.5594,-4.5603,-4.5594,-4.5603,-4.5622,-4.5594,-4.5594,-4.5671,-4.571,-4.5729,-4.5806,-4.5806,-4.5748,-4.6278,-4.7298,-4.8836,-4.9567,-5.0125,-5.1318,-5.1645,-5.1625,-5.1279,-5.0962,-5.0904,-5.1,-5.0924,-5.1039,-5.1209,-5.162,-5.1915,-5.2169,-5.2414,-5.2124,-5.1726,-5.1331,-5.0743,-5.0608,-5.0589,-5.0318,-4.9765,-4.9223,-4.8604,-4.8179,-4.7792,-4.7695,-4.7521,-4.7231,-4.6806,-4.6252,-4.6213,-4.6136,-4.602,-4.5826,-4.5807,-4.5807,-4.5807,-4.5807,-4.5807,-4.5807,-4.5807,-4.5807,-4.5807,-4.5807,-4.5807,-4.5807,-4.5807,-4.5845,-4.5884,-4.591,-4.6169,-4.5964,-4.6053,-4.6659,-4.6951,-5.0826,-5.0543,-4.9991,-4.9764,-4.9764,-4.9764,-4.9802,-4.9898,-4.9893,-4.9893,-4.9893,-4.9893,-4.9652,-4.9115,-4.9627,-4.8988,-4.8526,-4.8164,-4.7902,-4.7689,-4.7727,-4.7452,-4.7321,-4.7262,-4.685,-4.65,-4.6132,-4.5808,-4.5287,-4.5151,-4.5222,-4.515,-4.5657,-4.5611,-4.5745,-4.5626,-4.5845,-4.5873,-4.5932,-4.5806,-4.5787,-4.5825,-4.5806,-4.5825,-4.5845,-4.5864,-4.5941,-4.5902,-4.6086,-4.6547,-4.6567,-4.6894,-4.8298,-4.8355,-4.8817,-5.0375,-5.1471,-5.2164,-5.2202,-5.2529,-5.2722,-5.2635,-5.2433,-5.2549,-5.2491,-5.2318,-5.2289,-5.2348,-5.2444,-5.2644,-5.2766,-5.3022,-5.2998,-5.2531,-5.219,-5.1834,-5.1312,-5.1157,-5.1157,-5.1188,-5.0654,-5.0132,-4.9513,-4.8856,-4.8527,-4.845,-4.8333,-4.8121,-4.7579,-4.6999,-4.6535,-4.6464,-4.6078,-4.5845,-4.5807,-4.5807,-4.5807,-4.5807,-4.5807,-4.5807,-4.5807,-4.5807,-4.5807,-4.5807,-4.5807,-4.5807,-4.5807,-4.5923,-4.6155,-4.6561,-4.6781,-4.6408,-4.6274,-4.7062,-4.7559,-5.0625,-5.0248,-4.9777,-4.9585,-4.9585,-4.9585,-4.9625,-4.9712,-4.9769,-4.9816,-4.9797,-4.9816,-4.9551,-4.9362,-4.9896,-4.9858,-4.9126,-4.9797,-4.9852,-4.951,-4.8577,-4.8734,-4.8536,-4.7914,-4.7526,-4.7068,-4.6657,-4.6386,-4.5761,-4.5761,-4.59,-4.6543,-4.6523,-4.6838,-4.7367,-4.7797,-4.7742,-4.7357,-4.6896,-4.6481,-4.6471,-4.6586,-4.6586,-4.6586,-4.6586,-4.671,-4.696,-4.6971,-4.749,-4.8221,-4.8394,-4.8567,-4.949,-4.9394,-4.9471,-5.0664,-5.1337,-5.1702,-5.1837,-5.2299,-5.2577,-5.2808,-5.3019,-5.3126,-5.3106,-5.2953,-5.2972,-5.3031,-5.3148,-5.3262,-5.3328,-5.3286,-5.2807,-5.2318,-5.2124,-5.197,-5.1718,-5.1505,-5.1621,-5.1815,-5.1505,-5.1022,-5.0403,-4.9707,-4.9417,-4.961,-4.9687,-4.9602,-4.8778,-4.7753,-4.7173,-4.6851,-4.629,-4.5807,-4.5884,-4.6039,-4.6039,-4.6,-4.5807,-4.5807,-4.5826,-4.5865,-4.5923,-4.5884,-4.5807,-4.5865,-4.6,-4.631,-4.66,-4.7064,-4.7521,-4.7439,-4.7504,-4.8034,-4.8363,-5.0225,-4.9534,-4.9402,-4.9384,-4.9384,-4.9365,-4.9399,-4.9418,-4.957,-4.9663,-4.9678,-4.9659,-4.9583,-4.9433,-5.0172,-5.053,-5.035,-5.0873,-5.1265,-5.1748,-5.0681,-5.0234,-4.9652,-4.9186,-4.8352,-4.805,-4.7608,-4.6892,-4.6939,-4.6737,-4.6939,-4.8338,-4.8149,-4.8162,-4.854,-4.8827,-4.8761,-4.8734,-4.7947,-4.7395,-4.8078,-4.8279,-4.8288,-4.8288,-4.8365,-4.8529,-4.9048,-4.9413,-4.974,-5.0269,-5.0366,-4.9913,-5.0,-5.0038,-5.0077,-5.0288,-5.1278,-5.1527,-5.1835,-5.2162,-5.2249,-5.2471,-5.2731,-5.3058,-5.3192,-5.3203,-5.3203,-5.3213,-5.3253,-5.3273,-5.331,-5.3307,-5.2964,-5.2456,-5.2136,-5.2066,-5.197,-5.1815,-5.1834,-5.1892,-5.1544,-5.1138,-5.1022,-5.0326,-5.0086,-5.055,-5.0627,-5.0569,-4.997,-4.8701,-4.8121,-4.756,-4.7057,-4.6651,-4.6593,-4.667,-4.6426,-4.6271,-4.6213,-4.6341,-4.6728,-4.6477,-4.6039,-4.6232,-4.6438,-4.6232,-4.629,-4.6755,-4.7308,-4.7792,-4.8198,-4.8469,-4.8798,-4.9165,-4.9146,-5.0347,-5.0104,-4.9506,-4.9244,-4.9244,-4.9244,-4.9225,-4.9244,-4.9292,-4.9387,-4.9446,-4.9423,-4.916,-4.8953,-5.0156,-5.046,-5.0257,-5.1279,-5.1668,-5.1675,-5.1325,-5.0824,-5.0329,-4.9689,-4.8963,-4.811,-4.7567,-4.741,-4.7105,-4.6922,-4.6859,-4.726,-4.7711,-4.8362,-4.8624,-4.8777,-4.9062,-4.96,-4.9092,-4.8896,-4.9701,-4.9949,-4.9998,-4.9942,-4.9981,-4.9663,-4.9798,-4.9567,-4.9567,-4.9683,-4.9702,-5.0183,-5.1142,-5.1696,-5.202,-5.2173,-5.1872,-5.1853,-5.193,-5.2045,-5.2212,-5.2523,-5.2852,-5.3046,-5.3163,-5.3173,-5.3183,-5.3184,-5.3185,-5.3196,-5.3186,-5.3145,-5.3005,-5.2509,-5.2108,-5.2116,-5.2144,-5.2171,-5.2086,-5.1854,-5.1525,-5.137,-5.1331,-5.1149,-5.0975,-5.0879,-5.0859,-5.0763,-5.055,-4.9745,-4.9378,-4.8836,-4.8237,-4.7869,-4.7618,-4.7405,-4.7212,-4.7347,-4.7444,-4.756,-4.7637,-4.7386,-4.7115,-4.7134,-4.7192,-4.7018,-4.7096,-4.7618,-4.814,-4.8546,-4.903,-4.9378,-4.9803,-5.0202,-4.9989,-4.9733,-4.9677,-4.9249,-4.9062,-4.9062,-4.9062,-4.9062,-4.9062,-4.9062,-4.9094,-4.9193,-4.9239,-4.9027,-4.8765,-4.9982,-5.0375,-5.0078,-5.1185,-5.1865,-5.1965,-5.1354,-5.0966,-5.0505,-5.0005,-4.9521,-4.8723,-4.8742,-4.8499,-4.7608,-4.8071,-4.8323,-4.8234,-4.8543,-4.8874,-4.9047,-4.9292,-4.9377,-5.0161,-4.9868,-5.0331,-5.0963,-5.0815,-5.0547,-5.0532,-5.0557,-5.0462,-5.0741,-5.0567,-5.0798,-5.0788,-5.0913,-5.0802,-5.1333,-5.135,-5.1453,-5.1393,-5.1337,-5.1559,-5.1641,-5.1754,-5.1844,-5.194,-5.1981,-5.1792,-5.1846,-5.1895,-5.2568,-5.2597,-5.252,-5.2531,-5.2339,-5.226,-5.1966,-5.1537,-5.1515,-5.1589,-5.2136,-5.2608,-5.2666,-5.2743,-5.2318,-5.1815,-5.1641,-5.1169,-5.1014,-5.0898,-5.0898,-5.0898,-5.0705,-5.055,-5.0299,-4.9958,-4.9243,-4.8604,-4.814,-4.8063,-4.8082,-4.8295,-4.8604,-4.8333,-4.8159,-4.8237,-4.8217,-4.8082,-4.7966,-4.7927,-4.8101,-4.8527,-4.8856,-4.9223,-4.9784,-5.0318,-5.0705,-5.0898,-5.0608,-4.8927,-4.889,-4.889,-4.889,-4.889,-4.889,-4.889,-4.889,-4.889,-4.889,-4.896,-4.9096,-4.9164,-4.9442,-4.9967,-5.0228,-5.062,-5.1238,-5.193,-5.2081,-5.117,-5.1061,-5.0636,-4.9986,-4.9615,-4.9522,-4.9522,-4.9206,-4.8649,-4.9187,-4.9704,-5.0329,-5.0897,-5.1462,-5.1576,-5.1484,-5.102,-5.0763,-5.076,-5.1288,-5.1296,-5.1103,-5.0971,-5.0889,-5.0968,-5.1326,-5.174,-5.198,-5.2326,-5.1968,-5.1532,-5.1269,-5.0951,-5.0741,-5.0355,-5.0257,-5.0274,-5.0204,-5.0109,-5.0297,-5.0317,-5.0331,-5.0363,-5.053,-5.069,-5.1076,-5.1749,-5.1884,-5.1826,-5.177,-5.1568,-5.1423,-5.1112,-5.102,-5.1114,-5.1186,-5.1965,-5.2685,-5.2917,-5.3072,-5.255,-5.197,-5.166,-5.1207,-5.1053,-5.0937,-5.0917,-5.0917,-5.0879,-5.0782,-5.0627,-5.0357,-4.9892,-4.9301,-4.8914,-4.8894,-4.9068,-4.9204,-4.9417,-4.8991,-4.8798,-4.9165,-4.9184,-4.8759,-4.8662,-4.8856,-4.901,-4.932,-4.9629,-4.9881,-5.0221,-5.0647,-5.0743,-5.0898,-5.0898,-4.889,-4.889,-4.889,-4.889,-4.889,-4.889,-4.889,-4.889,-4.889,-4.889,-4.8909,-4.8926,-4.896,-4.9016,-4.9797,-5.0131,-5.0184,-5.0929,-5.1824,-5.2271,-5.1155,-5.1174,-5.0989,-5.0153,-4.9615,-4.9429,-4.9336,-4.9076,-4.9039,-4.9652,-4.9763,-4.9388,-5.004,-5.0184,-4.9587,-4.9689,-4.987,-4.9924,-4.9905,-4.9973,-5.0544,-5.0894,-5.2164,-5.2339,-5.2476,-5.2217,-5.202,-5.1847,-5.1483,-5.1075,-5.0792,-5.0586,-5.0355,-5.0085,-4.9802,-4.9612,-4.9569,-4.9569,-4.9598,-4.9707,-4.9828,-5.0019,-5.0175,-5.0294,-5.0424,-5.0508,-5.0922,-5.0952,-5.0935,-5.1047,-5.0933,-5.0962,-5.0797,-5.1026,-5.1196,-5.1151,-5.1501,-5.1884,-5.2163,-5.195,-5.1525,-5.1273,-5.1235,-5.0975,-5.0975,-5.0937,-5.1053,-5.1033,-5.0917,-5.0917,-5.0975,-5.0666,-5.0395,-5.0569,-5.0434,-5.0144,-5.0202,-5.0306,-5.0268,-4.9939,-4.9939,-5.0384,-5.026,-4.9641,-4.9765,-5.0035,-5.0171,-4.9989,-5.026,-5.0492,-5.0647,-5.0859,-5.0898,-5.0898,-5.0898]},{"header":{"parameterUnit":"m.s-1","parameterCategory":1,"la1":31.0,"la2":29.5877,"lo1":-88.7671,"lo2":-86.6584,"dy":0.0162,"dx":0.0185,"nx":115,"ny":88,"refTime":"2026-04-25T00:00:00:Z","depth":0,"parameterNumber":3,"parameterNumberName":"V-component_of_WINDS"},"data":[0.0,0.0,0.0,0.0,0.0,0.0,0.0,0.0,0.0,0.0,0.0,0.0,0.0,0.0,0.0,0.0,0.0,0.0,0.0,0.0,0.0,0.0,0.0,0.0,0.0,0.0,0.0,0.0,0.0,0.0,0.0,0.0,0.0,0.0,0.0,0.0,0.0,0.0,0.0,0.0,0.0,0.0,0.0,0.0,0.0,0.0,0.0,0.0,0.0,0.0,0.0,0.0,0.0,0.0,0.0,0.0,0.0,0.0,0.0,0.0,0.0,0.0,0.0,0.0,0.0,0.0,0.0,0.0,0.0,0.0,0.0,0.0,0.0,0.0,0.0,0.0,0.0,0.0,0.0,0.0,0.0,0.0,0.0,0.0,0.0,0.0,0.0,0.0,0.0,0.0,0.0,0.0,0.0,0.0,0.0,0.0,0.0,0.0,0.0,0.0,0.0,0.0,0.0,0.0,0.0,0.0,0.0,0.0,0.0,0.0,0.0,0.0,0.0,0.0,0.0,0.0,0.0,0.0,0.0,0.0,0.0,0.0,0.0,0.0,0.0,0.0,0.0,0.0,0.0,0.0,0.0,0.0,0.0,0.0,0.0,0.0,0.0,0.0,0.0,0.0,0.0,0.0,0.0,0.0,0.0,0.0,0.0,0.0,0.0,0.0,0.0,0.0,0.0,0.0,0.0,0.0,0.0,0.0,0.0,0.0,0.0,0.0,0.0,0.0,0.0,0.0,0.0,0.0,0.0,0.0,0.0,0.0,0.0,0.0,0.0,0.0,0.0,0.0,0.0,0.0,0.0,0.0,0.0,0.0,0.0,0.0,0.0,0.0,0.0,0.0,0.0,0.0,0.0,0.0,0.0,0.0,0.0,0.0,0.0,0.0,0.0,0.0,0.0,0.0,0.0,0.0,0.0,0.0,0.0,0.0,0.0,0.0,0.0,0.0,0.0,0.0,0.0,0.0,0.0,0.0,0.0,0.0,0.0,0.0,0.0,0.0,0.0,0.0,0.0,0.0,0.0,0.0,0.0,0.0,0.0,0.0,0.0,0.0,0.0,0.0,0.0,0.0,0.0,0.0,0.0,0.0,0.0,0.0,0.0,0.0,0.0,0.0,0.0,0.0,0.0,0.0,0.0,0.0,0.0,0.0,0.0,0.0,0.0,0.0,0.0,0.0,0.0,0.0,0.0,0.0,0.0,0.0,0.0,0.0,0.0,0.0,0.0,0.0,0.0,0.0,0.0,0.0,0.0,0.0,0.0,0.0,0.0,0.0,0.0,0.0,0.0,0.0,0.0,0.0,0.0,0.0,0.0,0.0,0.0,0.0,0.0,0.0,0.0,0.0,0.0,0.0,0.0,0.0,0.0,0.0,0.0,0.0,0.0,0.0,0.0,0.0,0.0,0.0,0.0,0.0,0.0,0.0,0.0,0.0,0.0,0.0,0.0,0.0,0.0,0.0,0.0,0.0,0.0,0.0,0.0,0.0,0.0,0.0,0.0,0.0,0.0,0.0,0.0,0.0,0.0,0.0,0.0,0.0,0.0,0.0,0.0,0.0,0.0,0.0,0.0,0.0,0.0,0.0,0.0,0.0,0.0,0.0,0.0,0.0,0.0,0.0,0.0,0.0,0.0,0.0,0.0,0.0,0.0,0.0,0.0,0.0,0.0,0.0,0.0,0.0,0.0,0.0,0.0,0.0,0.0,0.0,0.0,0.0,0.0,0.0,0.0,0.0,0.0,0.0,0.0,0.0,0.0,0.0,0.0,0.0,0.0,0.0,0.0,0.0,0.0,0.0,0.0,0.0,0.0,0.0,0.0,0.0,0.0,0.0,0.0,0.0,0.0,0.0,0.0,0.0,0.0,0.0,0.0,0.0,0.0,0.0,0.0,0.0,0.0,0.0,0.0,0.0,0.0,0.0,0.0,0.0,0.0,0.0,0.0,0.0,0.0,0.0,0.0,0.0,0.0,0.0,0.0,0.0,0.0,0.0,0.0,0.0,0.0,0.0,0.0,0.0,0.0,0.0,0.0,0.0,0.0,0.0,0.0,0.0,0.0,0.0,0.0,0.0,0.0,0.0,0.0,0.0,0.0,0.0,0.0,0.0,0.0,0.0,0.0,0.0,0.0,0.0,0.0,0.0,0.0,0.0,0.0,0.0,0.0,0.0,0.0,0.0,0.0,0.0,0.0,0.0,0.0,0.0,0.0,0.0,0.0,0.0,0.0,0.0,0.0,0.0,0.0,0.0,0.0,0.0,0.0,0.0,0.0,0.0,0.0,0.0,0.0,0.0,0.0,0.0,0.0,0.0,0.0,0.0,0.0,0.0,0.0,0.0,0.0,0.0,0.0,0.0,0.0,0.0,0.0,0.0,0.0,0.0,0.0,0.0,0.0,0.0,0.0,0.0,0.0,0.0,0.0,0.0,0.0,0.0,0.0,0.0,0.0,0.0,0.0,0.0,0.0,0.0,0.0,0.0,0.0,0.0,0.0,0.0,0.0,0.0,0.0,0.0,0.0,0.0,0.0,0.0,0.0,0.0,0.0,0.0,0.0,0.0,0.0,0.0,0.0,0.0,0.0,0.0,0.0,0.0,0.0,0.0,0.0,0.0,0.0,0.0,0.0,0.0,0.0,0.0,0.0,0.0,0.0,0.0,0.0,0.0,0.0,0.0,0.0,0.0,0.0,0.0,0.0,0.0,0.0,0.0,0.0,0.0,0.0,0.0,0.0,0.0,0.0,0.0,0.0,0.0,0.0,0.0,0.0,0.0,0.0,0.0,0.0,0.0,0.0,0.0,0.0,0.0,0.0,0.0,0.0,0.0,0.0,0.0,0.0,0.0,0.0,0.0,0.0,0.0,0.0,0.0,0.0,0.0,0.0,0.0,0.0,0.0,0.0,0.0,0.0,0.0,0.0,0.0,0.0,0.0,0.0,0.0,0.0,0.0,0.0,0.0,0.0,0.0,0.0,0.0,0.0,0.0,0.0,0.0,0.0,0.0,0.0,0.0,0.0,0.0,0.0,0.0,0.0,0.0,0.0,0.0,0.0,0.0,0.0,0.0,0.0,0.0,0.0,0.0,0.0,0.0,0.0,0.0,0.0,0.0,0.0,0.0,0.0,0.0,0.0,0.0,0.0,0.0,0.0,0.0,0.0,0.0,0.0,0.0,0.0,0.0,0.0,0.0,0.0,0.0,0.0,0.0,0.0,0.0,0.0,0.0,0.0,0.0,0.0,0.0,0.0,0.0,0.0,0.0,0.0,0.0,0.0,0.0,0.0,0.0,0.0,0.0,0.0,0.0,0.0,0.0,0.0,0.0,0.0,0.0,0.0,0.0,0.0,0.0,0.0,0.0,0.0,0.0,0.0,0.0,0.0,0.0,0.0,0.0,0.0,0.0,0.0,0.0,0.0,0.0,0.0,0.0,0.0,0.0,0.0,0.0,0.0,0.0,0.0,0.0,0.0,0.0,0.0,0.0,0.0,0.0,0.0,0.0,0.0,0.0,0.0,0.0,0.0,0.0,0.0,0.0,0.0,0.0,0.0,0.0,0.0,0.0,0.0,0.0,0.0,0.0,0.0,0.0,0.0,0.0,0.0,0.0,0.0,0.0,0.0,0.0,0.0,0.0,0.0,0.0,0.0,0.0,0.0,0.0,0.0,0.0,0.0,0.0,0.0,0.0,0.0,0.0,0.0,0.0,0.0,0.0,0.0,0.0,0.0,0.0,0.0,0.0,0.0,0.0,0.0,0.0,0.0,0.0,0.0,0.0,0.0,0.0,0.0,0.0,0.0,0.0,0.0,0.0,0.0,0.0,0.0,0.0,0.0,0.0,0.0,0.0,0.0,0.0,0.0,0.0,0.0,0.0,0.0,0.0,0.0,0.0,0.0,0.0,0.0,0.0,0.0,0.0,0.0,0.0,0.0,0.0,0.0,0.0,0.0,0.0,0.0,0.0,0.0,0.0,0.0,0.0,0.0,0.0,0.0,0.0,0.0,0.0,0.0,0.0,0.0,0.0,0.0,0.0,0.0,0.0,0.0,0.0,0.0,0.0,0.0,0.0,0.0,0.0,0.0,0.0,0.0,0.0,0.0,0.0,0.0,0.0,0.0,0.0,0.0,0.0,0.0,0.0,0.0,0.0,0.0,0.0,0.0,0.0,0.0,0.0,0.0,0.0,0.0,0.0,0.0,0.0,0.0,0.0,0.0,0.0,0.0,0.0,0.0,0.0,0.0,0.0,0.0,0.0,0.0,0.0,0.0,0.0,0.0,0.0,-0.6293,0.0,0.0,0.0,0.0,0.0,0.0,0.0,0.0,0.0,0.0,0.0,0.0,0.0,0.0,0.0,0.0,0.0,0.0,0.0,0.0,0.0,0.0,0.0,0.0,0.0,0.0,0.0,0.0,0.0,0.0,0.0,0.0,0.0,0.0,0.0,0.0,0.0,0.0,0.0,0.0,0.0,0.0,0.0,0.0,0.0,0.0,0.0,0.0,0.0,0.0,0.0,0.0,0.0,0.0,0.0,0.0,0.0,0.0,0.0,0.0,0.0,0.0,0.0,0.0,0.0,0.0,0.0,0.0,0.0,0.0,0.0,0.0,0.0,0.0,0.0,0.0,0.0,0.0,0.0,0.0,0.0,0.0,0.0,0.0,0.0,0.0,0.0,0.0,0.0,0.0,0.0,0.0,0.0,0.0,0.0,0.0,0.0,0.0,0.0,0.0,0.0,0.0,0.0,0.0,0.0,0.0,0.0,0.0,0.0,0.0,-0.5737,-0.6387,-0.6387,-0.6352,-0.617,0.0,0.0,0.0,0.0,0.0,0.0,0.0,0.0,0.0,0.0,0.0,0.0,0.0,0.0,0.0,0.0,0.0,0.0,0.0,0.0,0.0,0.0,0.0,0.0,0.0,0.0,0.0,0.0,0.0,0.0,0.0,0.0,0.0,0.0,0.0,0.0,0.0,0.0,0.0,0.0,0.0,0.0,0.0,0.0,0.0,0.0,0.0,0.0,0.0,0.0,0.0,0.0,0.0,0.0,0.0,0.0,0.0,0.0,0.0,0.0,0.0,0.0,0.0,0.0,0.0,0.0,0.0,0.0,0.0,0.0,0.0,0.0,0.0,0.0,0.0,0.0,0.0,0.0,0.0,0.0,0.0,0.0,0.0,0.0,0.0,0.0,0.0,0.0,0.0,0.0,0.0,0.0,0.0,0.0,0.0,0.0,0.0,0.0,0.0,0.0,0.0,0.0,0.0,0.0,0.0,0.0,0.0,0.0,0.0,0.0,0.0,0.0,-0.6403,-0.6238,-0.5972,0.0,0.0,0.0,0.0,0.0,0.0,0.0,0.0,0.0,0.0,0.0,0.0,0.0,0.0,0.0,0.0,0.0,0.0,0.0,0.0,0.0,0.0,0.0,0.0,0.0,0.0,0.0,0.0,0.0,0.0,0.0,0.0,0.0,0.0,0.0,0.0,0.0,0.0,0.0,0.0,0.0,0.0,0.0,0.0,0.0,0.0,0.0,0.0,0.0,0.0,0.0,0.0,0.0,0.0,0.0,0.0,0.0,0.0,0.0,0.0,0.0,0.0,0.0,0.0,0.0,0.0,0.0,0.0,0.0,0.0,0.0,0.0,0.0,0.0,0.0,0.0,0.0,0.0,0.0,0.0,0.0,0.0,0.0,0.0,0.0,0.0,0.0,0.0,0.0,0.0,0.0,0.0,0.0,0.0,0.0,0.0,0.0,0.0,0.0,0.0,0.0,0.0,0.0,0.0,0.0,0.0,0.0,0.0,0.0,0.0,-0.6298,-0.6549,-0.6452,0.0,-0.5591,0.0,0.0,0.0,0.0,0.0,0.0,0.0,0.0,0.0,0.0,0.0,0.0,0.0,0.0,0.0,0.0,0.0,0.0,0.0,0.0,0.0,0.0,0.0,0.0,0.0,0.0,0.0,0.0,0.0,0.0,0.0,0.0,0.0,0.0,0.0,0.0,0.0,0.0,0.0,0.0,0.0,0.0,0.0,0.0,0.0,0.0,0.0,0.0,0.0,0.0,0.0,0.0,0.0,0.0,0.0,0.0,0.0,0.0,0.0,0.0,0.0,0.0,0.0,0.0,0.0,0.0,0.0,0.0,0.0,0.0,0.0,0.0,0.0,0.0,0.0,0.0,0.0,0.0,0.0,0.0,0.0,0.0,0.0,0.0,0.0,0.0,0.0,0.0,0.0,0.0,0.0,0.0,0.0,0.0,0.0,0.0,0.0,0.0,0.0,0.0,0.0,0.0,0.0,0.0,0.0,0.0,0.0,0.0,0.0,0.0,-0.6551,-0.6728,-0.6407,-0.6006,0.0,0.0,0.0,0.0,0.0,0.0,0.0,0.0,0.0,0.0,0.0,0.0,0.0,0.0,0.0,0.0,0.0,0.0,0.0,0.0,0.0,0.0,0.0,0.0,0.0,0.0,0.0,0.0,0.0,0.0,0.0,0.0,0.0,0.0,0.0,0.0,0.0,0.0,0.0,0.0,0.0,0.0,0.0,0.0,0.0,0.0,0.0,0.0,0.0,0.0,0.0,0.0,0.0,0.0,0.0,0.0,0.0,0.0,0.0,0.0,0.0,0.0,0.0,0.0,0.0,0.0,0.0,0.0,0.0,0.0,0.0,0.0,0.0,0.0,0.0,0.0,0.0,0.0,0.0,0.0,0.0,0.0,0.0,0.0,0.0,0.0,0.0,0.0,0.0,0.0,0.0,0.0,0.0,0.0,0.0,0.0,0.0,0.0,0.0,0.0,0.0,0.0,0.0,0.0,0.0,0.0,0.0,0.0,0.0,0.0,-0.6505,0.0,-0.6635,-0.6287,-0.5928,-0.5551,0.0,0.0,0.0,0.0,0.0,0.0,0.0,0.0,0.0,0.0,0.0,0.0,0.0,0.0,0.0,0.0,0.0,0.0,0.0,0.0,0.0,0.0,0.0,0.0,0.0,0.0,0.0,0.0,0.0,0.0,0.0,0.0,0.0,0.0,0.0,0.0,0.0,0.0,0.0,0.0,0.0,0.0,0.0,0.0,0.0,0.0,0.0,0.0,0.0,0.0,0.0,0.0,0.0,0.0,0.0,0.0,0.0,0.0,0.0,0.0,0.0,0.0,0.0,0.0,0.0,0.0,0.0,0.0,0.0,0.0,0.0,0.0,0.0,0.0,0.0,0.0,0.0,0.0,0.0,0.0,0.0,0.0,0.0,0.0,0.0,0.0,0.0,0.0,0.0,0.0,0.0,0.0,0.0,0.0,0.0,0.0,0.0,0.0,0.0,0.0,0.0,0.0,0.0,0.0,0.0,0.0,0.0,0.0,0.0,-0.6556,-0.6516,-0.6358,-0.6157,-0.5809,0.0,0.0,0.0,0.0,0.0,0.0,0.0,0.0,0.0,0.0,0.0,0.0,0.0,0.0,0.0,0.0,0.0,0.0,0.0,0.0,0.0,0.0,0.0,0.0,0.0,0.0,0.0,0.0,0.0,0.0,0.0,0.0,0.0,0.0,0.0,0.0,0.0,0.0,0.0,0.0,0.0,0.0,0.0,0.0,0.0,0.0,0.0,0.0,0.0,0.0,0.0,0.0,0.0,0.0,0.0,0.0,0.0,0.0,0.0,0.0,0.0,0.0,0.0,0.0,0.0,0.0,0.0,0.0,0.0,0.0,0.0,0.0,0.0,0.0,0.0,0.0,0.0,0.0,0.0,0.0,0.0,0.0,0.0,0.0,0.0,0.0,0.0,0.0,0.0,0.0,0.0,0.0,0.0,0.0,0.0,0.0,0.0,0.0,0.0,0.0,0.0,0.0,0.0,0.0,0.0,0.0,0.0,0.0,0.0,-0.6292,-0.6521,-0.6492,-0.6374,-0.5996,-0.5648,0.0,0.0,0.0,0.0,0.0,0.0,0.0,0.0,0.0,0.0,0.0,0.0,0.0,0.0,0.0,0.0,0.0,0.0,0.0,0.0,0.0,0.0,0.0,0.0,0.0,0.0,0.0,0.0,0.0,0.0,0.0,0.0,0.0,0.0,0.0,0.0,0.0,0.0,0.0,0.0,0.0,0.0,0.0,0.0,0.0,0.0,0.0,0.0,0.0,0.0,0.0,0.0,0.0,0.0,0.0,0.0,0.0,0.0,0.0,0.0,0.0,0.0,0.0,0.0,0.0,0.0,0.0,0.0,0.0,0.0,0.0,0.0,0.0,0.0,0.0,0.0,0.0,0.0,0.0,0.0,0.0,0.0,0.0,0.0,0.0,0.0,0.0,0.0,0.0,0.0,0.0,0.0,0.0,0.0,0.0,0.0,0.0,0.0,0.0,0.0,0.0,0.0,0.0,0.0,0.0,0.0,0.0,0.0,0.0,-0.579,0.0,-0.609,0.0,-0.568,-0.5375,0.0,0.0,0.0,0.0,0.0,0.0,0.0,0.0,0.0,0.0,0.0,0.0,0.0,0.0,0.0,0.0,0.0,0.0,0.0,0.0,0.0,0.0,0.0,0.0,0.0,0.0,0.0,0.0,0.0,0.0,0.0,0.0,0.0,0.0,0.0,0.0,0.0,0.0,0.0,0.0,0.0,0.0,0.0,0.0,0.0,0.0,0.0,0.0,0.0,0.0,0.0,0.0,0.0,0.0,0.0,0.0,0.0,0.0,0.0,0.0,0.0,0.0,0.0,0.0,0.0,0.0,0.0,0.0,0.0,0.0,0.0,0.0,0.0,0.0,0.0,0.0,0.0,0.0,0.0,0.0,0.0,0.0,0.0,0.0,0.0,0.0,0.0,0.0,0.0,0.0,0.0,0.0,0.0,0.0,0.0,0.0,0.0,0.0,0.0,0.0,0.0,0.0,0.0,0.0,0.0,0.0,0.0,0.0,-0.3905,-0.4738,-0.4962,-0.5074,-0.5094,-0.5133,-0.5072,0.0,0.0,0.0,0.0,0.0,0.0,0.0,0.0,0.0,0.0,0.0,0.0,0.0,0.0,0.0,0.0,0.0,0.0,0.0,0.0,0.0,0.0,0.0,0.0,0.0,0.0,0.0,0.0,0.0,0.0,0.0,0.0,0.0,0.0,0.0,0.0,0.0,0.0,0.0,0.0,0.0,0.0,0.0,0.0,0.0,0.0,0.0,0.0,0.0,0.0,0.0,0.0,0.0,0.0,0.0,0.0,0.0,0.0,0.0,0.0,0.0,0.0,0.0,0.0,0.0,0.0,0.0,0.0,0.0,0.0,0.0,0.0,0.0,0.0,0.0,0.0,0.0,0.0,0.0,0.0,0.0,0.0,0.0,0.0,0.0,0.0,0.0,0.0,0.0,0.0,0.0,0.0,0.0,0.0,0.0,0.0,0.0,0.0,0.0,0.0,0.0,0.0,0.0,0.0,0.0,0.0,0.0,0.0,0.0,-0.3652,-0.3688,-0.381,-0.4135,-0.4209,-0.4316,0.0,0.0,0.0,0.0,0.0,0.0,0.0,0.0,0.0,0.0,0.0,0.0,0.0,0.0,0.0,0.0,0.0,0.0,0.0,0.0,0.0,0.0,0.0,0.0,0.0,0.0,0.0,0.0,0.0,0.0,0.0,0.0,0.0,0.0,0.0,0.0,0.0,0.0,0.0,0.0,0.0,0.0,0.0,0.0,0.0,0.0,0.0,0.0,0.0,0.0,0.0,0.0,0.0,0.0,0.0,0.0,0.0,0.0,0.0,0.0,0.0,0.0,0.0,0.0,0.0,0.0,0.0,0.0,0.0,0.0,0.0,0.0,0.0,0.0,0.0,0.0,0.0,0.0,0.0,0.0,0.0,0.0,0.0,0.0,0.0,0.0,0.0,0.0,0.0,0.0,0.0,0.0,0.0,0.0,0.0,0.0,0.0,0.0,0.0,0.0,0.0,0.0,0.0,0.0,0.0,0.0,0.0,0.0,0.0,-0.1981,-0.2345,-0.2741,-0.3227,-0.3379,-0.3645,-0.4091,0.0,0.0,0.0,0.0,0.0,0.0,0.0,0.0,0.0,0.0,0.0,0.0,0.0,0.0,0.0,0.0,0.0,0.0,0.0,0.0,0.0,0.0,0.0,0.0,0.0,0.0,0.0,0.0,0.0,0.0,0.0,0.0,0.0,0.0,0.0,0.0,0.0,0.0,0.0,0.0,0.0,0.0,0.0,0.0,0.0,0.0,0.0,0.0,0.0,0.0,0.0,0.0,0.0,0.0,0.0,0.0,0.0,0.0,0.0,0.0,0.0,0.0,0.0,0.0,0.0,0.0,0.0,0.0,0.0,0.0,0.0,0.0,0.0,0.0,0.0,0.0,0.0,0.0,0.0,0.0,0.0,0.0,0.0,0.0,0.0,0.0,0.0,0.0,0.0,0.0,0.0,0.0,0.0,0.0,0.0,0.0,0.0,0.0,0.0,0.0,0.0,0.0,0.0,0.0,0.0,0.0,0.0,0.0,0.0,-0.1066,-0.1856,-0.2369,-0.2649,-0.3056,0.0,0.0,0.0,0.0,0.0,0.0,0.0,0.0,0.0,0.0,0.0,0.0,0.0,0.0,0.0,0.0,0.0,0.0,0.0,0.0,0.0,0.0,0.0,0.0,0.0,0.0,0.0,0.0,0.0,0.0,0.0,0.0,0.0,0.0,0.0,0.0,0.0,0.0,0.0,0.0,0.0,0.0,0.0,0.0,0.0,0.0,0.0,0.0,0.0,0.0,0.0,0.0,0.0,0.0,0.0,0.0,0.0,0.0,0.0,0.0,0.0,0.0,0.0,0.0,0.0,0.0,0.0,0.0,0.0,0.0,0.0,0.0,0.0,0.0,0.0,0.0,0.0,0.0,0.0,0.0,0.0,0.0,0.0,0.0,0.0,0.0,0.0,0.0,0.0,0.0,0.0,0.0,0.0,0.0,0.0,0.0,0.0,0.0,0.0,0.0,0.0,0.0,0.0,0.0,0.0,0.0,0.0,0.0,0.0,0.0,-0.0317,-0.0694,-0.1238,-0.1558,-0.2101,0.0,0.0,0.0,0.0,0.0,0.0,0.0,0.0,0.0,0.0,0.0,0.0,0.0,0.0,0.0,0.0,0.0,0.0,0.0,0.0,0.0,0.0,0.0,0.0,0.0,0.0,0.0,0.0,0.0,0.0,0.0,0.0,0.0,0.0,0.0,0.0,0.0,0.0,0.0,0.0,0.0,0.0,0.0,0.0,0.0,0.0,0.0,0.0,0.0,0.0,0.0,0.0,0.0,0.0,0.0,0.0,0.0,0.0,0.0,0.0,0.0,0.0,0.0,0.0,0.0,0.0,0.0,0.0,0.0,0.0,0.0,0.0,0.0,0.0,0.0,0.0,0.0,0.0,0.0,0.0,0.0,0.0,0.0,0.0,0.0,0.0,0.0,0.0,0.0,0.0,0.0,0.0,0.0,0.0,0.0,0.0,0.0,0.0,0.0,0.0,0.0,0.0,0.0,0.0,0.0,0.0,0.0,0.0,0.0,0.0,0.0,-0.0132,-0.0498,-0.0813,-0.1489,0.0,0.0,0.0,0.0,0.0,0.0,0.0,0.0,0.0,0.0,0.0,0.0,0.0,0.0,0.0,0.0,0.0,0.0,0.0,0.0,0.0,0.0,0.0,0.0,0.0,0.0,0.0,0.0,0.0,0.0,0.0,0.0,0.0,0.0,0.0,0.0,0.0,0.0,0.0,0.0,0.0,0.0,0.0,0.0,0.0,0.0,0.0,0.0,0.0,0.0,0.0,0.0,0.0,0.0,0.0,0.0,0.0,0.0,0.0,0.0,0.0,0.0,0.0,0.0,0.0,0.0,0.0,0.0,0.0,0.0,0.0,0.0,0.0,0.0,0.0,0.0,0.0,0.0,0.0,0.0,0.0,0.0,0.0,0.0,0.0,0.0,0.0,0.0,0.0,0.0,0.0,0.0,0.0,0.0,0.0,0.0,0.0,0.0,0.0,0.0,0.0,0.0,0.0,0.0,0.0,0.0,0.0,0.0,0.0,0.0,0.0,0.0,0.0,-0.0422,-0.1046,0.0,0.0,0.0,0.0,0.0,0.0,0.0,0.0,0.0,0.0,0.0,0.0,0.0,0.0,0.0,0.0,0.0,0.0,0.0,0.0,0.0,0.0,0.0,0.0,0.0,0.0,0.0,0.0,0.0,0.0,0.0,0.0,0.0,0.0,0.0,0.0,0.0,0.0,0.0,0.0,0.0,0.0,0.0,0.0,0.0,0.0,0.0,0.0,0.0,0.0,0.0,0.0,0.0,0.0,0.0,0.0,0.0,0.0,0.0,0.0,0.0,0.0,0.0,0.0,0.0,0.0,0.0,0.0,0.0,0.0,0.0,0.0,0.0,0.0,0.0,0.0,0.0,0.0,0.0,0.0,0.0,0.0,0.0,0.0,0.0,0.0,0.0,0.0,0.0,0.0,0.0,0.0,0.0,0.0,0.0,0.0,0.0,0.0,0.0,0.0,0.0,0.0,0.0,0.0,0.0,0.0,0.0,0.0,0.0,0.0,0.0,0.0,0.0,-0.0124,-0.0567,0.0,0.0,0.0,0.0,0.0,0.0,0.0,0.0,0.0,0.0,0.0,0.0,0.0,0.0,0.0,0.0,0.0,0.0,0.0,0.0,0.0,0.0,0.0,0.0,0.0,0.0,0.0,0.0,0.0,0.0,0.0,0.0,0.0,0.0,0.0,0.0,0.0,0.0,0.0,0.0,0.0,0.0,0.0,0.0,0.0,0.0,0.0,0.0,-0.4728,0.0,0.0,0.0,0.0,0.0,0.0,0.0,0.0,0.0,0.0,0.0,0.0,0.0,0.0,0.0,0.0,0.0,0.0,0.0,0.0,0.0,0.0,0.0,0.0,0.0,0.0,0.0,0.0,0.0,0.0,0.0,0.0,0.0,0.0,0.0,0.0,0.0,0.0,0.0,0.0,0.0,0.0,0.0,0.0,0.0,0.0,0.0,0.0,0.0,0.0,0.0,0.0,0.0,0.0,0.0,0.0,0.0,0.0,0.0,0.0,0.0,0.0,0.0,0.0,0.0,-0.041,0.0,0.0,0.0,0.0,0.0,0.0,0.0,0.0,0.0,0.0,0.0,0.0,0.0,0.0,0.0,0.0,0.0,0.0,0.0,0.0,0.0,0.0,0.0,0.0,0.0,0.0,0.0,0.0,0.0,0.0,0.0,0.0,0.0,0.0,0.0,0.0,0.0,0.0,0.0,0.0,0.0,0.0,0.0,0.0,0.0,0.0,0.0,0.0,0.0,0.0,0.0,0.0,0.0,0.0,0.0,0.0,0.0,0.0,0.0,0.0,0.0,0.0,0.0,0.0,0.0,0.0,0.0,0.0,0.0,0.0,0.0,0.0,0.0,0.0,0.0,0.0,0.0,0.0,0.0,0.0,0.0,0.0,0.0,0.0,0.0,0.0,0.0,0.0,0.0,0.0,0.0,0.0,0.0,0.0,0.0,0.0,0.0,0.0,0.0,0.0,0.0,0.0,0.0,0.0,0.0,0.0,0.0,0.0,0.0,0.0,0.0,0.0,0.0,0.0,-0.0417,-0.1327,0.0,0.0,0.0,0.0,0.0,0.0,0.0,0.0,0.0,0.0,0.0,0.0,0.0,0.0,0.0,0.0,0.0,0.0,0.0,0.0,0.0,0.0,0.0,0.0,0.0,0.0,0.0,0.0,0.0,0.0,0.0,0.0,0.0,0.0,0.0,0.0,0.0,0.0,-0.1082,-0.1151,0.0,0.0,0.0,0.0,0.0,0.0,0.0,0.0,-0.4994,0.0,0.0,0.0,0.0,0.0,0.0,0.0,0.0,0.0,0.0,0.0,0.0,0.0,0.0,0.0,0.0,0.0,0.0,0.0,0.0,0.0,0.0,0.0,0.0,0.0,0.0,0.0,0.0,0.0,0.0,0.0,0.0,0.0,0.0,0.0,0.0,0.0,0.0,0.0,0.0,0.0,0.0,0.0,0.0,0.0,0.0,0.0,0.0,0.0,0.0,0.0,0.0,0.0,0.0,0.0,0.0,0.0,0.0,0.0,0.0,0.0,0.0,0.0,0.0,-0.0346,-0.1027,0.0,0.0,0.0,0.0,0.0,0.0,0.0,0.0,0.0,0.0,0.0,0.0,0.0,0.0,0.0,0.0,0.0,0.0,0.0,0.0,0.0,0.0,0.0,0.0,0.0,0.0,0.0,0.0,0.0,0.0,0.0,0.0,0.0,0.0,0.0,0.0,0.0,0.0,0.0,-0.1169,-0.1193,0.0,0.0,0.0,0.0,0.0,0.0,0.0,0.0,-0.5012,0.0,0.0,0.0,0.0,0.0,0.0,0.0,0.0,0.0,0.0,0.0,0.0,0.0,0.0,0.0,0.0,0.0,0.0,0.0,0.0,0.0,0.0,0.0,0.0,0.0,0.0,0.0,0.0,0.0,0.0,0.0,0.0,0.0,0.0,0.0,0.0,0.0,0.0,0.0,0.0,0.0,0.0,0.0,0.0,0.0,0.0,0.0,0.0,0.0,0.0,0.0,0.0,0.0,0.0,0.0,0.0,0.0,0.0,0.0,0.0,0.0,0.0,0.0,-0.028,0.0,0.0,0.0,0.0,0.0,0.0,0.0,0.0,0.0,0.0,0.0,0.0,0.0,0.0,0.0,0.0,0.0,0.0,0.0,0.0,0.0,0.0,0.0,0.0,0.0,0.0,0.0,0.0,0.0,0.0,0.0,0.0,0.0,0.0,0.0,0.0,0.0,0.0,0.0,0.0,-0.122,-0.1254,-0.1239,0.0,0.0,0.0,0.0,0.0,0.0,-0.3703,-0.3983,0.0,0.0,0.0,0.0,0.0,0.0,0.0,0.0,0.0,0.0,0.0,0.0,0.0,0.0,0.0,0.0,0.0,0.0,0.0,0.0,0.0,0.0,0.0,0.0,0.0,0.0,0.0,0.0,0.0,0.0,0.0,0.0,0.0,0.0,0.0,0.0,0.0,0.0,0.0,0.0,0.0,0.0,0.0,0.0,0.0,0.0,0.0,0.0,0.0,0.0,0.0,0.0,0.0,0.0,0.0,0.0,0.0,0.0,0.0,0.0,0.0,0.0,0.0,-0.0218,0.0,0.0,0.0,0.0,0.0,0.0,0.0,0.0,0.0,0.0,0.0,0.0,0.0,0.0,0.0,0.0,0.0,0.0,0.0,0.0,0.0,0.0,0.0,0.0,0.0,0.0,0.0,0.0,0.0,0.0,0.0,0.0,0.0,0.0,0.0,0.0,0.0,0.0,0.0,0.0,0.0,-0.1305,-0.1311,-0.1312,0.0,0.0,0.0,0.0,-0.2682,-0.2926,0.0,0.0,0.0,0.0,0.0,0.0,0.0,0.0,0.0,0.0,0.0,0.0,0.0,0.0,0.0,0.0,0.0,0.0,0.0,0.0,0.0,0.0,0.0,0.0,0.0,0.0,0.0,0.0,0.0,0.0,0.0,0.0,0.0,0.0,0.0,0.0,0.0,0.0,0.0,0.0,0.0,0.0,0.0,0.0,0.0,0.0,0.0,0.0,0.0,0.0,0.0,0.0,0.0,0.0,0.0,0.0,0.0,0.0,0.0,0.0,0.0,0.0,0.0,0.0,-0.0106,0.0,0.0,0.0,0.0,0.0,0.0,0.0,0.0,0.0,0.0,0.0,0.0,0.0,0.0,0.0,0.0,0.0,0.0,0.0,0.0,0.0,0.0,0.0,0.0,0.0,0.0,0.0,0.0,0.0,0.0,0.0,0.0,0.0,0.0,0.0,0.0,0.0,0.0,0.0,0.0,0.0,-0.1312,-0.1297,-0.1301,-0.1381,0.0,0.0,-0.2248,-0.2409,-0.2761,0.0,0.0,0.0,0.0,0.0,0.0,0.0,0.0,0.0,0.0,0.0,0.0,0.0,0.0,0.0,0.0,0.0,0.0,0.0,0.0,0.0,0.0,0.0,0.0,0.0,0.0,0.0,0.0,0.0,0.0,0.0,0.0,0.0,0.0,0.0,0.0,0.0,0.0,0.0,0.0,0.0,0.0,0.0,0.0,0.0,0.0,0.0,0.0,0.0,0.0,0.0,0.0,0.0,0.0,0.0,0.0,0.0,0.0,0.0,0.0,0.0,0.0,0.0,0.0,-0.0051,0.0,0.0,0.0,0.0,0.0,0.0,0.0,0.0,0.0,0.0,0.0,0.0,0.0,0.0,0.0,0.0,0.0,0.0,0.0,0.0,0.0,0.0,0.0,0.0,0.0,0.0,0.0,0.0,0.0,0.0,0.0,0.0,0.0,0.0,0.0,0.0,0.0,0.0,0.0,0.0,0.0,0.0,-0.135,-0.1368,0.0,0.0,0.0,-0.1773,-0.1815,0.0,0.0,0.0,0.0,0.0,0.0,0.0,0.0,0.0,0.0,0.0,0.0,0.0,0.0,0.0,0.0,0.0,0.0,0.0,0.0,0.0,0.0,0.0,0.0,0.0,0.0,0.0,0.0,0.0,0.0,0.0,0.0,0.0,0.0,0.0,0.0,0.0,0.0,0.0,0.0,0.0,0.0,0.0,0.0,0.0,0.0,0.0,0.0,0.0,0.0,0.0,0.0,0.0,0.0,0.0,0.0,0.0,0.0,0.0,0.0,0.0,0.0,0.0,0.0,0.0,0.0,0.0,0.0,0.0,0.0,0.0,0.0,0.0,0.0,0.0,0.0,0.0,0.0,0.0,0.0,0.0,0.0,0.0,0.0,0.0,0.0,0.0,0.0,0.0,0.0,0.0,0.0,-0.0202,0.0,0.0,0.0,0.0,0.0,0.0,0.0,0.0,0.0,0.0,0.0,0.0,0.0,0.0,-0.1396,-0.1395,-0.1466,-0.1475,0.0,0.0,-0.1412,-0.1412,-0.1388,-0.1294,0.0,0.0,0.0,0.0,0.0,0.0,0.0,0.0,0.0,0.0,0.0,0.0,0.0,0.0,0.0,0.0,0.0,0.0,0.0,0.0,0.0,0.0,0.0,0.0,0.0,0.0,0.0,0.0,0.0,0.0,0.0,0.0,0.0,0.0,0.0,0.0,0.0,0.0,0.0,0.0,0.0,0.0,0.0,0.0,0.0,0.0,0.0,0.0,0.0,0.0,0.0,0.0,0.0,0.0,0.0,0.0,0.0,0.0,0.0,0.0,0.0,0.0,0.0,0.0,0.0,0.0,0.0,0.0,0.0,0.0,0.0,0.0,0.0,0.0,0.0,0.0,0.0,0.0,0.0,0.0,0.0,0.0,0.0,0.0,0.0,0.0,0.0,0.0,0.0,0.0,0.0,0.0,0.0,0.0,0.0,0.0,0.0,0.0,0.0,0.0,0.0,0.0,0.0,0.0,0.0,-0.1339,-0.1466,-0.1479,-0.149,0.0,0.0,-0.1475,-0.1474,-0.1448,-0.139,-0.1312,0.0,0.0,0.0,0.0,0.0,0.0,0.0,0.0,0.0,0.0,0.0,0.0,0.0,0.0,0.0,0.0,0.0,0.0,0.0,0.0,0.0,0.0,0.0,0.0,0.0,0.0,0.0,0.0,0.0,0.0,0.0,0.0,0.0,0.0,0.0,0.0,0.0,0.0,0.0,0.0,0.0,0.0,0.0,0.0,0.0,0.0,0.0,0.0,0.0,0.0,0.0,0.0,0.0,0.0,0.0,0.0,0.0,0.0,0.0,0.0,0.0,0.0,0.0,0.0,0.0,0.0,0.0,0.0,0.0,0.0,0.0,0.0,0.0,0.0,0.0,0.0,0.0,0.0,0.0,0.0,0.0,0.0,0.0,0.0,0.0,0.0,0.0,0.0,0.0,0.0,0.0,-0.0056,-0.0111,-0.0196,0.0,0.0,0.0,0.0,0.0,0.0,0.0,0.0,0.0,0.0,-0.1007,-0.1241,-0.1276,0.0,0.0,-0.1528,-0.1502,-0.1483,-0.1336,-0.1221,-0.1245,-0.1105,0.0,0.0,0.0,0.0,0.0,0.0,0.0,0.0,0.0,0.0,0.0,0.0,0.0,0.0,0.0,0.0,0.0,0.0,0.0,0.0,0.0,0.0,0.0,0.0,0.0,0.0,0.0,0.0,0.0,0.0,0.0,0.0,0.0,0.0,0.0,0.0,0.0,0.0,0.0,0.0,0.0,0.0,0.0,0.0,0.0,0.0,0.0,0.0,0.0,0.0,0.0,0.0,0.0,0.0,0.0,0.0,0.0,0.0,0.0,0.0,0.0,0.0,0.0,0.0,0.0,0.0,0.0,0.0,0.0,0.0,0.0,0.0,0.0,0.0,0.0,0.0,0.0,0.0,0.0,0.0,0.0,0.0,0.0,0.0,0.0,0.0,0.0,0.0,0.0,0.0,0.0,-0.0029,-0.0139,0.0,0.0,0.0,0.0,0.0,0.0,0.0,0.0,0.0,0.0,-0.0758,-0.0975,-0.1105,-0.1277,-0.1474,-0.1497,-0.1465,-0.1381,-0.1232,-0.1081,-0.1124,0.0,0.0,0.0,0.0,0.0,0.0,0.0,0.0,0.0,0.0,0.0,0.0,0.0,0.0,0.0,0.0,0.0,0.0,0.0,0.0,0.0,0.0,0.0,0.0,0.0,0.0,0.0,0.4698,0.0,0.0,0.4302,0.0,0.0,0.0,0.0,0.0,0.0,0.0,0.0,0.0,0.0,0.0,0.0,0.0,0.0,0.0,0.0,0.0,0.0,0.0,0.0,0.0,0.0,0.0,0.0,0.0,0.0,0.0,0.0,0.0,0.0,0.0,0.0,0.0,0.0,0.0,0.0,0.0,0.0,0.0,0.0,0.0,0.0,0.0,0.0,0.0,0.0,0.0,0.0,0.0,0.0,0.0,0.0,0.0,0.0,0.0,0.0,0.0,0.0,0.0,0.0,0.0,0.0,0.0,0.0,0.0,0.0,0.0,0.0,0.0,0.0,0.0,0.0,-0.0646,-0.0728,-0.0805,-0.1018,-0.1177,-0.1227,-0.1352,-0.1411,-0.1175,-0.1102,-0.1064,0.0,0.0,0.0,0.0,0.0,0.0,0.0,0.0,0.0,0.0,0.0,0.0,0.0,0.0,0.0,0.0,0.0,0.0,0.0,0.0,0.0,0.0,0.0,0.0,0.0,0.0,0.0,0.5436,0.5249,0.0,0.0,0.0,0.0,0.0,0.0,0.0,0.0,0.0,0.0,0.0,0.4606,0.4143,0.0,0.0,0.0,0.0,0.0,0.0,0.0,0.0,0.0,0.0,0.0,0.0,0.0,0.0,0.0,0.0,0.0,0.0,0.0,0.0,0.0,0.0,0.0,0.0,0.0,0.0,0.0,0.0,0.0,0.0,0.0,0.0,0.0,0.0,0.0,0.0,0.0,0.0,0.0,0.0,0.0,0.0,0.0,0.0,0.0,0.0,0.0,0.0,0.0,0.0,0.0,0.0,0.0,0.0,0.0,0.0,0.0,0.0,0.0,0.0,-0.0186,-0.0201,-0.0216,-0.0318,-0.0512,-0.0618,-0.0722,0.0,0.0,0.0,0.0,0.0,0.0,0.0,0.0,0.0,0.0,0.0,0.0,0.0,0.0,-0.1819,-0.2596,-0.2864,-0.3132,-0.3578,0.0,0.0,0.0,0.0,0.0,0.0,0.0,0.0,0.0,0.0,0.0,0.0,0.0,0.0,0.5926,0.0,0.5689,0.0,0.0,0.0,0.0,0.0,0.0,0.0,0.0,0.6007,0.5852,0.5698,0.5342,0.5112,0.0,0.4986,0.4451,0.0,0.0,0.0,0.0,0.0,0.0,0.0,0.0,0.0254,0.028,0.0254,0.0267,0.0271,0.0271,0.0269,0.0264,0.0302,0.0281,0.0296,0.0274,0.0217,0.0,0.0,0.0,0.0,0.0,0.0,0.0,0.0,0.0,0.0,0.0,0.0,0.0,0.0,0.0,0.0,0.0,0.0,0.0,0.0,0.0,0.0,0.0,0.0,0.0,0.0,0.0,0.0,0.0,0.0,0.0,0.0,0.0,0.0,0.0,0.0,0.0,0.0,-0.0091,-0.0233,0.0,0.0,0.0,0.0,0.0,0.0,0.0,-0.0503,-0.0784,-0.0728,-0.0801,-0.126,-0.1311,-0.1322,-0.1331,0.0,0.0,-0.2225,-0.2508,-0.2793,-0.3222,-0.3463,-0.3779,-0.4462,-0.4565,-0.466,0.0,0.0,0.0,0.0,0.0,0.0,0.0,0.0,0.653,0.6562,0.0,0.6208,0.0,0.0,0.0,0.0,0.0,0.5939,0.0,0.0,0.6872,0.6991,0.6978,0.681,0.6806,0.6806,0.6737,0.6347,0.5584,0.3396,0.0,0.0,0.0,0.0,0.0,0.0,0.0791,0.0903,0.0908,0.0891,0.0905,0.0906,0.0899,0.0881,0.087,0.0919,0.0896,0.0827,0.0648,0.0458,0.0367,0.0,0.0,0.0,0.0,0.0,0.0,0.0,0.0,0.0,0.0,0.0,0.0,0.0,0.0,0.0,0.0,0.0,0.0,0.0,0.0,0.0,0.0,0.0,0.0,0.0,0.0,0.0,0.0,0.0,0.0,0.0,0.0,0.0,0.0,0.0,0.0,0.0,0.0,0.0,-0.0392,-0.0392,-0.0588,-0.0673,-0.0454,-0.0404,-0.0443,-0.0682,0.0,0.0,-0.1349,-0.137,-0.1319,-0.1386,-0.1391,-0.1383,-0.1356,-0.1724,-0.2084,-0.2371,-0.2753,-0.3121,-0.3487,-0.3683,-0.3714,0.7799,0.0,0.0,0.0,0.0,0.7026,0.698,0.695,0.704,0.6983,0.6988,0.67,0.0,0.0,0.0,0.0,0.0,0.0,0.6616,0.6885,0.7037,0.7161,0.7161,0.7122,0.701,0.6931,0.6844,0.6523,0.5929,0.4826,0.3904,0.3184,0.0,0.0,0.0,0.0,0.2342,0.2376,0.2451,0.2494,0.2506,0.2506,0.2485,0.2542,0.2503,0.2465,0.2381,0.2042,0.1622,0.1114,0.0775,0.0,0.0,0.0,0.0,0.0,0.0,0.0,0.0,0.0,0.0,0.0,0.0,0.0,0.0,0.0,0.0,0.0,0.0,0.0,0.0,0.0,0.0,0.0,0.0,0.0,0.0,0.0,0.0,0.0,0.0,0.0,0.0,0.0,0.0,0.0,0.0,0.0,0.0,-0.0096,-0.0144,-0.0096,-0.0192,0.0,-0.0141,-0.0139,-0.0275,-0.0691,-0.1065,-0.1295,-0.1458,-0.1448,-0.1438,-0.1425,-0.1423,-0.1375,-0.1412,-0.1566,-0.1891,-0.2262,-0.2527,-0.2889,-0.335,-0.3449,-0.351,0.8378,0.7918,0.7692,0.7539,0.7503,0.755,0.7569,0.7569,0.7571,0.7596,0.7565,0.7285,0.7048,0.6791,0.6518,0.0,0.0,0.0,0.6937,0.7127,0.7195,0.7225,0.7222,0.7179,0.7174,0.7103,0.6931,0.6721,0.6379,0.5849,0.5329,0.4775,0.0,0.0,0.3294,0.3337,0.3314,0.3403,0.3441,0.3535,0.3535,0.351,0.3476,0.3488,0.3397,0.3311,0.323,0.2815,0.2288,0.1677,0.1274,0.0775,0.0,0.0,0.0,0.0,0.0,0.0,0.0,0.0,0.0,0.0,0.0,0.0,0.0,0.0,0.0,0.0,0.0,0.0,0.0,0.0,0.0,0.0,0.0,0.0,0.0,0.0,0.0,0.0,0.0,0.0,0.0,0.0,0.0,0.0,0.0,0.0,0.0,0.0,0.0,0.0,0.0,0.0,0.0,0.0,-0.019,-0.0722,-0.1095,-0.1366,-0.1501,-0.148,-0.1457,-0.144,-0.1391,-0.1391,-0.1391,-0.1509,-0.1628,-0.1892,-0.2048,-0.2256,-0.2545,-0.2594,-0.2649,0.8728,0.8587,0.8253,0.8027,0.7913,0.8081,0.8128,0.813,0.8117,0.8117,0.8129,0.7853,0.763,0.7475,0.7043,0.0,0.7018,0.7188,0.7236,0.7277,0.7277,0.7271,0.7315,0.7206,0.721,0.7204,0.7037,0.6921,0.6793,0.6562,0.6393,0.6271,0.4688,0.397,0.4064,0.4031,0.4063,0.4161,0.4193,0.4182,0.4173,0.4104,0.4062,0.4055,0.3915,0.3788,0.377,0.3398,0.2877,0.2273,0.1863,0.1381,0.0784,0.0,0.0,0.0,0.0,0.0,0.0,0.0,0.0,0.0,0.0,0.0,0.0,0.0,0.0,0.0,0.0,0.0,0.0,0.0,0.0,0.0,0.0,0.0,0.0,0.0,0.0,0.0,0.0,0.0,0.0,0.0,0.0,0.0,0.0,0.0,0.0,0.0,0.0,0.0,0.0,0.0,0.0,0.0,0.0,-0.0686,-0.0952,-0.1173,-0.137,-0.1432,-0.1398,-0.1346,-0.1391,-0.1391,-0.1391,-0.1389,-0.1391,-0.1434,-0.1433,-0.1433,-0.1523,-0.1522,-0.1523,0.8976,0.8782,0.8674,0.8426,0.8155,0.8179,0.8193,0.8185,0.8092,0.8133,0.8079,0.7818,0.7581,0.7372,0.7201,0.7225,0.7201,0.7377,0.7399,0.728,0.7277,0.7285,0.7198,0.7224,0.721,0.7202,0.704,0.6923,0.6798,0.6649,0.6516,0.6341,0.5904,0.5653,0.5576,0.5656,0.5724,0.573,0.5782,0.58,0.577,0.5743,0.5688,0.5603,0.5551,0.5398,0.5193,0.4756,0.4212,0.3494,0.3044,0.2537,0.2057,0.1638,0.0,0.0,0.0,0.0,0.0,0.0,0.0,0.0,0.0,0.0,0.0,0.0,0.0,0.0,0.0,0.0,0.0,0.0,0.0,0.0,0.0,0.0,0.0,0.0,0.0,0.0,0.0,0.0,0.0,0.0,0.0,0.0,0.0,0.0,0.0,0.0,0.0,0.0,0.0,0.0,0.0,-0.0201,-0.0349,-0.0492,-0.0682,-0.0865,-0.0936,-0.1064,-0.1188,-0.1171,-0.1301,-0.1391,-0.1391,-0.1391,-0.1391,-0.1391,-0.1391,-0.1391,-0.1391,-0.1391,-0.1391,0.9033,0.8864,0.8799,0.8622,0.8394,0.8391,0.8364,0.8307,0.8187,0.8103,0.8103,0.7858,0.7703,0.7576,0.7573,0.7573,0.7576,0.7592,0.7562,0.7494,0.7385,0.7298,0.7233,0.7179,0.721,0.7207,0.704,0.6923,0.6801,0.6676,0.6556,0.6384,0.6374,0.6309,0.6246,0.6309,0.6295,0.6342,0.6355,0.6331,0.6317,0.6162,0.612,0.6005,0.5901,0.5787,0.5613,0.5201,0.468,0.41,0.3651,0.3197,0.2776,0.2369,0.1905,0.0,0.0,0.0,0.0,0.0,0.0,0.0,0.0,0.0,0.0,0.0,0.0,0.0,0.0,0.0,0.0,0.0,0.0,0.0,0.0,0.0,0.0,0.0,0.0,0.0,0.0,0.0,0.0,0.0,0.0,0.0,0.0,0.0,0.0,0.0,0.0,0.0,0.0,0.0,0.0,-0.015,-0.0248,-0.0389,-0.0529,-0.0664,-0.0789,-0.0964,-0.1091,-0.1124,-0.1256,-0.1391,-0.1391,-0.1391,-0.1391,-0.1391,-0.1391,-0.1391,-0.1391,-0.1391,-0.1391,0.8962,0.8769,0.8753,0.8677,0.8565,0.8565,0.8511,0.8407,0.8269,0.8144,0.8086,0.7977,0.7933,0.7933,0.7933,0.7933,0.7864,0.7752,0.7695,0.7665,0.7382,0.7269,0.7307,0.7206,0.7202,0.7182,0.7032,0.6912,0.6777,0.6671,0.6559,0.6392,0.6387,0.6387,0.6381,0.6323,0.6312,0.6388,0.6295,0.6287,0.627,0.6013,0.5888,0.585,0.5613,0.5491,0.5456,0.5139,0.4781,0.4395,0.4076,0.372,0.3332,0.3007,0.2553,0.0,0.1677,0.0,0.0,0.0,0.0,0.0,0.0,0.0,0.0,0.0,0.0,0.0,0.0,0.0,0.0,0.0,0.0,0.0,0.0,0.0,0.0,0.0,0.0,0.0,0.0,0.0,0.0,0.0,0.0,0.0,0.0,0.0,0.0,0.0,0.0,0.0,0.0,0.0,0.0,0.0,-0.0097,-0.0286,-0.0328,-0.0416,-0.0645,-0.0863,-0.1032,-0.1076,-0.1211,-0.1391,-0.1391,-0.1391,-0.1389,-0.1384,-0.1382,-0.1384,-0.1389,-0.1391,-0.1391,0.8812,0.8761,0.8663,0.8554,0.8451,0.8448,0.844,0.8402,0.8182,0.8081,0.7966,0.7883,0.7933,0.7933,0.7933,0.7933,0.7925,0.7752,0.7649,0.7546,0.7344,0.7282,0.7245,0.7221,0.7161,0.7021,0.6997,0.6872,0.6654,0.6632,0.6556,0.6389,0.6387,0.6387,0.6381,0.0,0.0,0.0,0.613,0.6072,0.5975,0.5926,0.5812,0.5583,0.5532,0.0,0.5265,0.517,0.5066,0.4896,0.481,0.0,0.0,0.0,0.0,0.0,0.0,0.0,0.0,0.0,0.0,0.0,0.1821,0.1233,0.0345,0.0107,0.0,0.0,0.0,0.0,0.0,0.0,0.0,0.0,0.0,0.0,0.0,0.0,0.0,0.0,0.0,0.0,0.0,0.0,0.0,0.0,0.0,0.0,0.0,0.0,0.0,0.0,0.0,0.0,0.0,0.0,0.0,-0.0093,-0.0093,0.0,0.0,-0.0541,-0.0762,-0.0807,-0.1121,-0.1391,-0.1391,-0.1391,-0.1383,-0.1403,-0.1399,-0.1406,-0.1385,-0.139,-0.1391,0.8734,0.0,0.8614,0.8522,0.0,0.8353,0.8293,0.8231,0.8169,0.8045,0.7933,0.7933,0.7933,0.793,0.7812,0.7788,0.7777,0.7603,0.7486,0.7423,0.7304,0.7214,0.721,0.7152,0.704,0.698,0.6864,0.6741,0.6619,0.6508,0.6446,0.6387,0.6387,0.6387,0.6381,0.6265,0.6146,0.6086,0.6026,0.5964,0.5904,0.5847,0.5718,0.5599,0.0,0.0,0.0,0.0,0.0,0.0,0.0,0.0,0.0,0.0,0.0,0.393,0.3523,0.3143,0.2799,0.2752,0.283,0.2904,0.2371,0.1601,0.0579,0.0195,0.0,0.0,0.0,0.0,0.0,0.0,0.0,0.0,0.0,0.0,0.0,0.0,0.0,0.0,0.0,0.0,0.0,0.0,0.0,0.0,0.0,0.0,0.0,0.0,0.0,0.0,0.0,0.0,0.0,0.0,0.0,0.0,0.0,0.0,0.0,-0.0314,-0.0583,-0.0673,-0.1031,-0.1301,-0.1391,-0.1391,-0.1426,-0.1398,-0.139,-0.1388,-0.135,-0.1348,-0.1348,0.8679,0.8587,0.8587,0.8511,0.8378,0.8213,0.8155,0.8084,0.0,0.0,0.0,0.7933,0.7933,0.7864,0.7752,0.7703,0.7687,0.7387,0.7277,0.7274,0.7211,0.721,0.7207,0.704,0.6972,0.6942,0.6728,0.6608,0.6532,0.6435,0.6387,0.6387,0.6387,0.6365,0.6311,0.6162,0.6043,0.6018,0.5926,0.5874,0.5869,0.5737,0.5677,0.5656,0.5507,0.5382,0.5336,0.5151,0.5037,0.5018,0.5018,0.5018,0.4976,0.4821,0.4586,0.4239,0.4024,0.3773,0.3449,0.3462,0.3538,0.3544,0.2895,0.2027,0.0969,0.0374,0.0083,0.0085,0.0043,0.0,0.0,0.0,0.0,0.0,0.0,0.0,0.0,0.0,0.0,0.0,0.0,0.0,0.0,0.0,0.0,0.0,0.0,0.0,0.0,0.0,0.0,0.0,0.0,0.0,0.0,0.0,0.0,0.0,0.0,0.0,0.0,-0.0224,-0.0448,-0.0583,-0.0897,-0.1122,-0.1301,-0.1391,-0.1378,-0.1389,-0.1382,-0.1372,-0.13,-0.1295,-0.1304,0.86,0.8587,0.8587,0.8462,0.8261,0.8242,0.8106,0.796,0.7958,0.7949,0.7933,0.7933,0.7933,0.7925,0.7752,0.7703,0.7684,0.739,0.7277,0.7271,0.7211,0.721,0.7204,0.7092,0.6929,0.6823,0.6684,0.6564,0.6419,0.6395,0.6387,0.6387,0.6387,0.6287,0.614,0.5999,0.588,0.5742,0.5721,0.5712,0.5712,0.5696,0.5637,0.5537,0.5499,0.5423,0.5219,0.5178,0.5118,0.5023,0.5018,0.5018,0.5021,0.5049,0.5089,0.5039,0.5127,0.5137,0.5037,0.5071,0.4929,0.4612,0.413,0.317,0.1685,0.0811,0.0345,0.0347,0.0132,0.0,0.0,0.0,0.0,0.0,0.0,0.0,0.0,0.0,0.0,0.0,0.0,0.0,0.0,0.0,0.0,0.0,0.0,0.0,0.0,0.0,0.0,0.0,0.0,0.0,0.0,0.0,0.0,0.0,0.0,0.0,0.0,0.0,-0.0404,-0.0448,-0.0807,-0.1076,-0.1166,-0.1301,-0.137,-0.133,-0.1318,-0.13,-0.1296,-0.1301,-0.1328,0.8587,0.8587,0.8587,0.8451,0.8161,0.8095,0.7975,0.7933,0.7933,0.7933,0.7933,0.7933,0.7933,0.7856,0.7682,0.7603,0.7592,0.7347,0.7236,0.7233,0.7179,0.7122,0.7054,0.6942,0.6823,0.67,0.6578,0.6441,0.6389,0.6387,0.6387,0.6381,0.6377,0.6225,0.5996,0.5931,0.5847,0.5694,0.5688,0.5688,0.5688,0.5688,0.5664,0.5605,0.5526,0.5404,0.5331,0.5162,0.5069,0.5018,0.5018,0.5018,0.5021,0.5067,0.5121,0.5181,0.5238,0.5339,0.5407,0.5431,0.532,0.5028,0.4646,0.3997,0.296,0.1714,0.0841,0.0575,0.0223,0.0,0.0,0.0,0.0,0.0,0.0,0.0,0.0,0.0,0.0,0.0,0.0,0.0,0.0,0.0,0.0,0.0,0.0,0.0,0.0,0.0,0.0,0.0,0.0,0.0,0.0,0.0,0.0,0.0,0.0,0.0,0.0,0.0,0.0,-0.0359,-0.0673,-0.0942,-0.1076,-0.1256,-0.137,-0.1386,-0.1327,-0.1351,-0.1322,-0.1329,-0.1358,0.8587,0.8587,0.856,0.8413,0.8176,0.7964,0.7933,0.7933,0.7933,0.7933,0.7933,0.7933,0.7858,0.7812,0.7611,0.7502,0.7448,0.7308,0.721,0.721,0.721,0.7147,0.698,0.6858,0.6738,0.6616,0.6443,0.6387,0.6387,0.6387,0.6371,0.6391,0.6285,0.6119,0.5907,0.5877,0.5822,0.5694,0.5688,0.5688,0.5688,0.5688,0.5688,0.5675,0.5526,0.5451,0.5398,0.5208,0.5083,0.5059,0.5056,0.5045,0.5018,0.5003,0.5094,0.5178,0.5238,0.5322,0.5445,0.5537,0.5461,0.5328,0.5095,0.4696,0.4117,0.2865,0.1704,0.1031,0.0494,0.0,0.0,0.0,0.0,0.0,0.0045,0.0,0.0,0.0,0.0,0.0,0.0,0.0,0.0,0.0,0.0,0.0,0.0,0.0,0.0,0.0,0.0,0.0,0.0,0.0,0.0,0.0,0.0,0.0,0.0,0.0,0.0,0.0,0.0,-0.0269,-0.0538,-0.0762,-0.0987,-0.1256,-0.1377,-0.1395,-0.1386,-0.1381,-0.1319,-0.137,-0.1387,0.8587,0.8571,0.8481,0.8293,0.8068,0.7926,0.7933,0.7933,0.7933,0.7933,0.7864,0.7933,0.7812,0.7709,0.7576,0.7456,0.7353,0.7214,0.721,0.721,0.721,0.7095,0.6975,0.6858,0.6736,0.6613,0.6441,0.6387,0.6387,0.6431,0.6382,0.6331,0.6162,0.6037,0.5904,0.5756,0.5699,0.5691,0.5688,0.5688,0.5688,0.5688,0.5688,0.5688,0.5559,0.5489,0.5478,0.5407,0.5284,0.5184,0.517,0.5124,0.5045,0.5116,0.5175,0.52,0.5351,0.5526,0.5637,0.5667,0.5667,0.5672,0.5589,0.5371,0.4921,0.4342,0.336,0.2062,0.1076,0.0718,0.0628,0.0493,0.0404,0.0359,0.0135,0.0,0.0,0.0,0.0,0.0,0.0,0.0,0.0,0.0,0.0,0.0,0.0,0.0,0.0,0.0,0.0,0.0,0.0,0.0,0.0,0.0,0.0,0.0,0.0,0.0,0.0,0.0,0.0,0.0,-0.0404,-0.0673,-0.0807,-0.1076,-0.1381,-0.1406,-0.1395,-0.139,-0.1386,-0.1391,-0.1394,0.8587,0.8579,0.8465,0.8277,0.8117,0.7985,0.7933,0.7933,0.7933,0.7837,0.7774,0.7769,0.7744,0.769,0.75,0.7323,0.7271,0.7211,0.721,0.7202,0.7141,0.6991,0.6872,0.6752,0.663,0.6518,0.6408,0.6387,0.6376,0.6369,0.6276,0.6205,0.6037,0.592,0.5806,0.5712,0.5688,0.5688,0.5688,0.5688,0.5688,0.5688,0.5688,0.5669,0.5548,0.548,0.5478,0.5366,0.5271,0.5292,0.5336,0.5276,0.5227,0.5271,0.5328,0.5359,0.5518,0.5634,0.5686,0.5688,0.5688,0.5688,0.5688,0.5552,0.5235,0.4786,0.416,0.3358,0.2509,0.1882,0.1568,0.121,0.0897,0.0628,0.0,0.0,0.0,0.0,0.0,0.0,0.0,0.0,0.0,0.0,0.0,0.0,0.0,0.0,0.0,0.0,0.0,0.0,0.0,0.0,0.0,0.0,0.0,0.0,0.0,0.0,0.0,0.0,0.0,0.0,0.0,-0.0583,-0.0718,-0.0942,-0.1251,-0.1327,-0.1416,-0.1416,-0.1417,-0.1417,-0.1417,0.8568,0.8522,0.838,0.8195,0.8062,0.7907,0.7933,0.7864,0.7837,0.7777,0.7698,0.7633,0.76,0.7576,0.7413,0.732,0.7277,0.7195,0.721,0.7196,0.7037,0.6921,0.6798,0.6679,0.6503,0.6403,0.6389,0.6387,0.6423,0.6323,0.6254,0.6089,0.5996,0.588,0.5707,0.5715,0.5721,0.5691,0.5688,0.5688,0.5686,0.5656,0.564,0.5621,0.548,0.5426,0.5494,0.5276,0.5243,0.5402,0.5383,0.5344,0.5276,0.5342,0.5388,0.5494,0.5588,0.5656,0.5686,0.5688,0.5688,0.5688,0.5688,0.5644,0.5463,0.5146,0.4921,0.4656,0.403,0.3358,0.2463,0.1927,0.1434,0.1031,0.0494,0.0135,0.0,0.0045,0.0,0.0,0.0,0.0,0.0,0.0,0.0,0.0,0.0,0.0,0.0,0.0,0.0,0.0,0.0,0.0,0.0,0.0,0.0,0.0,0.0,0.0,0.0,0.0,0.0,0.0,0.0,-0.0404,-0.0583,-0.0807,-0.1166,-0.1346,-0.139,-0.1389,-0.1387,-0.1389,-0.139,0.8524,0.8397,0.8171,0.807,0.788,0.7875,0.7933,0.7925,0.7761,0.7706,0.7663,0.7462,0.7298,0.7358,0.7334,0.7271,0.7229,0.7215,0.721,0.7199,0.7032,0.6918,0.6801,0.6676,0.6551,0.6392,0.6387,0.6387,0.6431,0.6323,0.6208,0.6089,0.6072,0.5958,0.5734,0.5833,0.5839,0.5699,0.5688,0.5686,0.5672,0.5575,0.5521,0.5494,0.5434,0.5417,0.5462,0.5314,0.5241,0.5407,0.5309,0.5159,0.5069,0.5151,0.5322,0.5475,0.5516,0.5572,0.5672,0.5688,0.5688,0.5688,0.5688,0.5688,0.5688,0.5599,0.5552,0.5599,0.5419,0.4792,0.3449,0.2739,0.2157,0.1753,0.0943,0.0494,0.0359,0.0135,0.0,0.0,0.0,0.0,0.0,0.0,0.0,0.0,0.0,0.0,0.0,0.0,0.0,0.0,0.0,0.0,0.0,0.0,0.0,0.0,0.0,0.0,0.0,0.0,0.0,0.0,0.0,-0.0359,-0.0448,-0.0718,-0.1121,-0.1301,-0.1391,-0.1391,-0.1391,-0.1391,-0.1391,0.8473,0.8224,0.8122,0.8045,0.7875,0.7933,0.7933,0.7858,0.7752,0.7655,0.7565,0.7347,0.7293,0.722,0.722,0.7198,0.7213,0.721,0.721,0.7188,0.6956,0.6844,0.6787,0.66,0.6435,0.6395,0.6387,0.6387,0.6373,0.6323,0.6206,0.6105,0.6086,0.5969,0.575,0.5844,0.5847,0.5702,0.5688,0.5653,0.5583,0.5529,0.5437,0.5325,0.5276,0.5309,0.5428,0.5273,0.5284,0.5407,0.5328,0.5325,0.526,0.5355,0.5413,0.5502,0.5578,0.5642,0.568,0.5688,0.5688,0.5688,0.5688,0.5694,0.5688,0.5688,0.5688,0.5688,0.5688,0.5285,0.4759,0.4027,0.3378,0.2604,0.1736,0.1,0.063,0.0,0.0,0.0,0.0,0.0,0.0,0.0,0.0,0.0,0.0,0.0,0.0,0.0,0.0,0.0,0.0,0.0,0.0,0.0,0.0,0.0,0.0,0.0,0.0,0.0,0.0,0.0,0.0,-0.0269,-0.0404,-0.0718,-0.1076,-0.1346,-0.1391,-0.1391,-0.1391,-0.1391,-0.1391,0.8835,0.8539,0.8185,0.7948,0.7936,0.7933,0.785,0.7804,0.7693,0.7573,0.7453,0.7331,0.723,0.7218,0.721,0.721,0.721,0.721,0.721,0.7188,0.6912,0.6804,0.6763,0.6551,0.6387,0.6387,0.6387,0.6387,0.6368,0.6282,0.6168,0.6092,0.6086,0.5966,0.575,0.5885,0.5893,0.5765,0.5688,0.5645,0.5567,0.5486,0.5417,0.5262,0.5175,0.5189,0.5303,0.5235,0.5186,0.5328,0.5276,0.5312,0.5314,0.5426,0.5467,0.5513,0.5623,0.5688,0.5688,0.5688,0.5704,0.5742,0.5787,0.5742,0.5745,0.579,0.5773,0.5704,0.5691,0.566,0.5569,0.5223,0.4553,0.3475,0.2461,0.1671,0.1192,0.0642,0.0,0.0,0.0,0.0,0.0,0.0,0.0,0.0,0.0,0.0,0.0,0.0,0.0,0.0,0.0,0.0,0.0,0.0,0.0,0.0,0.0,0.0,0.0,0.0,0.0,0.0,0.0,0.0,-0.0449,-0.0762,-0.1031,-0.1301,-0.1391,-0.1391,-0.1391,-0.1391,-0.1391,0.9573,0.9139,0.8282,0.788,0.7933,0.7933,0.7809,0.7706,0.7581,0.747,0.7296,0.7217,0.7224,0.721,0.721,0.721,0.721,0.721,0.7202,0.7169,0.6907,0.6798,0.6771,0.6545,0.6387,0.6387,0.6387,0.6387,0.6376,0.623,0.6111,0.6092,0.61,0.5983,0.5694,0.5939,0.5961,0.5784,0.5688,0.5683,0.5659,0.551,0.5382,0.5366,0.5148,0.5091,0.5181,0.5083,0.508,0.5159,0.5094,0.5078,0.5186,0.5311,0.5426,0.5494,0.5615,0.5683,0.5688,0.5699,0.5753,0.586,0.5893,0.5882,0.588,0.5885,0.5804,0.5731,0.5729,0.5788,0.6018,0.5981,0.5482,0.4278,0.3205,0.2473,0.1995,0.1332,0.0709,0.0509,0.0455,0.027,0.0,0.0,0.0,0.0,0.0,0.0,0.0,0.0,0.0,0.0,0.0,0.0,0.0,0.0,0.0,0.0,0.0,0.0,0.0,0.0,0.0,0.0,0.0,0.0,0.0,-0.0718,-0.0942,-0.1166,-0.1256,-0.1391,-0.1391,-0.1391,-0.1391,0.9766,0.9027,0.8245,0.7933,0.7933,0.7933,0.7807,0.7693,0.757,0.7451,0.7328,0.7262,0.721,0.721,0.721,0.721,0.721,0.7207,0.7172,0.7021,0.6874,0.6755,0.666,0.6462,0.6387,0.6387,0.6387,0.6387,0.6357,0.6282,0.6221,0.6113,0.6216,0.6037,0.5768,0.5956,0.5969,0.5718,0.5688,0.565,0.5572,0.5491,0.542,0.5254,0.517,0.5121,0.5069,0.5034,0.5034,0.5072,0.5037,0.5034,0.5097,0.526,0.5382,0.5442,0.5624,0.5688,0.5699,0.5809,0.5863,0.5896,0.5904,0.5901,0.5901,0.5907,0.5893,0.5863,0.5923,0.6021,0.6081,0.6168,0.5893,0.52,0.4498,0.3766,0.3207,0.2432,0.1792,0.1299,0.0919,0.0502,0.0,0.0,0.0,0.0,0.0,0.0,0.0,0.0,0.0,0.0,0.0,0.0,0.0,0.0,0.0,0.0,0.0,0.0,0.0,0.0,0.0,0.0,0.0,0.0,0.0,-0.0628,-0.0852,-0.1076,-0.1211,-0.1301,-0.1391,-0.1391,-0.1346,1.0186,0.9343,0.8351,0.7933,0.7933,0.7933,0.778,0.7638,0.7554,0.7426,0.7274,0.7245,0.721,0.721,0.721,0.721,0.7207,0.7169,0.7029,0.6923,0.6847,0.6736,0.6616,0.6443,0.6387,0.6387,0.6387,0.6387,0.6379,0.6279,0.6159,0.6111,0.6119,0.6026,0.5828,0.5977,0.5986,0.582,0.575,0.5691,0.5591,0.5532,0.5435,0.5333,0.5235,0.5154,0.5083,0.5,0.5018,0.5018,0.5018,0.5034,0.5089,0.5306,0.5448,0.5526,0.5678,0.5817,0.5863,0.5934,0.5969,0.5969,0.5969,0.5972,0.5972,0.5969,0.5969,0.5986,0.6032,0.6102,0.6154,0.6217,0.6184,0.5937,0.5293,0.4675,0.3992,0.3284,0.2577,0.202,0.1487,0.0917,0.0452,0.0269,0.0225,0.0182,0.0138,0.0047,0.0,0.0,0.0,0.0,0.0,0.0,0.0,0.0,0.0,0.0,0.0,0.0,0.0,0.0,0.0,0.0,0.0,0.0,-0.0359,-0.0493,-0.0628,-0.0852,-0.1076,-0.1121,-0.1166,-0.1256,-0.1256,1.0718,0.9895,0.8532,0.7933,0.7933,0.7933,0.7741,0.7546,0.7521,0.7385,0.7254,0.7215,0.721,0.721,0.721,0.721,0.7191,0.7043,0.694,0.6842,0.6782,0.6706,0.6532,0.6433,0.6389,0.6387,0.6387,0.6387,0.6376,0.6236,0.6092,0.6081,0.6005,0.5918,0.5915,0.6024,0.6029,0.5931,0.5912,0.5858,0.5699,0.5599,0.5518,0.5483,0.5341,0.5224,0.5189,0.5118,0.5053,0.5031,0.5056,0.5118,0.5208,0.5328,0.5534,0.5719,0.5847,0.5953,0.6048,0.6059,0.6067,0.6067,0.6067,0.6086,0.607,0.6081,0.6097,0.6144,0.6121,0.6168,0.6255,0.6287,0.6284,0.631,0.577,0.5066,0.4321,0.3959,0.3498,0.2811,0.22,0.1746,0.1082,0.0943,0.0726,0.0551,0.0464,0.0285,0.0,0.0,0.0,0.0,0.0,0.0,0.0,0.0,0.0,0.0,0.0,0.0,0.0,0.0,0.0,0.0,0.0,0.0,-0.0269,-0.0359,-0.0448,-0.0673,-0.0807,-0.0852,-0.0942,-0.1031,-0.1166,1.0649,0.9757,0.8433,0.7933,0.7933,0.7933,0.7733,0.7532,0.7516,0.7377,0.7248,0.721,0.721,0.721,0.721,0.721,0.7182,0.7032,0.6918,0.6801,0.6703,0.6603,0.6454,0.6406,0.6387,0.6387,0.6387,0.6387,0.6376,0.6285,0.6221,0.6089,0.6043,0.5983,0.5937,0.6024,0.6067,0.6043,0.6034,0.5977,0.5874,0.5828,0.5675,0.551,0.5445,0.5409,0.5336,0.5336,0.523,0.5194,0.5273,0.5333,0.5413,0.5635,0.5773,0.5866,0.5969,0.6048,0.6078,0.6092,0.6089,0.6086,0.6086,0.6086,0.6089,0.617,0.6211,0.6281,0.6287,0.6347,0.6385,0.6388,0.636,0.6376,0.6137,0.5889,0.5679,0.5359,0.4837,0.4212,0.3649,0.3025,0.2415,0.1955,0.1609,0.1208,0.09,0.0,0.0,0.0,0.0,0.0,0.0,0.0,0.0,0.0,0.0,0.0,0.0,0.0,0.0,0.0,0.0,0.0,0.0,0.0,0.0,-0.0224,-0.0359,-0.0449,-0.0583,-0.0673,-0.0807,-0.0897,-0.1076,1.0505,0.9697,0.8419,0.7933,0.7864,0.782,0.7693,0.7532,0.7459,0.7339,0.724,0.721,0.721,0.721,0.721,0.721,0.7191,0.6983,0.6869,0.6787,0.657,0.6457,0.6398,0.6387,0.6387,0.6387,0.6387,0.6387,0.6365,0.6323,0.6208,0.6094,0.6034,0.5972,0.5918,0.6021,0.6086,0.6094,0.6127,0.6102,0.5988,0.598,0.5923,0.5734,0.5686,0.5643,0.554,0.5521,0.5466,0.5385,0.5415,0.5521,0.5645,0.582,0.5945,0.6037,0.6127,0.6162,0.6162,0.6162,0.6138,0.61,0.6086,0.6116,0.6159,0.6281,0.6322,0.6342,0.6354,0.6381,0.6387,0.6387,0.6387,0.6387,0.6387,0.6387,0.6387,0.5987,0.5513,0.5008,0.4518,0.4049,0.3414,0.2974,0.2486,0.1946,0.1545,0.103,0.0,0.0452,0.0404,0.0505,0.0454,0.0,0.0,0.0,0.0,0.0,0.0,0.0,0.0,0.0,0.0,0.0,0.0,0.0,0.0,0.0,-0.018,-0.0269,-0.0359,-0.0449,-0.0583,-0.0721,-0.0855,1.0425,0.9758,0.8482,0.7933,0.7914,0.781,0.7697,0.751,0.7454,0.733,0.7229,0.721,0.721,0.721,0.721,0.721,0.7196,0.6923,0.6798,0.6692,0.6554,0.6392,0.6392,0.6387,0.6387,0.6387,0.6387,0.6387,0.6368,0.6336,0.6217,0.6102,0.5986,0.5926,0.5923,0.6007,0.607,0.6132,0.6206,0.6248,0.6121,0.6102,0.6072,0.6018,0.5945,0.5847,0.5763,0.5733,0.5692,0.5545,0.5553,0.5735,0.5915,0.5945,0.6037,0.6232,0.6219,0.6265,0.6284,0.6259,0.6243,0.6108,0.6102,0.6146,0.6284,0.6333,0.6333,0.636,0.6384,0.6387,0.6387,0.6387,0.6387,0.6387,0.6387,0.6387,0.6337,0.6189,0.5849,0.5405,0.5092,0.4703,0.4265,0.3866,0.3456,0.3083,0.2595,0.213,0.1648,0.1508,0.1412,0.1363,0.1312,0.0,0.0,0.0,0.0,0.0,0.0,0.0,0.0,0.0,0.0,0.0,0.0,0.0,0.0,0.0,0.0,0.0,0.0,0.0,-0.0314,-0.0453,-0.0636,1.0789,1.0065,0.8851,0.8119,0.7914,0.7987,0.7805,0.7569,0.7615,0.7539,0.7285,0.721,0.721,0.721,0.721,0.721,0.718,0.691,0.6709,0.6462,0.6427,0.6387,0.6387,0.6387,0.6387,0.6387,0.6387,0.6387,0.6373,0.6344,0.629,0.6108,0.6053,0.5996,0.5923,0.5939,0.6048,0.624,0.63,0.6292,0.6268,0.6251,0.6213,0.6142,0.6053,0.5983,0.5893,0.5866,0.5852,0.5855,0.5909,0.5996,0.6163,0.6205,0.6237,0.6214,0.6181,0.6138,0.613,0.614,0.6124,0.6161,0.6221,0.6238,0.6314,0.635,0.6399,0.6387,0.6387,0.6387,0.6387,0.6387,0.6387,0.6387,0.6387,0.6387,0.6387,0.6337,0.6187,0.6067,0.5933,0.5884,0.5593,0.5181,0.473,0.4266,0.376,0.3303,0.2916,0.2571,0.2471,0.2321,0.237,0.2269,0.2169,0.1917,0.1363,0.0959,0.0505,0.0,0.0,0.0,0.0,0.0,0.0,0.0,0.0,0.0,0.0,0.0,0.0,0.0,0.0,0.0,-0.0414,1.1333,1.0607,0.94,0.8729,0.8572,0.8459,0.8336,0.8186,0.8118,0.7941,0.7554,0.7321,0.721,0.721,0.721,0.721,0.7155,0.691,0.6671,0.6438,0.6387,0.6387,0.6387,0.6387,0.6387,0.6387,0.6387,0.6387,0.6387,0.6376,0.6344,0.6179,0.6163,0.6015,0.592,0.5901,0.5964,0.6067,0.6157,0.6229,0.6232,0.6229,0.6165,0.61,0.6086,0.6045,0.5994,0.5991,0.5988,0.6005,0.6048,0.6111,0.6165,0.6184,0.6184,0.6173,0.6243,0.6132,0.6113,0.6138,0.6176,0.6168,0.6284,0.629,0.6333,0.6357,0.6379,0.6387,0.6387,0.6387,0.6387,0.6387,0.6387,0.6387,0.6387,0.6387,0.6387,0.6387,0.6371,0.6363,0.6303,0.6276,0.6159,0.5917,0.5492,0.4825,0.4529,0.4071,0.3673,0.3377,0.3428,0.3379,0.3428,0.3428,0.3277,0.2823,0.2017,0.1463,0.0909,0.0656,0.0,0.0,0.0,0.0,0.0,0.0,0.0,0.0,0.0,0.0,0.0,0.0,0.0,0.0,0.0,1.1937,1.1333,1.0004,0.9447,0.9442,0.9078,0.9013,0.9009,0.8769,0.8439,0.7989,0.7487,0.7268,0.721,0.721,0.7199,0.7152,0.691,0.6671,0.6511,0.6439,0.6437,0.6387,0.6387,0.6387,0.6387,0.6387,0.6387,0.6387,0.6379,0.6369,0.6265,0.6173,0.6051,0.5939,0.5901,0.5915,0.5953,0.6018,0.6081,0.6097,0.61,0.6094,0.6089,0.6086,0.6062,0.6032,0.6024,0.6032,0.6034,0.6032,0.6043,0.6062,0.6081,0.6086,0.6094,0.6168,0.621,0.6124,0.6184,0.6255,0.6265,0.6293,0.6336,0.636,0.6379,0.6384,0.6387,0.6387,0.6387,0.6387,0.6387,0.6387,0.6387,0.6387,0.6387,0.6387,0.6387,0.6381,0.6379,0.636,0.6385,0.6297,0.6155,0.5777,0.5441,0.5188,0.4885,0.4485,0.4334,0.4483,0.4583,0.4732,0.4533,0.4331,0.3879,0.3024,0.2369,0.1715,0.1363,0.1109,0.089,0.0726,0.0237,0.0,0.0,0.0,0.0,0.0,0.0,0.0,0.0,0.0,0.0,0.0,1.2419,1.1937,1.0668,1.0169,1.0206,0.9851,0.9756,0.9734,0.9446,0.8927,0.8374,0.7771,0.7435,0.7268,0.721,0.7215,0.7178,0.707,0.688,0.6723,0.6589,0.6487,0.6387,0.6387,0.6387,0.6387,0.6387,0.6387,0.6387,0.6381,0.6382,0.629,0.6241,0.6124,0.598,0.5901,0.5901,0.5899,0.5928,0.5972,0.6032,0.6051,0.6051,0.6051,0.6045,0.601,0.5953,0.5931,0.589,0.5803,0.5748,0.5858,0.5958,0.6048,0.6092,0.6097,0.613,0.6143,0.613,0.6208,0.626,0.6287,0.6347,0.6399,0.6381,0.6389,0.6395,0.6448,0.6395,0.6387,0.6387,0.6392,0.6387,0.6387,0.6387,0.6387,0.6387,0.6387,0.6387,0.6387,0.6387,0.6387,0.6339,0.6339,0.6139,0.5939,0.5837,0.5737,0.5586,0.5586,0.5787,0.5937,0.6037,0.5737,0.5436,0.4832,0.418,0.3575,0.2972,0.2471,0.2159,0.1685,0.1314,0.0815,0.0,0.0,0.0,0.0,0.0,0.0,0.0,0.0,0.0,0.0,0.0,1.302,1.2586,1.1591,1.1145,1.1153,1.0789,1.0636,1.0655,1.0378,0.9915,0.9254,0.8484,0.7878,0.7598,0.7265,0.7348,0.754,0.7484,0.7334,0.7187,0.6936,0.6637,0.6437,0.6387,0.6387,0.6387,0.6387,0.6387,0.6387,0.6387,0.6401,0.6358,0.6301,0.6203,0.6083,0.5966,0.592,0.5899,0.5858,0.585,0.5904,0.5909,0.5909,0.5909,0.5912,0.5869,0.5847,0.5885,0.588,0.585,0.5885,0.5939,0.6015,0.6094,0.6154,0.6121,0.6149,0.6179,0.6198,0.6285,0.6355,0.6363,0.6412,0.6434,0.6387,0.6392,0.6458,0.6497,0.6408,0.6414,0.6526,0.6422,0.6392,0.6387,0.6387,0.6387,0.6387,0.6387,0.6387,0.6387,0.6387,0.6387,0.6387,0.6387,0.6387,0.6387,0.6387,0.6387,0.6387,0.6387,0.6387,0.6387,0.6387,0.6187,0.5837,0.5436,0.5085,0.458,0.4176,0.3677,0.3119,0.264,0.202,0.1507,0.0,0.0,0.0,0.0,0.0,0.0,0.0,0.0,0.0,0.0,0.0,1.3569,1.3246,1.239,1.2055,1.2028,1.1602,1.1492,1.1496,1.1194,1.0633,1.0029,0.8978,0.8208,0.7875,0.768,0.7735,0.8131,0.8167,0.8001,0.7635,0.7288,0.6886,0.6537,0.6387,0.6387,0.6387,0.6387,0.6387,0.6387,0.6387,0.6387,0.6407,0.6333,0.6282,0.6268,0.6086,0.5983,0.5877,0.5822,0.5723,0.5696,0.5688,0.5704,0.5721,0.5771,0.5748,0.5852,0.5915,0.595,0.5975,0.6043,0.613,0.617,0.6298,0.6363,0.6219,0.6317,0.6342,0.6323,0.6366,0.642,0.642,0.6381,0.6387,0.6387,0.6395,0.6422,0.654,0.6454,0.6414,0.6468,0.6488,0.6398,0.6387,0.6387,0.6387,0.6387,0.6387,0.6387,0.6387,0.6387,0.6387,0.6387,0.6387,0.6387,0.6387,0.6387,0.6387,0.6387,0.6387,0.6387,0.6387,0.6387,0.6289,0.6089,0.5839,0.5586,0.5384,0.5081,0.473,0.413,0.3519,0.2983,0.246,0.0,0.0,0.0,0.0142,0.0,0.0,0.0,0.0,0.0,0.0,0.0,1.3688,1.3555,1.2695,1.2575,1.2797,1.2055,1.1919,1.2105,1.1417,1.0629,0.9875,0.8923,0.8097,0.7709,0.8152,0.8479,0.8712,0.8776,0.8525,0.8019,0.7487,0.6989,0.6434,0.6387,0.6387,0.6387,0.6387,0.6387,0.6387,0.6387,0.6387,0.6376,0.641,0.6372,0.6287,0.6208,0.6113,0.5945,0.5896,0.5841,0.5771,0.5712,0.5764,0.586,0.589,0.5931,0.6013,0.6064,0.6083,0.6105,0.6192,0.6298,0.6385,0.6611,0.6634,0.6547,0.6433,0.6368,0.642,0.6395,0.6425,0.643,0.6472,0.6395,0.6453,0.6445,0.64,0.6395,0.6389,0.6408,0.6438,0.6406,0.6389,0.6387,0.6387,0.6387,0.6387,0.6387,0.6387,0.6387,0.6387,0.6387,0.6387,0.6387,0.6387,0.6387,0.6387,0.6387,0.6387,0.6387,0.6387,0.6387,0.6387,0.6337,0.6289,0.6089,0.5989,0.5937,0.5784,0.5584,0.5033,0.4431,0.4178,0.3628,0.2929,0.2173,0.1494,0.0967,0.0584,0.0294,0.0147,0.0,0.0,0.0,0.0,1.3688,1.366,1.3047,1.2924,1.3027,1.2386,1.2142,1.2019,1.1404,1.0741,1.0013,0.895,0.8263,0.8097,0.8702,0.9295,0.9636,0.963,0.9189,0.8435,0.7836,0.7188,0.6587,0.6387,0.6387,0.6387,0.6387,0.6387,0.6387,0.6387,0.6387,0.6387,0.6387,0.6418,0.6347,0.6298,0.6265,0.6119,0.6048,0.5986,0.5947,0.5937,0.5956,0.6007,0.6015,0.6133,0.6229,0.626,0.632,0.6369,0.645,0.6533,0.6664,0.6793,0.6821,0.6941,0.672,0.662,0.6526,0.6535,0.6505,0.667,0.6727,0.6878,0.676,0.6581,0.6475,0.6487,0.6422,0.6416,0.6494,0.6422,0.6398,0.6387,0.6387,0.6387,0.6387,0.6387,0.6387,0.6387,0.6387,0.6387,0.6387,0.6387,0.6387,0.6387,0.6387,0.6387,0.6387,0.6387,0.6387,0.6387,0.6387,0.6387,0.6387,0.6287,0.6239,0.6187,0.6187,0.5987,0.5739,0.5338,0.4983,0.4529,0.3836,0.3112,0.2407,0.1667,0.113,0.0695,0.0251,0.0,0.0,0.0,0.0,1.3613,1.3575,1.3216,1.3065,1.3027,1.2616,1.2278,1.206,1.14,1.0812,1.0151,0.9137,0.8647,0.8923,0.9453,1.0112,1.0529,1.0473,0.9729,0.8922,0.8184,0.7388,0.6686,0.6387,0.6387,0.6387,0.6387,0.6387,0.6387,0.6387,0.6387,0.6387,0.6387,0.6431,0.6412,0.6363,0.6293,0.6287,0.6261,0.6225,0.6177,0.6255,0.624,0.6265,0.6281,0.6374,0.6542,0.6726,0.6839,0.683,0.6893,0.7004,0.7069,0.7158,0.7163,0.7214,0.708,0.7,0.6805,0.6734,0.6684,0.6831,0.7021,0.7069,0.6924,0.6637,0.6456,0.6537,0.6435,0.6441,0.6476,0.6427,0.6403,0.6387,0.6387,0.6387,0.6387,0.6387,0.6387,0.6387,0.6387,0.6387,0.6387,0.6387,0.6387,0.6387,0.6387,0.6387,0.6387,0.6387,0.6387,0.6387,0.6387,0.6387,0.6387,0.6387,0.6387,0.6387,0.6387,0.6337,0.6039,0.5889,0.5586,0.5135,0.4684,0.4464,0.3975,0.2776,0.1635,0.1249,0.0856,0.0454,0.0,0.0151,0.0,1.341,1.3391,1.3159,1.3112,1.3084,1.2616,1.2382,1.2219,1.1455,1.0755,1.0118,0.9375,0.9161,0.9526,1.0323,1.0865,1.0884,1.0936,1.0026,0.9022,0.818,0.7385,0.6736,0.6387,0.6387,0.6387,0.6387,0.6387,0.6387,0.6387,0.6387,0.6387,0.6387,0.6387,0.6381,0.641,0.6407,0.641,0.65,0.6497,0.648,0.6588,0.6681,0.667,0.6825,0.705,0.716,0.7296,0.7379,0.7319,0.7321,0.7376,0.7398,0.7493,0.7509,0.7443,0.7438,0.7359,0.7214,0.6895,0.6693,0.6829,0.7074,0.7238,0.7113,0.6888,0.6662,0.652,0.6448,0.6398,0.6408,0.6392,0.6387,0.6387,0.6387,0.6387,0.6387,0.6387,0.6387,0.6387,0.6387,0.6387,0.6387,0.6387,0.6387,0.6387,0.6387,0.6387,0.6387,0.6387,0.6387,0.6387,0.6387,0.6387,0.6387,0.6387,0.6387,0.6387,0.6387,0.6387,0.6337,0.6187,0.6037,0.5987,0.5636,0.5634,0.5381,0.4005,0.2801,0.2011,0.1514,0.1211,0.0757,0.0505,0.0303,1.3391,1.3358,1.3027,1.2937,1.2918,1.2564,1.2278,1.206,1.14,1.0688,0.9974,0.9839,1.0061,1.0547,1.0996,1.146,1.1388,1.1092,1.0073,0.9022,0.8184,0.7385,0.6736,0.6437,0.6387,0.6387,0.6387,0.6387,0.6387,0.6387,0.6387,0.6387,0.6387,0.6387,0.6387,0.6437,0.6506,0.6641,0.6717,0.677,0.6877,0.6807,0.6868,0.7003,0.6816,0.7085,0.7276,0.7413,0.7486,0.755,0.7541,0.7592,0.7632,0.7674,0.774,0.7686,0.7669,0.7591,0.7544,0.7259,0.7229,0.7599,0.7669,0.7562,0.7464,0.7214,0.692,0.6679,0.6503,0.6469,0.6395,0.6392,0.6387,0.6387,0.64,0.6411,0.6422,0.6438,0.6438,0.6462,0.6419,0.6387,0.6387,0.6387,0.6387,0.6387,0.6387,0.6387,0.6387,0.6387,0.6387,0.6387,0.6387,0.6387,0.6387,0.6387,0.6387,0.6387,0.6387,0.6387,0.6387,0.6387,0.6287,0.6387,0.6387,0.6087,0.5586,0.4836,0.3981,0.3175,0.2571,0.2169,0.1614,0.1009,0.0606,1.3206,1.3159,1.2824,1.271,1.2729,1.2531,1.2278,1.2055,1.1514,1.0798,1.0143,1.0536,1.0921,1.1261,1.1664,1.1782,1.1646,1.1216,1.0217,0.9234,0.8329,0.7484,0.6839,0.6439,0.6387,0.6387,0.6387,0.6387,0.6387,0.6387,0.6387,0.6387,0.6387,0.6387,0.6437,0.6489,0.6592,0.6798,0.7086,0.7098,0.7249,0.725,0.7175,0.734,0.725,0.7334,0.7617,0.7748,0.7852,0.7843,0.7811,0.7789,0.7772,0.7808,0.7852,0.7892,0.7846,0.7712,0.7727,0.7703,0.7755,0.7995,0.8102,0.8061,0.7963,0.7663,0.7367,0.6947,0.6763,0.6588,0.6537,0.6573,0.6586,0.6608,0.6605,0.6562,0.6554,0.6562,0.6546,0.6541,0.6492,0.6454,0.6478,0.6478,0.6387,0.6387,0.6387,0.6387,0.6387,0.6387,0.6387,0.6387,0.6387,0.6387,0.6387,0.6387,0.6387,0.6387,0.6387,0.6387,0.6387,0.6387,0.6387,0.6387,0.6387,0.6289,0.5987,0.5486,0.4933,0.4329,0.3676,0.2923,0.2169,0.1514,0.0959,1.28,1.2753,1.255,1.2573,1.2715,1.2531,1.2382,1.2273,1.1841,1.1291,1.0852,1.1321,1.1544,1.1732,1.206,1.2093,1.1737,1.1441,1.0569,0.939,0.8676,0.7836,0.7089,0.6639,0.6487,0.6437,0.6387,0.6387,0.6437,0.6489,0.6439,0.6487,0.6537,0.6487,0.6437,0.6642,0.6795,0.6909,0.7512,0.7534,0.7559,0.7673,0.7653,0.7656,0.765,0.7704,0.7865,0.803,0.8114,0.8057,0.8102,0.8029,0.7985,0.7962,0.7998,0.8015,0.8012,0.8079,0.8258,0.8013,0.803,0.8223,0.8348,0.8372,0.8206,0.8006,0.7827,0.7388,0.7148,0.7014,0.6876,0.6774,0.6755,0.6741,0.673,0.6725,0.6714,0.6711,0.669,0.6679,0.6594,0.6559,0.6567,0.6524,0.6408,0.6387,0.6387,0.6387,0.6389,0.6387,0.6387,0.6387,0.6387,0.6387,0.6387,0.6387,0.6387,0.6387,0.6387,0.6387,0.6387,0.6387,0.6387,0.6387,0.6387,0.6337,0.6387,0.6337,0.5684,0.5081,0.4329,0.3577,0.2773,0.2219,0.1866,1.2767,1.2748,1.2531,1.2479,1.2481,1.2474,1.2382,1.2382,1.2223,1.2005,1.1896,1.2055,1.2169,1.2223,1.2186,1.2165,1.1836,1.1493,1.0671,0.9817,0.9248,0.8276,0.7537,0.7109,0.6795,0.6487,0.6387,0.6589,0.6692,0.6742,0.6839,0.6889,0.6886,0.6836,0.6742,0.6795,0.6895,0.73,0.7588,0.7711,0.7771,0.7769,0.7801,0.7855,0.7808,0.7862,0.7967,0.8177,0.8191,0.8143,0.814,0.8099,0.7998,0.7988,0.8085,0.8153,0.8197,0.8316,0.8482,0.8464,0.8421,0.8545,0.8598,0.8656,0.8498,0.8321,0.8109,0.779,0.7481,0.7263,0.7109,0.6904,0.679,0.6785,0.6779,0.6779,0.6777,0.6779,0.6771,0.6766,0.6744,0.6684,0.6632,0.6594,0.6484,0.6499,0.6502,0.6406,0.6392,0.6389,0.6387,0.6387,0.6387,0.6387,0.6387,0.6387,0.6387,0.6387,0.6387,0.6387,0.6387,0.6387,0.6387,0.6387,0.6387,0.6387,0.6387,0.6387,0.6287,0.5787,0.5083,0.4531,0.3929,0.3476,0.3173,1.2724,1.2639,1.2443,1.2382,1.2382,1.2382,1.2382,1.2382,1.2382,1.2382,1.2382,1.2382,1.2382,1.2382,1.2354,1.2231,1.1893,1.1869,1.1428,1.0536,1.0109,0.9318,0.8596,0.7925,0.7573,0.7139,0.7004,0.7092,0.7244,0.7241,0.7341,0.7437,0.7385,0.7338,0.7241,0.7244,0.7244,0.7547,0.7716,0.7859,0.7905,0.7912,0.7856,0.7909,0.7862,0.7809,0.7945,0.7988,0.7992,0.7992,0.7992,0.7995,0.7998,0.8012,0.8123,0.8225,0.8401,0.8506,0.8645,0.8842,0.8797,0.8879,0.8878,0.8831,0.8757,0.8631,0.8422,0.8157,0.7765,0.757,0.7414,0.7191,0.6994,0.6999,0.6964,0.6972,0.6921,0.6926,0.6926,0.6912,0.6853,0.6782,0.6709,0.6662,0.6567,0.6594,0.6573,0.6468,0.6416,0.6406,0.6406,0.6403,0.6392,0.6387,0.6387,0.6387,0.6387,0.6387,0.6387,0.6387,0.6387,0.6387,0.6387,0.6387,0.6387,0.6387,0.6387,0.6387,0.6292,0.6239,0.5987,0.5486,0.5035,0.4647,0.4257,1.2699,1.2465,1.2441,1.2441,1.2441,1.2491,1.2436,1.2382,1.2382,1.2382,1.2382,1.2382,1.2363,1.2363,1.2372,1.2236,1.2173,1.2356,1.2054,1.1662,1.1238,1.054,0.9927,0.9335,0.89,0.8494,0.8338,0.8368,0.8197,0.8428,0.8428,0.8134,0.8077,0.7982,0.7885,0.7693,0.7643,0.7696,0.7846,0.7942,0.7988,0.7988,0.7939,0.7988,0.7939,0.7942,0.7988,0.7988,0.8002,0.8008,0.8012,0.8025,0.8025,0.8015,0.816,0.834,0.8611,0.874,0.8838,0.9049,0.9106,0.9103,0.9042,0.8929,0.8919,0.8935,0.8807,0.8598,0.8283,0.806,0.7817,0.7564,0.7366,0.7326,0.7212,0.7214,0.7188,0.7169,0.7166,0.7128,0.6994,0.6918,0.6831,0.6771,0.6717,0.6703,0.6679,0.6638,0.6578,0.6449,0.6443,0.6433,0.6416,0.6389,0.6387,0.6387,0.6387,0.6387,0.6387,0.6387,0.6387,0.6387,0.6387,0.6387,0.6387,0.6387,0.6387,0.6392,0.6398,0.635,0.6335,0.6102,0.5553,0.5419,0.509,1.3381,1.3307,1.3103,1.3044,1.3044,1.3044,1.2822,1.2441,1.2382,1.2382,1.2382,1.2382,1.238,1.2189,1.2316,1.2214,1.2211,1.2288,1.2444,1.2333,1.2343,1.1996,1.1634,1.1129,1.0655,1.0256,1.0016,0.9946,1.004,1.0113,0.9974,0.9752,0.9237,0.8969,0.8582,0.8148,0.8032,0.7985,0.8099,0.8025,0.8022,0.8029,0.8025,0.8029,0.8032,0.8035,0.8049,0.8042,0.8126,0.8208,0.8211,0.8269,0.8516,0.8526,0.8608,0.8882,0.9076,0.9198,0.9205,0.9262,0.9296,0.934,0.9245,0.9266,0.9256,0.9225,0.9161,0.8936,0.86,0.8338,0.8063,0.7806,0.7566,0.7383,0.7277,0.7285,0.7211,0.719,0.719,0.7251,0.7119,0.7046,0.6959,0.6866,0.682,0.6809,0.6793,0.6763,0.6687,0.6605,0.654,0.6478,0.6425,0.6392,0.6387,0.6387,0.6387,0.6387,0.6387,0.6387,0.6387,0.6387,0.6387,0.6387,0.6387,0.6387,0.6387,0.6403,0.6435,0.6492,0.6471,0.6316,0.6143,0.5987,0.5945,1.398,1.3876,1.3746,1.3635,1.3635,1.3635,1.3413,1.3088,1.2871,1.2767,1.2762,1.2767,1.2699,1.2651,1.2846,1.2836,1.2705,1.3227,1.3474,1.3614,1.3471,1.3343,1.3176,1.2783,1.2181,1.1844,1.1633,1.1512,1.1675,1.1675,1.1604,1.1281,1.0687,1.017,0.9745,0.9291,0.8848,0.867,0.848,0.8248,0.8194,0.8214,0.8214,0.8214,0.8214,0.8184,0.8228,0.8282,0.8374,0.8503,0.8533,0.8564,0.8726,0.871,0.8723,0.8933,0.9052,0.9117,0.914,0.9222,0.933,0.9371,0.9408,0.9367,0.9364,0.9337,0.934,0.9231,0.8894,0.8555,0.8267,0.8023,0.7657,0.7353,0.7326,0.7304,0.7269,0.7239,0.7255,0.7282,0.7239,0.7171,0.7084,0.6986,0.6945,0.6972,0.6983,0.7026,0.6855,0.6711,0.663,0.6532,0.6454,0.6387,0.6398,0.6419,0.6419,0.6414,0.6387,0.6387,0.6389,0.6395,0.6403,0.6398,0.6387,0.6395,0.6414,0.6457,0.6497,0.6562,0.6679,0.6562,0.6518,0.6537,0.6582,1.4461,1.4321,1.4283,1.4277,1.4277,1.4272,1.4223,1.4229,1.3689,1.3423,1.3369,1.3364,1.3344,1.3303,1.3561,1.3658,1.3727,1.4108,1.4519,1.4961,1.4712,1.4642,1.4472,1.4046,1.3694,1.3325,1.3091,1.3115,1.3017,1.3016,1.3017,1.2783,1.1949,1.1396,1.1151,1.049,1.0142,1.0081,0.9537,0.9105,0.8748,0.8622,0.8569,0.8569,0.8583,0.8557,0.8648,0.8713,0.8771,0.8807,0.8824,0.8801,0.8873,0.8992,0.8999,0.9037,0.9273,0.9318,0.9373,0.9432,0.9389,0.937,0.9357,0.9415,0.9439,0.9381,0.9381,0.9323,0.8971,0.8736,0.8503,0.8145,0.7797,0.7489,0.7385,0.7317,0.7304,0.7282,0.7285,0.7293,0.7244,0.7187,0.7171,0.7073,0.7095,0.7161,0.7172,0.7163,0.7078,0.6844,0.6763,0.6684,0.6613,0.6556,0.6548,0.6559,0.6473,0.6452,0.6443,0.6513,0.6567,0.6532,0.6419,0.6446,0.6526,0.6446,0.6454,0.6519,0.6649,0.6717,0.6774,0.6812,0.6858,0.691,0.6907,1.5153,1.508,1.4899,1.4821,1.4821,1.4821,1.4815,1.4821,1.4659,1.4337,1.4062,1.3997,1.3923,1.3864,1.4205,1.435,1.4352,1.4825,1.5305,1.5552,1.563,1.5599,1.5808,1.5369,1.5204,1.5054,1.4827,1.4608,1.4402,1.4401,1.4271,1.3887,1.3231,1.2846,1.2462,1.1766,1.1496,1.1508,1.1277,1.0449,0.983,0.937,0.921,0.9087,0.8982,0.8757,0.8781,0.874,0.874,0.876,0.8764,0.8961,0.9363,0.9698,0.9876,0.9905,1.0024,1.0021,1.0035,1.0058,0.9913,0.9735,0.9676,0.9592,0.9494,0.9436,0.9378,0.9258,0.9139,0.8962,0.8662,0.8299,0.7922,0.7672,0.7439,0.7382,0.7328,0.7274,0.732,0.7288,0.7241,0.722,0.7214,0.7245,0.7221,0.7207,0.7204,0.7191,0.7161,0.6991,0.694,0.6864,0.6779,0.6728,0.6692,0.6662,0.6635,0.6654,0.6668,0.6684,0.6695,0.666,0.6622,0.6624,0.6632,0.6608,0.6619,0.6692,0.6766,0.6823,0.6891,0.694,0.6999,0.7111,0.7081,1.5621,1.5604,1.5469,1.541,1.541,1.541,1.541,1.541,1.541,1.5244,1.4922,1.4702,1.4522,1.4445,1.4805,1.4922,1.4893,1.5283,1.5733,1.6074,1.613,1.6192,1.6288,1.6247,1.6031,1.5831,1.5837,1.57,1.5469,1.5561,1.5352,1.4919,1.4437,1.4072,1.3602,1.315,1.2827,1.2914,1.2955,1.2316,1.124,1.0627,0.9883,0.9651,0.9199,0.8954,0.8947,0.8916,0.8957,0.9013,0.9092,0.9588,1.0036,1.0447,1.0819,1.11,1.1264,1.1254,1.1153,1.1001,1.0666,1.039,0.9869,0.9716,0.92,0.915,0.9269,0.9215,0.9202,0.9026,0.8758,0.8394,0.7998,0.7702,0.7584,0.748,0.7385,0.7394,0.7402,0.7413,0.7353,0.7282,0.7258,0.7248,0.7226,0.721,0.721,0.721,0.7182,0.7161,0.7125,0.7021,0.6921,0.6831,0.6766,0.6755,0.6757,0.6787,0.6831,0.6793,0.6768,0.6779,0.6777,0.6757,0.6741,0.6736,0.676,0.682,0.6866,0.6918,0.6997,0.7128,0.7182,0.721,0.7169,1.5897,1.5885,1.5885,1.5885,1.5885,1.5885,1.5885,1.5885,1.5885,1.5885,1.5731,1.5303,1.5148,1.5175,1.5396,1.5476,1.5597,1.5848,1.6187,1.6359,1.6195,1.6345,1.6391,1.6241,1.6121,1.6091,1.6091,1.5988,1.5807,1.5982,1.597,1.5808,1.5561,1.5244,1.485,1.446,1.4089,1.4138,1.4077,1.3923,1.2968,1.1857,1.0834,1.0065,0.9446,0.9223,0.924,0.9341,0.9403,0.9514,0.9725,1.0256,1.083,1.1249,1.1799,1.2124,1.2302,1.2343,1.232,1.1959,1.1443,1.0928,1.0304,0.9765,0.9338,0.9179,0.9299,0.9324,0.9313,0.907,0.8861,0.8548,0.8152,0.7853,0.7753,0.7536,0.7477,0.7404,0.7437,0.7459,0.7385,0.7304,0.726,0.7254,0.7232,0.7215,0.7213,0.7213,0.7207,0.7193,0.7172,0.7133,0.7067,0.6929,0.6874,0.6872,0.6896,0.6915,0.6945,0.6885,0.6858,0.691,0.6912,0.6853,0.6839,0.6866,0.6888,0.6931,0.6975,0.701,0.7114,0.7174,0.7188,0.721,0.721,1.5885,1.5885,1.5885,1.5885,1.5885,1.5885,1.5885,1.5885,1.5885,1.5885,1.5891,1.5838,1.5731,1.5749,1.6,1.6047,1.5944,1.618,1.6589,1.6858,1.6436,1.6504,1.6567,1.6296,1.6121,1.606,1.603,1.5946,1.5934,1.6133,1.6169,1.5869,1.6138,1.5944,1.5694,1.5369,1.5247,1.5204,1.5198,1.504,1.4195,1.3044,1.1863,1.1065,1.0498,1.0091,0.9876,0.9843,0.9774,0.9928,1.0449,1.1041,1.1625,1.2256,1.2822,1.3236,1.3398,1.3398,1.329,1.3029,1.2481,1.1778,1.1181,1.0633,1.0202,0.9875,0.9898,0.9846,0.9728,0.9231,0.8981,0.87,0.8387,0.8196,0.7994,0.7644,0.741,0.735,0.7331,0.7301,0.7241,0.7206,0.7201,0.7221,0.7221,0.7215,0.7232,0.7229,0.7213,0.7213,0.7221,0.7177,0.7139,0.7163,0.7144,0.7103,0.7111,0.707,0.7065,0.7018,0.7018,0.7081,0.7119,0.7032,0.6994,0.7032,0.7051,0.7081,0.7119,0.7152,0.7174,0.7204,0.721,0.721,0.721]}]]